[[{"header":{"parameterUnit":"m.s-1","parameterCategory":1,"la1":31.0,"la2":29.5877,"lo1":-88.7671,"lo2":-86.6584,"dy":0.0162,"dx":0.0185,"nx":115,"ny":88,"refTime":"2023-11-19T06:00:00:Z","depth":0,"parameterNumber":2,"parameterNumberName":"U-component_of_WINDS"},"data":[0.0,0.0,0.0,0.0,0.0,0.0,0.0,0.0,0.0,0.0,0.0,0.0,0.0,0.0,0.0,0.0,0.0,0.0,0.0,0.0,0.0,0.0,0.0,0.0,0.0,0.0,0.0,0.0,0.0,0.0,0.0,0.0,0.0,0.0,0.0,0.0,0.0,0.0,0.0,0.0,0.0,0.0,0.0,0.0,0.0,0.0,0.0,0.0,0.0,0.0,0.0,0.0,0.0,0.0,0.0,0.0,0.0,0.0,0.0,0.0,0.0,0.0,0.0,0.0,0.0,0.0,0.0,0.0,0.0,0.0,0.0,0.0,0.0,0.0,0.0,0.0,0.0,0.0,0.0,0.0,0.0,0.0,0.0,0.0,0.0,0.0,0.0,0.0,0.0,0.0,0.0,0.0,0.0,0.0,0.0,0.0,0.0,0.0,0.0,0.0,0.0,0.0,0.0,0.0,0.0,0.0,0.0,0.0,0.0,0.0,0.0,0.0,0.0,0.0,0.0,0.0,0.0,0.0,0.0,0.0,0.0,0.0,0.0,0.0,0.0,0.0,0.0,0.0,0.0,0.0,0.0,0.0,0.0,0.0,0.0,0.0,0.0,0.0,0.0,0.0,0.0,0.0,0.0,0.0,0.0,0.0,0.0,0.0,0.0,0.0,0.0,0.0,0.0,0.0,0.0,0.0,0.0,0.0,0.0,0.0,0.0,0.0,0.0,0.0,0.0,0.0,0.0,0.0,0.0,0.0,0.0,0.0,0.0,0.0,0.0,0.0,0.0,0.0,0.0,0.0,0.0,0.0,0.0,0.0,0.0,0.0,0.0,0.0,0.0,0.0,0.0,0.0,0.0,0.0,0.0,0.0,0.0,0.0,0.0,0.0,0.0,0.0,0.0,0.0,0.0,0.0,0.0,0.0,0.0,0.0,0.0,0.0,0.0,0.0,0.0,0.0,0.0,0.0,0.0,0.0,0.0,0.0,0.0,0.0,0.0,0.0,0.0,0.0,0.0,0.0,0.0,0.0,0.0,0.0,0.0,0.0,0.0,0.0,0.0,0.0,0.0,0.0,0.0,0.0,0.0,0.0,0.0,0.0,0.0,0.0,0.0,0.0,0.0,0.0,0.0,0.0,0.0,0.0,0.0,0.0,0.0,0.0,0.0,0.0,0.0,0.0,0.0,0.0,0.0,0.0,0.0,0.0,0.0,0.0,0.0,0.0,0.0,0.0,0.0,0.0,0.0,0.0,0.0,0.0,0.0,0.0,0.0,0.0,0.0,0.0,0.0,0.0,0.0,0.0,0.0,0.0,0.0,0.0,0.0,0.0,0.0,0.0,0.0,0.0,0.0,0.0,0.0,0.0,0.0,0.0,0.0,0.0,0.0,0.0,0.0,0.0,0.0,0.0,0.0,0.0,0.0,0.0,0.0,0.0,0.0,0.0,0.0,0.0,0.0,0.0,0.0,0.0,0.0,0.0,0.0,0.0,0.0,0.0,0.0,0.0,0.0,0.0,0.0,0.0,0.0,0.0,0.0,0.0,0.0,0.0,0.0,0.0,0.0,0.0,0.0,0.0,0.0,0.0,0.0,0.0,0.0,0.0,0.0,0.0,0.0,0.0,0.0,0.0,0.0,0.0,0.0,0.0,0.0,0.0,0.0,0.0,0.0,0.0,0.0,0.0,0.0,0.0,0.0,0.0,0.0,0.0,0.0,0.0,0.0,0.0,0.0,0.0,0.0,0.0,0.0,0.0,0.0,0.0,0.0,0.0,0.0,0.0,0.0,0.0,0.0,0.0,0.0,0.0,0.0,0.0,0.0,0.0,0.0,0.0,0.0,0.0,0.0,0.0,0.0,0.0,0.0,0.0,0.0,0.0,0.0,0.0,0.0,0.0,0.0,0.0,0.0,0.0,0.0,0.0,0.0,0.0,0.0,0.0,0.0,0.0,0.0,0.0,0.0,0.0,0.0,0.0,0.0,0.0,0.0,0.0,0.0,0.0,0.0,0.0,0.0,0.0,0.0,0.0,0.0,0.0,0.0,0.0,0.0,0.0,0.0,0.0,0.0,0.0,0.0,0.0,0.0,0.0,0.0,0.0,0.0,0.0,0.0,0.0,0.0,0.0,0.0,0.0,0.0,0.0,0.0,0.0,0.0,0.0,0.0,0.0,0.0,0.0,0.0,0.0,0.0,0.0,0.0,0.0,0.0,0.0,0.0,0.0,0.0,0.0,0.0,0.0,0.0,0.0,0.0,0.0,0.0,0.0,0.0,0.0,0.0,0.0,0.0,0.0,0.0,0.0,0.0,0.0,0.0,0.0,0.0,0.0,0.0,0.0,0.0,0.0,0.0,0.0,0.0,0.0,0.0,0.0,0.0,0.0,0.0,0.0,0.0,0.0,0.0,0.0,0.0,0.0,0.0,0.0,0.0,0.0,0.0,0.0,0.0,0.0,0.0,0.0,0.0,0.0,0.0,0.0,0.0,0.0,0.0,0.0,0.0,0.0,0.0,0.0,0.0,0.0,0.0,0.0,0.0,0.0,0.0,0.0,0.0,0.0,0.0,0.0,0.0,0.0,0.0,0.0,0.0,0.0,0.0,0.0,0.0,0.0,0.0,0.0,0.0,0.0,0.0,0.0,0.0,0.0,0.0,0.0,0.0,0.0,0.0,0.0,0.0,0.0,0.0,0.0,0.0,0.0,0.0,0.0,0.0,0.0,0.0,0.0,0.0,0.0,0.0,0.0,0.0,0.0,0.0,0.0,0.0,0.0,0.0,0.0,0.0,0.0,0.0,0.0,0.0,0.0,0.0,0.0,0.0,0.0,0.0,0.0,0.0,0.0,0.0,0.0,0.0,0.0,0.0,0.0,0.0,0.0,0.0,0.0,0.0,0.0,0.0,0.0,0.0,0.0,0.0,0.0,0.0,0.0,0.0,0.0,0.0,0.0,0.0,0.0,0.0,0.0,0.0,0.0,0.0,0.0,0.0,0.0,0.0,0.0,0.0,0.0,0.0,0.0,0.0,0.0,0.0,0.0,0.0,0.0,0.0,0.0,0.0,0.0,0.0,0.0,0.0,0.0,0.0,0.0,0.0,0.0,0.0,0.0,0.0,0.0,0.0,0.0,0.0,0.0,0.0,0.0,0.0,0.0,0.0,0.0,0.0,0.0,0.0,0.0,0.0,0.0,0.0,0.0,0.0,0.0,0.0,0.0,0.0,0.0,0.0,0.0,0.0,0.0,0.0,0.0,0.0,0.0,0.0,0.0,0.0,0.0,0.0,0.0,0.0,0.0,0.0,0.0,0.0,0.0,0.0,0.0,0.0,0.0,0.0,0.0,0.0,0.0,0.0,0.0,0.0,0.0,0.0,0.0,0.0,0.0,0.0,0.0,0.0,0.0,0.0,0.0,0.0,0.0,0.0,0.0,0.0,0.0,0.0,0.0,0.0,0.0,0.0,0.0,0.0,0.0,0.0,0.0,0.0,0.0,0.0,0.0,0.0,0.0,0.0,0.0,0.0,0.0,0.0,0.0,0.0,0.0,0.0,0.0,0.0,0.0,0.0,0.0,0.0,0.0,0.0,0.0,0.0,0.0,0.0,0.0,0.0,0.0,0.0,0.0,0.0,0.0,0.0,0.0,0.0,0.0,0.0,0.0,0.0,0.0,0.0,0.0,0.0,0.0,0.0,0.0,0.0,0.0,0.0,0.0,0.0,0.0,0.0,0.0,0.0,0.0,0.0,0.0,0.0,0.0,0.0,0.0,0.0,0.0,0.0,0.0,0.0,0.0,0.0,0.0,0.0,0.0,0.0,0.0,0.0,0.0,0.0,0.0,0.0,0.0,0.0,0.0,0.0,0.0,0.0,0.0,0.0,0.0,0.0,0.0,0.0,0.0,0.0,0.0,0.0,0.0,0.0,0.0,0.0,0.0,0.0,0.0,0.0,0.0,0.0,0.0,0.0,0.0,0.0,0.0,0.0,0.0,0.0,0.0,0.0,0.0,0.0,0.0,0.0,0.0,0.0,0.0,0.0,0.0,0.0,0.0,0.0,0.0,0.0,0.0,0.0,0.0,0.0,0.0,0.0,0.0,0.0,0.0,0.0,0.0,0.0,0.0,0.0,0.0,0.0,0.0,0.0,0.0,0.0,0.0,0.0,0.0,0.0,0.0,0.0,0.0,0.0,0.0,0.0,0.0,0.0,0.0,0.0,0.0,0.0,0.0,0.0,0.0,0.0,0.0,0.0,0.0,0.0,0.0,0.0,0.0,0.0,0.0,1.7568,0.0,0.0,0.0,0.0,0.0,0.0,0.0,0.0,0.0,0.0,0.0,0.0,0.0,0.0,0.0,0.0,0.0,0.0,0.0,0.0,0.0,0.0,0.0,0.0,0.0,0.0,0.0,0.0,0.0,0.0,0.0,0.0,0.0,0.0,0.0,0.0,0.0,0.0,0.0,0.0,0.0,0.0,0.0,0.0,0.0,0.0,0.0,0.0,0.0,0.0,0.0,0.0,0.0,0.0,0.0,0.0,0.0,0.0,0.0,0.0,0.0,0.0,0.0,0.0,0.0,0.0,0.0,0.0,0.0,0.0,0.0,0.0,0.0,0.0,0.0,0.0,0.0,0.0,0.0,0.0,0.0,0.0,0.0,0.0,0.0,0.0,0.0,0.0,0.0,0.0,0.0,0.0,0.0,0.0,0.0,0.0,0.0,0.0,0.0,0.0,0.0,0.0,0.0,0.0,0.0,0.0,0.0,0.0,0.0,0.0,2.0299,2.0289,1.9461,1.8826,1.8414,0.0,0.0,0.0,0.0,0.0,0.0,0.0,0.0,0.0,0.0,0.0,0.0,0.0,0.0,0.0,0.0,0.0,0.0,0.0,0.0,0.0,0.0,0.0,0.0,0.0,0.0,0.0,0.0,0.0,0.0,0.0,0.0,0.0,0.0,0.0,0.0,0.0,0.0,0.0,0.0,0.0,0.0,0.0,0.0,0.0,0.0,0.0,0.0,0.0,0.0,0.0,0.0,0.0,0.0,0.0,0.0,0.0,0.0,0.0,0.0,0.0,0.0,0.0,0.0,0.0,0.0,0.0,0.0,0.0,0.0,0.0,0.0,0.0,0.0,0.0,0.0,0.0,0.0,0.0,0.0,0.0,0.0,0.0,0.0,0.0,0.0,0.0,0.0,0.0,0.0,0.0,0.0,0.0,0.0,0.0,0.0,0.0,0.0,0.0,0.0,0.0,0.0,0.0,0.0,0.0,0.0,0.0,0.0,0.0,0.0,0.0,0.0,1.9646,1.9288,1.9295,0.0,0.0,0.0,0.0,0.0,0.0,0.0,0.0,0.0,0.0,0.0,0.0,0.0,0.0,0.0,0.0,0.0,0.0,0.0,0.0,0.0,0.0,0.0,0.0,0.0,0.0,0.0,0.0,0.0,0.0,0.0,0.0,0.0,0.0,0.0,0.0,0.0,0.0,0.0,0.0,0.0,0.0,0.0,0.0,0.0,0.0,0.0,0.0,0.0,0.0,0.0,0.0,0.0,0.0,0.0,0.0,0.0,0.0,0.0,0.0,0.0,0.0,0.0,0.0,0.0,0.0,0.0,0.0,0.0,0.0,0.0,0.0,0.0,0.0,0.0,0.0,0.0,0.0,0.0,0.0,0.0,0.0,0.0,0.0,0.0,0.0,0.0,0.0,0.0,0.0,0.0,0.0,0.0,0.0,0.0,0.0,0.0,0.0,0.0,0.0,0.0,0.0,0.0,0.0,0.0,0.0,0.0,0.0,0.0,0.0,2.0304,2.0296,2.0246,0.0,2.0094,0.0,0.0,0.0,0.0,0.0,0.0,0.0,0.0,0.0,0.0,0.0,0.0,0.0,0.0,0.0,0.0,0.0,0.0,0.0,0.0,0.0,0.0,0.0,0.0,0.0,0.0,0.0,0.0,0.0,0.0,0.0,0.0,0.0,0.0,0.0,0.0,0.0,0.0,0.0,0.0,0.0,0.0,0.0,0.0,0.0,0.0,0.0,0.0,0.0,0.0,0.0,0.0,0.0,0.0,0.0,0.0,0.0,0.0,0.0,0.0,0.0,0.0,0.0,0.0,0.0,0.0,0.0,0.0,0.0,0.0,0.0,0.0,0.0,0.0,0.0,0.0,0.0,0.0,0.0,0.0,0.0,0.0,0.0,0.0,0.0,0.0,0.0,0.0,0.0,0.0,0.0,0.0,0.0,0.0,0.0,0.0,0.0,0.0,0.0,0.0,0.0,0.0,0.0,0.0,0.0,0.0,0.0,0.0,0.0,0.0,2.107,2.1074,2.1074,2.0839,0.0,0.0,0.0,0.0,0.0,0.0,0.0,0.0,0.0,0.0,0.0,0.0,0.0,0.0,0.0,0.0,0.0,0.0,0.0,0.0,0.0,0.0,0.0,0.0,0.0,0.0,0.0,0.0,0.0,0.0,0.0,0.0,0.0,0.0,0.0,0.0,0.0,0.0,0.0,0.0,0.0,0.0,0.0,0.0,0.0,0.0,0.0,0.0,0.0,0.0,0.0,0.0,0.0,0.0,0.0,0.0,0.0,0.0,0.0,0.0,0.0,0.0,0.0,0.0,0.0,0.0,0.0,0.0,0.0,0.0,0.0,0.0,0.0,0.0,0.0,0.0,0.0,0.0,0.0,0.0,0.0,0.0,0.0,0.0,0.0,0.0,0.0,0.0,0.0,0.0,0.0,0.0,0.0,0.0,0.0,0.0,0.0,0.0,0.0,0.0,0.0,0.0,0.0,0.0,0.0,0.0,0.0,0.0,0.0,0.0,2.0979,2.1254,2.1251,2.1475,2.1097,2.0018,0.0,0.0,0.0,0.0,0.0,0.0,0.0,0.0,0.0,0.0,0.0,0.0,0.0,0.0,0.0,0.0,0.0,0.0,0.0,0.0,0.0,0.0,0.0,0.0,0.0,0.0,0.0,0.0,0.0,0.0,0.0,0.0,0.0,0.0,0.0,0.0,0.0,0.0,0.0,0.0,0.0,0.0,0.0,0.0,0.0,0.0,0.0,0.0,0.0,0.0,0.0,0.0,0.0,0.0,0.0,0.0,0.0,0.0,0.0,0.0,0.0,0.0,0.0,0.0,0.0,0.0,0.0,0.0,0.0,0.0,0.0,0.0,0.0,0.0,0.0,0.0,0.0,0.0,0.0,0.0,0.0,0.0,0.0,0.0,0.0,0.0,0.0,0.0,0.0,0.0,0.0,0.0,0.0,0.0,0.0,0.0,0.0,0.0,0.0,0.0,0.0,0.0,0.0,0.0,0.0,0.0,0.0,0.0,2.0491,2.0477,2.045,2.0437,2.1169,2.0829,0.0,0.0,0.0,0.0,0.0,0.0,0.0,0.0,0.0,0.0,0.0,0.0,0.0,0.0,0.0,0.0,0.0,0.0,0.0,0.0,0.0,0.0,0.0,0.0,0.0,0.0,0.0,0.0,0.0,0.0,0.0,0.0,0.0,0.0,0.0,0.0,0.0,0.0,0.0,0.0,0.0,0.0,0.0,0.0,0.0,0.0,0.0,0.0,0.0,0.0,0.0,0.0,0.0,0.0,0.0,0.0,0.0,0.0,0.0,0.0,0.0,0.0,0.0,0.0,0.0,0.0,0.0,0.0,0.0,0.0,0.0,0.0,0.0,0.0,0.0,0.0,0.0,0.0,0.0,0.0,0.0,0.0,0.0,0.0,0.0,0.0,0.0,0.0,0.0,0.0,0.0,0.0,0.0,0.0,0.0,0.0,0.0,0.0,0.0,0.0,0.0,0.0,0.0,0.0,0.0,0.0,0.0,0.0,0.0,1.9718,2.0629,2.1422,2.1929,2.1733,2.0807,0.0,0.0,0.0,0.0,0.0,0.0,0.0,0.0,0.0,0.0,0.0,0.0,0.0,0.0,0.0,0.0,0.0,0.0,0.0,0.0,0.0,0.0,0.0,0.0,0.0,0.0,0.0,0.0,0.0,0.0,0.0,0.0,0.0,0.0,0.0,0.0,0.0,0.0,0.0,0.0,0.0,0.0,0.0,0.0,0.0,0.0,0.0,0.0,0.0,0.0,0.0,0.0,0.0,0.0,0.0,0.0,0.0,0.0,0.0,0.0,0.0,0.0,0.0,0.0,0.0,0.0,0.0,0.0,0.0,0.0,0.0,0.0,0.0,0.0,0.0,0.0,0.0,0.0,0.0,0.0,0.0,0.0,0.0,0.0,0.0,0.0,0.0,0.0,0.0,0.0,0.0,0.0,0.0,0.0,0.0,0.0,0.0,0.0,0.0,0.0,0.0,0.0,0.0,0.0,0.0,0.0,0.0,0.0,0.0,2.0029,0.0,2.2168,2.245,2.2169,2.0935,0.0,0.0,0.0,0.0,0.0,0.0,0.0,0.0,0.0,0.0,0.0,0.0,0.0,0.0,0.0,0.0,0.0,0.0,0.0,0.0,0.0,0.0,0.0,0.0,0.0,0.0,0.0,0.0,0.0,0.0,0.0,0.0,0.0,0.0,0.0,0.0,0.0,0.0,0.0,0.0,0.0,0.0,0.0,0.0,0.0,0.0,0.0,0.0,0.0,0.0,0.0,0.0,0.0,0.0,0.0,0.0,0.0,0.0,0.0,0.0,0.0,0.0,0.0,0.0,0.0,0.0,0.0,0.0,0.0,0.0,0.0,0.0,0.0,0.0,0.0,0.0,0.0,0.0,0.0,0.0,0.0,0.0,0.0,0.0,0.0,0.0,0.0,0.0,0.0,0.0,0.0,0.0,0.0,0.0,0.0,0.0,0.0,0.0,0.0,0.0,0.0,0.0,0.0,0.0,0.0,0.0,0.0,0.0,2.0109,2.1658,2.2488,2.2569,2.1719,2.2408,2.1236,0.0,0.0,0.0,0.0,0.0,0.0,0.0,0.0,0.0,0.0,0.0,0.0,0.0,0.0,0.0,0.0,0.0,0.0,0.0,0.0,0.0,0.0,0.0,0.0,0.0,0.0,0.0,0.0,0.0,0.0,0.0,0.0,0.0,0.0,0.0,0.0,0.0,0.0,0.0,0.0,0.0,0.0,0.0,0.0,0.0,0.0,0.0,0.0,0.0,0.0,0.0,0.0,0.0,0.0,0.0,0.0,0.0,0.0,0.0,0.0,0.0,0.0,0.0,0.0,0.0,0.0,0.0,0.0,0.0,0.0,0.0,0.0,0.0,0.0,0.0,0.0,0.0,0.0,0.0,0.0,0.0,0.0,0.0,0.0,0.0,0.0,0.0,0.0,0.0,0.0,0.0,0.0,0.0,0.0,0.0,0.0,0.0,0.0,0.0,0.0,0.0,0.0,0.0,0.0,0.0,0.0,0.0,0.0,0.0,2.3376,2.3616,2.3874,2.4109,2.3217,2.1692,0.0,0.0,0.0,0.0,0.0,0.0,0.0,0.0,0.0,0.0,0.0,0.0,0.0,0.0,0.0,0.0,0.0,0.0,0.0,0.0,0.0,0.0,0.0,0.0,0.0,0.0,0.0,0.0,0.0,0.0,0.0,0.0,0.0,0.0,0.0,0.0,0.0,0.0,0.0,0.0,0.0,0.0,0.0,0.0,0.0,0.0,0.0,0.0,0.0,0.0,0.0,0.0,0.0,0.0,0.0,0.0,0.0,0.0,0.0,0.0,0.0,0.0,0.0,0.0,0.0,0.0,0.0,0.0,0.0,0.0,0.0,0.0,0.0,0.0,0.0,0.0,0.0,0.0,0.0,0.0,0.0,0.0,0.0,0.0,0.0,0.0,0.0,0.0,0.0,0.0,0.0,0.0,0.0,0.0,0.0,0.0,0.0,0.0,0.0,0.0,0.0,0.0,0.0,0.0,0.0,0.0,0.0,0.0,0.0,2.6413,2.5884,2.5909,2.6696,2.5022,2.3006,2.0737,0.0,0.0,0.0,0.0,0.0,0.0,0.0,0.0,0.0,0.0,0.0,0.0,0.0,0.0,0.0,0.0,0.0,0.0,0.0,0.0,0.0,0.0,0.0,0.0,0.0,0.0,0.0,0.0,0.0,0.0,0.0,0.0,0.0,0.0,0.0,0.0,0.0,0.0,0.0,0.0,0.0,0.0,0.0,0.0,0.0,0.0,0.0,0.0,0.0,0.0,0.0,0.0,0.0,0.0,0.0,0.0,0.0,0.0,0.0,0.0,0.0,0.0,0.0,0.0,0.0,0.0,0.0,0.0,0.0,0.0,0.0,0.0,0.0,0.0,0.0,0.0,0.0,0.0,0.0,0.0,0.0,0.0,0.0,0.0,0.0,0.0,0.0,0.0,0.0,0.0,0.0,0.0,0.0,0.0,0.0,0.0,0.0,0.0,0.0,0.0,0.0,0.0,0.0,0.0,0.0,0.0,0.0,0.0,3.0723,2.9323,2.8818,2.9236,2.7601,2.5102,0.0,0.0,0.0,0.0,0.0,0.0,0.0,0.0,0.0,0.0,0.0,0.0,0.0,0.0,0.0,0.0,0.0,0.0,0.0,0.0,0.0,0.0,0.0,0.0,0.0,0.0,0.0,0.0,0.0,0.0,0.0,0.0,0.0,0.0,0.0,0.0,0.0,0.0,0.0,0.0,0.0,0.0,0.0,0.0,0.0,0.0,0.0,0.0,0.0,0.0,0.0,0.0,0.0,0.0,0.0,0.0,0.0,0.0,0.0,0.0,0.0,0.0,0.0,0.0,0.0,0.0,0.0,0.0,0.0,0.0,0.0,0.0,0.0,0.0,0.0,0.0,0.0,0.0,0.0,0.0,0.0,0.0,0.0,0.0,0.0,0.0,0.0,0.0,0.0,0.0,0.0,0.0,0.0,0.0,0.0,0.0,0.0,0.0,0.0,0.0,0.0,0.0,0.0,0.0,0.0,0.0,0.0,0.0,0.0,3.4017,3.4969,3.4191,3.1703,3.0009,2.778,0.0,0.0,0.0,0.0,0.0,0.0,0.0,0.0,0.0,0.0,0.0,0.0,0.0,0.0,0.0,0.0,0.0,0.0,0.0,0.0,0.0,0.0,0.0,0.0,0.0,0.0,0.0,0.0,0.0,0.0,0.0,0.0,0.0,0.0,0.0,0.0,0.0,0.0,0.0,0.0,0.0,0.0,0.0,0.0,0.0,0.0,0.0,0.0,0.0,0.0,0.0,0.0,0.0,0.0,0.0,0.0,0.0,0.0,0.0,0.0,0.0,0.0,0.0,0.0,0.0,0.0,0.0,0.0,0.0,0.0,0.0,0.0,0.0,0.0,0.0,0.0,0.0,0.0,0.0,0.0,0.0,0.0,0.0,0.0,0.0,0.0,0.0,0.0,0.0,0.0,0.0,0.0,0.0,0.0,0.0,0.0,0.0,0.0,0.0,0.0,0.0,0.0,0.0,0.0,0.0,0.0,0.0,0.0,3.3014,3.6498,3.8917,3.8671,3.559,3.3018,3.0197,0.0,0.0,0.0,0.0,0.0,0.0,0.0,0.0,0.0,0.0,0.0,0.0,0.0,0.0,0.0,0.0,0.0,0.0,0.0,0.0,0.0,0.0,0.0,0.0,0.0,0.0,0.0,0.0,0.0,0.0,0.0,0.0,0.0,0.0,0.0,0.0,0.0,0.0,0.0,0.0,0.0,0.0,0.0,0.0,0.0,0.0,0.0,0.0,0.0,0.0,0.0,0.0,0.0,0.0,0.0,0.0,0.0,0.0,0.0,0.0,0.0,0.0,0.0,0.0,0.0,0.0,0.0,0.0,0.0,0.0,0.0,0.0,0.0,0.0,0.0,0.0,0.0,0.0,0.0,0.0,0.0,0.0,0.0,0.0,0.0,0.0,0.0,0.0,0.0,0.0,0.0,0.0,0.0,0.0,0.0,0.0,0.0,0.0,0.0,0.0,0.0,0.0,0.0,0.0,0.0,0.0,0.0,0.0,3.5578,3.8176,4.1489,4.2202,4.0023,3.6217,3.2422,0.0,0.0,0.0,0.0,0.0,0.0,0.0,0.0,0.0,0.0,0.0,0.0,0.0,0.0,0.0,0.0,0.0,0.0,0.0,0.0,0.0,0.0,0.0,0.0,0.0,0.0,0.0,0.0,0.0,0.0,0.0,0.0,0.0,0.0,0.0,0.0,0.0,0.0,0.0,0.0,0.0,0.0,0.0,0.0,0.0,0.0,0.0,0.0,0.0,0.0,0.0,0.0,0.0,0.0,0.0,0.0,0.0,0.0,0.0,0.0,0.0,0.0,0.0,0.0,0.0,0.0,0.0,0.0,0.0,0.0,0.0,0.0,0.0,0.0,0.0,0.0,0.0,0.0,0.0,0.0,0.0,0.0,0.0,0.0,0.0,0.0,0.0,0.0,0.0,0.0,0.0,0.0,0.0,0.0,0.0,0.0,0.0,0.0,0.0,0.0,0.0,0.0,0.0,0.0,0.0,0.0,0.0,0.0,3.6581,3.9509,4.2483,4.3442,4.2137,3.8527,3.4507,0.0,0.0,0.0,0.0,0.0,0.0,0.0,0.0,0.0,0.0,0.0,0.0,0.0,0.0,0.0,0.0,0.0,0.0,0.0,0.0,0.0,0.0,0.0,0.0,0.0,0.0,0.0,0.0,0.0,0.0,0.0,0.0,0.0,0.0,0.0,0.0,0.0,0.0,0.0,0.0,0.0,0.0,0.0,0.0,0.0,0.0,0.0,0.0,2.1435,0.0,0.0,0.0,0.0,0.0,0.0,0.0,0.0,0.0,0.0,0.0,0.0,0.0,0.0,0.0,0.0,0.0,0.0,0.0,0.0,0.0,0.0,0.0,0.0,0.0,0.0,0.0,0.0,0.0,0.0,0.0,0.0,0.0,0.0,0.0,0.0,0.0,0.0,0.0,0.0,0.0,0.0,0.0,0.0,0.0,0.0,0.0,0.0,0.0,0.0,0.0,0.0,0.0,0.0,0.0,0.0,0.0,0.0,0.0,3.7641,4.035,4.305,4.3891,4.2781,4.0183,3.6522,0.0,0.0,0.0,0.0,0.0,0.0,0.0,0.0,0.0,0.0,0.0,0.0,0.0,0.0,0.0,0.0,0.0,0.0,0.0,0.0,0.0,0.0,0.0,0.0,0.0,0.0,0.0,0.0,0.0,0.0,0.0,0.0,0.0,0.0,0.0,0.0,0.0,0.0,0.0,0.0,0.0,0.0,0.0,0.0,0.0,0.0,0.0,0.0,0.0,0.0,0.0,0.0,0.0,0.0,0.0,0.0,0.0,0.0,0.0,0.0,0.0,0.0,0.0,0.0,0.0,0.0,0.0,0.0,0.0,0.0,0.0,0.0,0.0,0.0,0.0,0.0,0.0,0.0,0.0,0.0,0.0,0.0,0.0,0.0,0.0,0.0,0.0,0.0,0.0,0.0,0.0,0.0,0.0,0.0,0.0,0.0,0.0,0.0,0.0,0.0,0.0,0.0,0.0,0.0,0.0,0.0,0.0,3.5172,3.8731,4.1086,4.3403,4.4054,4.2914,4.1278,3.8077,3.3155,0.0,0.0,0.0,0.0,0.0,0.0,0.0,0.0,0.0,0.0,0.0,0.0,0.0,0.0,0.0,0.0,0.0,0.0,0.0,0.0,0.0,0.0,0.0,0.0,0.0,0.0,0.0,0.0,0.0,0.0,0.0,0.0,0.0,0.0,0.0,0.0,0.0,0.0,2.0159,2.2759,0.0,0.0,0.0,0.0,0.0,0.0,0.0,0.0,2.2773,0.0,0.0,0.0,0.0,0.0,0.0,0.0,0.0,0.0,0.0,0.0,0.0,0.0,0.0,0.0,0.0,0.0,0.0,0.0,0.0,0.0,0.0,0.0,0.0,0.0,0.0,0.0,0.0,0.0,0.0,0.0,0.0,0.0,0.0,0.0,0.0,0.0,0.0,0.0,0.0,0.0,0.0,0.0,0.0,0.0,0.0,0.0,0.0,0.0,0.0,0.0,0.0,0.0,0.0,0.0,0.0,3.2933,3.6576,3.9727,4.2416,4.3856,4.4224,4.3373,4.1449,3.8292,3.3884,0.0,0.0,0.0,0.0,0.0,0.0,0.0,0.0,0.0,0.0,0.0,0.0,0.0,0.0,0.0,0.0,0.0,0.0,0.0,0.0,0.0,0.0,0.0,0.0,0.0,0.0,0.0,0.0,0.0,0.0,0.0,0.0,0.0,0.0,0.0,0.0,0.0,0.0,0.0,2.3699,2.5164,0.0,0.0,0.0,0.0,0.0,0.0,0.0,0.0,2.3959,0.0,0.0,0.0,0.0,0.0,0.0,0.0,0.0,0.0,0.0,0.0,0.0,0.0,0.0,0.0,0.0,0.0,0.0,0.0,0.0,0.0,0.0,0.0,0.0,0.0,0.0,0.0,0.0,0.0,0.0,0.0,0.0,0.0,0.0,0.0,0.0,0.0,0.0,0.0,0.0,0.0,0.0,0.0,0.0,0.0,0.0,0.0,0.0,0.0,0.0,0.0,0.0,0.0,0.0,0.0,3.3334,3.7376,4.0635,4.3079,4.4122,4.4503,4.4083,4.1557,3.8375,0.0,0.0,0.0,0.0,0.0,0.0,0.0,0.0,0.0,0.0,0.0,0.0,0.0,0.0,0.0,0.0,0.0,0.0,0.0,0.0,0.0,0.0,0.0,0.0,0.0,0.0,0.0,0.0,0.0,0.0,0.0,0.0,0.0,0.0,0.0,0.0,0.0,0.0,0.0,0.0,2.5413,2.6571,2.7539,0.0,0.0,0.0,0.0,0.0,0.0,2.6306,2.5585,0.0,0.0,0.0,0.0,0.0,0.0,0.0,0.0,0.0,0.0,0.0,0.0,0.0,0.0,0.0,0.0,0.0,0.0,0.0,0.0,0.0,0.0,0.0,0.0,0.0,0.0,0.0,0.0,0.0,0.0,0.0,0.0,0.0,0.0,0.0,0.0,0.0,0.0,0.0,0.0,0.0,0.0,0.0,0.0,0.0,0.0,0.0,0.0,0.0,0.0,0.0,0.0,0.0,0.0,0.0,3.3646,3.8126,4.1501,4.3626,4.4213,4.4544,4.4635,4.1258,3.7955,0.0,0.0,0.0,0.0,0.0,0.0,0.0,0.0,0.0,0.0,0.0,0.0,0.0,0.0,0.0,0.0,0.0,0.0,0.0,0.0,0.0,0.0,0.0,0.0,0.0,0.0,0.0,0.0,0.0,0.0,0.0,0.0,0.0,0.0,0.0,0.0,0.0,0.0,0.0,0.0,0.0,2.8311,3.0232,2.9101,0.0,0.0,0.0,0.0,2.8806,2.8621,0.0,0.0,0.0,0.0,0.0,0.0,0.0,0.0,0.0,0.0,0.0,0.0,0.0,0.0,0.0,0.0,0.0,0.0,0.0,0.0,0.0,0.0,0.0,0.0,0.0,0.0,0.0,0.0,0.0,0.0,0.0,0.0,0.0,0.0,0.0,0.0,0.0,0.0,0.0,0.0,0.0,0.0,0.0,0.0,0.0,0.0,0.0,0.0,0.0,0.0,0.0,0.0,0.0,0.0,0.0,0.0,3.5198,3.9202,4.2336,4.4397,4.3956,4.3975,4.4635,4.0194,3.656,0.0,0.0,0.0,0.0,0.0,0.0,0.0,0.0,0.0,0.0,0.0,0.0,0.0,0.0,0.0,0.0,0.0,0.0,0.0,0.0,0.0,0.0,0.0,0.0,0.0,0.0,0.0,0.0,0.0,0.0,0.0,0.0,0.0,0.0,0.0,0.0,0.0,0.0,0.0,0.0,0.0,3.0092,2.9708,3.0707,3.1049,0.0,0.0,3.1411,3.0482,3.2174,0.0,0.0,0.0,0.0,0.0,0.0,0.0,0.0,0.0,0.0,0.0,0.0,0.0,0.0,0.0,0.0,0.0,0.0,0.0,0.0,0.0,0.0,0.0,0.0,0.0,0.0,0.0,0.0,0.0,0.0,0.0,0.0,0.0,0.0,0.0,0.0,0.0,0.0,0.0,0.0,0.0,0.0,0.0,0.0,0.0,0.0,0.0,0.0,0.0,0.0,0.0,0.0,0.0,0.0,0.0,3.2229,3.6174,4.0861,4.4173,4.5993,4.5718,4.5498,4.5369,4.1148,3.7257,0.0,0.0,0.0,0.0,0.0,0.0,0.0,0.0,0.0,0.0,0.0,0.0,0.0,0.0,0.0,0.0,0.0,0.0,0.0,0.0,0.0,0.0,0.0,0.0,0.0,0.0,0.0,0.0,0.0,0.0,0.0,0.0,0.0,0.0,0.0,0.0,0.0,0.0,0.0,0.0,0.0,0.0,3.2953,3.3411,0.0,0.0,0.0,3.3913,3.2956,0.0,0.0,0.0,0.0,0.0,0.0,0.0,0.0,0.0,0.0,0.0,0.0,0.0,0.0,0.0,0.0,0.0,0.0,0.0,0.0,0.0,0.0,0.0,0.0,0.0,0.0,0.0,0.0,0.0,0.0,0.0,0.0,0.0,0.0,0.0,0.0,0.0,0.0,0.0,0.0,0.0,0.0,0.0,0.0,0.0,0.0,0.0,0.0,0.0,0.0,0.0,0.0,0.0,0.0,0.0,0.0,0.0,3.6987,4.2097,4.548,4.704,4.6911,4.6507,4.5865,4.2011,0.0,0.0,0.0,0.0,0.0,0.0,0.0,0.0,0.0,0.0,0.0,0.0,0.0,0.0,0.0,0.0,0.0,0.0,0.0,0.0,0.0,0.0,0.0,0.0,0.0,0.0,0.0,1.3085,0.0,0.0,0.0,0.0,0.0,0.0,0.0,0.0,0.0,0.0,0.0,0.0,0.0,0.0,3.306,3.59,3.6067,3.6156,0.0,0.0,3.6426,3.5524,3.591,3.5268,0.0,0.0,0.0,0.0,0.0,0.0,0.0,0.0,0.0,0.0,0.0,0.0,0.0,0.0,0.0,0.0,0.0,0.0,0.0,0.0,0.0,0.0,0.0,0.0,0.0,0.0,0.0,0.0,0.0,0.0,0.0,0.0,0.0,0.0,0.0,0.0,0.0,0.0,0.0,0.0,0.0,0.0,0.0,0.0,0.0,0.0,0.0,0.0,0.0,0.0,0.0,0.0,0.0,0.0,3.3794,3.7798,4.2359,4.5498,4.6984,4.6379,4.5957,4.5828,4.1992,3.7991,0.0,0.0,0.0,0.0,0.0,0.0,0.0,0.0,0.0,0.0,0.0,0.0,0.0,0.0,0.0,0.0,0.0,0.0,0.0,0.0,0.0,0.0,0.0,0.0,0.0,0.0,0.0,0.0,0.0,0.0,0.0,0.0,0.0,0.0,0.0,0.0,0.0,0.0,0.0,0.0,0.0,3.5845,3.6874,3.8307,3.926,0.0,3.9306,3.8996,3.8001,3.9865,3.9278,3.2861,0.0,0.0,0.0,0.0,0.0,0.0,0.0,0.0,0.0,0.0,0.0,0.0,0.0,0.0,0.0,0.0,0.0,0.0,0.0,0.0,0.0,0.0,0.0,0.0,0.0,0.0,0.0,0.0,0.0,0.0,0.0,0.0,0.0,0.0,0.0,0.0,0.0,0.0,0.0,0.0,0.0,0.0,0.0,0.0,0.0,0.0,0.0,0.0,0.0,0.0,0.0,0.0,0.0,3.4125,3.8599,4.3133,4.6214,4.7774,4.7535,4.6911,4.592,4.2965,3.9239,0.0,0.0,0.0,0.0,0.0,0.0,0.0,0.0,0.0,0.0,0.0,0.0,0.0,0.0,0.0,0.0,0.0,0.0,0.0,0.0,0.0,0.0,0.0,0.0,0.0,0.0,0.0,0.0,2.0327,2.1316,2.2014,0.0,0.0,0.0,0.0,0.0,0.0,0.0,0.0,0.0,0.0,3.7471,3.9837,4.0261,0.0,0.0,3.9818,3.918,3.8291,3.8948,3.8228,3.4129,3.2897,0.0,0.0,0.0,0.0,0.0,0.0,0.0,0.0,0.0,0.0,0.0,0.0,0.0,0.0,0.0,0.0,0.0,0.0,0.0,0.0,0.0,0.0,0.0,0.0,0.0,0.0,0.0,0.0,0.0,0.0,0.0,0.0,0.0,0.0,0.0,0.0,0.0,0.0,0.0,0.0,0.0,0.0,0.0,0.0,0.0,0.0,0.0,0.0,0.0,0.0,0.0,0.0,3.4245,3.9027,4.356,4.6691,4.8288,4.8324,4.7535,4.592,4.4011,4.0726,0.0,0.0,0.0,0.0,0.0,0.0,0.0,0.0,0.0,0.0,0.0,0.0,0.0,0.0,0.0,0.0,0.0,0.0,0.0,0.0,0.0,0.0,0.0,0.0,0.0,0.0,0.0,0.0,2.2327,2.2907,2.2695,0.0,0.0,0.0,0.0,0.0,0.0,0.0,0.0,0.0,0.0,3.937,4.1687,4.1759,4.1498,4.1484,4.0712,3.9863,3.9026,3.8884,3.7868,3.4972,0.0,0.0,0.0,0.0,0.0,0.0,0.0,0.0,0.0,0.0,0.0,0.0,0.0,0.0,0.0,0.0,0.0,0.0,0.0,0.0,0.0,0.0,0.0,0.0,0.0,0.0,0.0,1.795,0.0,0.0,1.5741,0.0,0.0,0.0,0.0,0.0,0.0,0.0,0.0,0.0,0.0,0.0,0.0,0.0,0.0,0.0,0.0,0.0,0.0,0.0,0.0,0.0,0.0,3.4148,3.8952,4.3579,4.6691,4.8251,4.8324,4.7553,4.5975,4.5076,4.2359,3.7514,0.0,0.0,0.0,0.0,0.0,0.0,0.0,0.0,0.0,0.0,0.0,0.0,0.0,0.0,0.0,0.0,0.0,0.0,0.0,0.0,0.0,0.0,0.0,0.0,0.0,0.0,2.0629,2.2017,2.2671,0.0,0.0,0.0,0.0,0.0,0.0,0.0,0.0,0.0,0.0,3.9245,4.1803,4.1899,4.2595,4.3065,4.3025,4.2322,4.1538,4.0641,4.0501,3.9154,0.0,0.0,0.0,0.0,0.0,0.0,0.0,0.0,0.0,0.0,0.0,0.0,0.0,0.0,0.0,0.0,0.0,0.0,0.0,0.0,0.0,0.0,0.0,0.0,0.0,0.0,0.0,2.1873,2.1328,0.0,0.0,0.0,0.0,0.0,0.0,0.0,0.0,0.0,0.0,0.0,2.9336,2.9862,0.0,0.0,0.0,0.0,0.0,0.0,0.0,0.0,0.0,0.0,0.0,0.0,3.5414,3.9727,4.4336,4.7223,4.8269,4.8324,4.7792,4.6728,4.5406,4.2176,3.6853,0.0,0.0,0.0,0.0,0.0,0.0,0.0,0.0,0.0,0.0,0.0,0.0,0.0,0.0,0.0,0.0,0.0,0.0,0.0,0.0,0.0,0.0,0.0,0.0,0.0,2.2268,0.0,0.0,0.0,0.0,0.0,0.0,0.0,0.0,0.0,0.0,0.0,3.5039,3.8531,4.0217,4.1484,4.2547,4.2929,4.3118,0.0,0.0,0.0,0.0,0.0,0.0,0.0,0.0,0.0,0.0,0.0,0.0,0.0,0.0,3.3449,3.123,3.0391,3.0,2.9961,0.0,0.0,0.0,0.0,0.0,0.0,0.0,0.0,0.0,0.0,0.0,0.0,0.0,0.0,2.5548,0.0,2.4482,0.0,0.0,0.0,0.0,0.0,0.0,0.0,0.0,3.0176,3.1635,3.286,3.3385,3.3445,0.0,3.2493,3.006,0.0,0.0,0.0,0.0,0.0,0.0,0.0,0.0,3.6481,4.0486,4.4871,4.7498,4.8269,4.8324,4.7921,4.7113,4.5278,4.2286,3.812,3.5349,3.203,0.0,0.0,0.0,0.0,0.0,0.0,0.0,0.0,0.0,0.0,0.0,0.0,0.0,0.0,0.0,0.0,0.0,0.0,0.0,0.0,0.0,0.0,0.0,2.4392,0.0,0.0,0.0,0.0,0.0,0.0,0.0,0.0,0.0,3.1943,3.4742,3.7865,4.1081,4.2033,4.2676,4.3429,0.0,0.0,0.0,0.0,0.0,0.0,0.0,4.0275,3.8952,3.9238,3.9457,3.8917,3.9217,3.9761,4.0429,0.0,0.0,3.5819,3.4785,3.4434,3.4355,3.4355,3.4355,3.4353,3.5056,3.5995,0.0,0.0,0.0,0.0,0.0,0.0,0.0,0.0,2.9607,2.9213,0.0,2.7561,0.0,0.0,0.0,0.0,0.0,2.8837,0.0,0.0,3.5139,3.6145,3.5356,3.6377,3.6325,3.5256,3.5532,3.5199,3.4121,2.9482,0.0,0.0,0.0,0.0,0.0,0.0,3.7301,4.1319,4.5203,4.7535,4.8288,4.8324,4.7921,4.7075,4.4837,4.2855,4.1167,3.8154,3.5357,3.2861,2.8288,0.0,0.0,0.0,0.0,0.0,0.0,0.0,0.0,0.0,0.0,0.0,0.0,0.0,0.0,0.0,0.0,0.0,0.0,0.0,0.0,2.5272,0.0,0.0,0.0,0.0,0.0,0.0,0.0,0.0,0.0,0.0,3.4875,3.8117,4.1247,4.2975,0.0,0.0,0.0,0.0,4.4066,4.3316,4.322,4.2948,4.2133,4.2703,4.3003,4.2223,0.0,0.0,4.2154,4.2157,4.2703,4.4381,4.4045,4.2557,3.9582,3.8887,3.8691,3.8711,3.8691,3.875,3.8789,3.9297,3.9922,3.5029,0.0,0.0,0.0,0.0,3.19,3.3167,3.5047,3.4815,3.4381,3.3734,3.2755,0.0,0.0,0.0,0.0,0.0,0.0,3.4591,3.6038,3.7848,3.9101,4.0026,4.048,4.054,4.0237,4.0156,4.0211,4.0263,3.8222,3.4382,2.9012,0.0,0.0,0.0,0.0,4.0325,4.3729,4.6544,4.8067,4.8306,4.8324,4.7921,4.715,4.5883,4.4452,4.2855,4.1397,3.8944,3.543,3.3332,0.0,0.0,0.0,0.0,0.0,0.0,0.0,0.0,0.0,0.0,0.0,0.0,0.0,0.0,0.0,0.0,0.0,0.0,0.0,2.7045,2.7969,2.7922,0.0,0.0,0.0,0.0,0.0,0.0,0.0,0.0,0.0,4.0389,4.0617,4.1493,0.0,0.0,4.3734,4.3489,4.4451,4.5143,4.4913,4.5413,0.0,4.5483,4.5192,4.4935,4.4731,4.4684,4.4824,4.5449,4.553,4.588,4.7036,4.7066,4.6602,4.5796,4.3707,4.2285,4.2168,4.2187,4.2226,4.2266,4.2461,4.2793,3.9333,3.642,3.5145,3.5166,3.6007,3.6015,3.7097,3.879,3.8477,3.807,3.7509,3.7079,3.5627,3.3387,3.2774,0.0,0.0,0.0,3.7704,3.9428,4.0134,4.1106,4.209,4.2224,4.2303,4.2269,4.2176,4.242,4.2998,4.2334,3.9697,3.5308,0.0,0.0,3.6877,4.0165,4.3272,4.612,4.8234,4.9114,4.8822,4.8471,4.7939,4.7112,4.6654,4.5645,4.4048,4.3224,4.1363,3.8332,3.6468,3.3332,0.0,0.0,0.0,0.0,0.0,0.0,0.0,0.0,0.0,0.0,0.0,1.8846,1.8535,0.0,0.0,0.0,2.5428,2.8352,3.1371,3.1025,0.0,0.0,0.0,0.0,0.0,0.0,0.0,3.7185,3.9702,4.214,4.4283,4.3753,4.3814,4.5584,4.5389,4.5101,4.5086,0.0,4.6586,4.6586,4.7048,4.7375,4.7372,4.7257,4.7178,4.7229,4.7212,4.7311,4.7831,4.7911,4.8221,4.8971,4.899,4.8779,4.8836,4.6984,4.5488,4.5523,4.557,4.5623,4.5683,4.5683,4.5859,4.254,4.2272,4.0001,3.9576,4.0331,4.0389,4.0839,4.1604,4.0863,4.0487,4.0358,4.0403,3.953,3.7923,3.7346,0.0,3.9441,3.9493,4.0461,4.2178,4.2181,4.2295,4.2455,4.2489,4.2472,4.2489,4.2472,4.2808,4.3348,4.3265,4.3131,4.294,4.1462,4.0946,4.1589,4.3828,4.614,4.8458,4.9997,5.0383,4.9597,4.8822,4.8012,4.7223,4.7021,4.625,4.4874,4.3901,4.2732,4.119,3.8255,3.5478,3.2925,0.0,0.0,0.0,0.0,0.0,0.0,0.0,0.0,0.0,0.0,0.0,0.0,0.0,0.0,0.0,2.9929,0.0,3.5488,3.4314,0.0,0.0,0.0,3.4268,3.5912,3.8338,4.0494,4.201,0.0,0.0,4.6889,4.7085,4.7394,4.8202,4.8182,4.8105,4.8105,4.8086,4.8202,4.8163,4.8259,4.8317,4.8413,4.8913,4.9298,4.9201,4.9413,4.9279,4.9279,4.9298,4.9702,5.0433,5.0029,4.951,4.951,4.8893,4.8519,4.8557,4.8446,4.8446,4.8418,4.8398,4.8398,4.4553,4.4033,4.343,4.2652,4.1784,4.1801,4.1955,4.2108,4.192,4.1835,4.175,4.1221,4.0794,4.0404,4.1011,4.1628,4.2233,4.2822,4.3328,4.3732,4.3902,4.4024,4.4028,4.4028,4.4045,4.4028,4.4028,4.436,4.4957,4.5374,4.5784,4.6284,4.6976,4.6434,4.4892,4.6544,4.8343,5.0199,5.0582,5.038,4.9612,4.941,4.8875,4.8031,4.625,4.5388,4.5553,4.3648,4.2406,4.1988,4.0125,3.7649,3.4582,3.0351,0.0,0.0,0.0,0.0,0.0,0.0,0.0,0.0,0.0,2.2067,2.2466,0.0,2.6717,0.0,3.1872,3.5372,3.7219,3.7623,0.0,0.0,3.8513,3.9201,4.0241,4.2568,4.4283,4.4669,4.6196,4.7604,4.8682,4.8798,4.9106,4.9913,4.8933,4.8105,4.8105,4.8702,4.9086,4.9144,4.9606,5.0067,5.0029,5.0221,5.0164,4.951,4.9413,4.9413,4.9413,4.9413,4.9683,5.0471,5.0548,5.0394,5.0356,5.0221,5.0125,5.0081,4.9288,4.8497,4.8546,4.8552,4.8613,4.594,4.5568,4.5551,4.5077,4.4231,4.3234,4.2997,4.3301,4.3301,4.3301,4.3284,4.2878,4.2709,4.2746,4.3339,4.3664,4.3871,4.423,4.4418,4.4453,4.4533,4.457,4.457,4.457,4.4384,4.4079,4.4418,4.4759,4.5142,4.5965,4.6926,4.8056,4.9445,4.9627,4.8691,4.9499,5.0582,5.1848,5.1513,5.111,5.0655,4.9958,4.9003,4.7792,4.5792,4.4397,4.3773,4.2137,4.1083,4.0708,3.9488,3.7672,3.5092,3.1581,2.8147,0.0,0.0,0.0,0.0,0.0,0.0,0.0,0.0,0.0,0.0,0.0,3.0917,3.2814,3.6219,3.8854,4.0142,4.07,4.1123,4.1489,4.2294,4.3156,4.3968,4.5986,4.7295,4.7295,4.8451,4.9433,4.9913,4.999,5.0144,5.0625,4.9875,4.926,4.9279,4.9683,4.9971,4.999,5.0375,5.0683,5.0683,5.0683,5.0529,5.0087,4.9971,4.9971,4.9971,4.9971,5.0144,5.0567,5.0683,5.0683,5.0683,5.0683,5.0683,5.0587,5.0048,4.9567,4.9548,4.9572,4.9595,4.687,4.6786,4.6786,4.6735,4.6498,4.4553,4.4164,4.4857,4.4857,4.4807,4.4705,4.4722,4.4671,4.457,4.4468,4.4418,4.4434,4.4333,4.4299,4.4299,4.4384,4.4434,4.4451,4.4536,4.4215,4.3623,4.4248,4.4621,4.4761,4.5784,4.7148,4.8763,4.9981,5.1046,5.1958,5.1985,5.2407,5.3188,5.2425,5.1967,5.183,5.0251,4.8636,4.6985,4.5186,4.3277,4.117,4.0124,3.9329,3.8702,3.7833,3.6736,3.5332,3.2256,2.9632,0.0,2.5578,0.0,0.0,0.0,0.0,0.0,0.0,0.0,0.0,3.2741,3.5456,3.945,4.1316,4.2643,4.3508,4.3682,4.4066,4.4874,4.5643,4.6432,4.7317,4.8702,4.9567,4.9567,5.024,5.0683,5.0664,5.0683,5.0683,5.0683,5.0606,5.0529,5.0644,5.0625,5.0625,5.0683,5.0683,5.0683,5.0683,5.0683,5.0683,5.0664,5.0625,5.0683,5.0644,5.0644,5.0683,5.0683,5.0683,5.0683,5.0683,5.0683,5.0683,5.0683,5.0606,5.0606,5.0721,5.0702,5.0914,4.7344,4.6786,4.6786,4.6464,4.5872,4.5449,4.5703,4.638,4.638,4.6041,4.55,4.5483,4.5162,4.4536,4.3927,4.3623,4.3606,4.2997,4.2709,4.2743,4.3352,4.3639,4.3673,4.4282,4.4502,4.4367,4.4519,4.4891,4.5483,4.563,4.672,4.8732,4.9078,5.0136,5.1917,0.0,0.0,0.0,5.2417,5.172,5.1004,4.9407,4.7774,4.614,4.3314,0.0,4.1075,3.9061,3.8187,3.8645,3.7321,0.0,0.0,0.0,0.0,0.0,0.0,0.0,0.0,0.0,0.0,0.0,3.4914,3.4977,3.5129,3.7278,3.9697,4.2165,4.3893,4.522,4.6105,4.6778,4.749,4.8317,4.8567,4.9029,4.9875,5.026,5.0433,5.0452,5.0587,5.0683,5.0683,5.0683,5.0683,5.0683,5.0683,5.0683,5.0683,5.0683,5.0683,5.0683,5.0683,5.0683,5.0683,5.0683,5.0683,5.0683,5.0683,5.0683,5.0683,5.0683,5.0683,5.0683,5.0683,5.0683,5.0683,5.0683,5.0683,5.0683,5.0683,5.0702,5.0721,5.0721,5.0779,4.8223,0.0,4.7868,4.7665,0.0,4.7327,4.7547,4.7851,4.7107,4.6583,4.6244,4.6244,4.6024,4.5618,4.4891,4.4553,4.4502,4.3775,4.3623,4.3995,4.4384,4.4756,4.5094,4.5483,4.5483,4.5162,4.55,4.5872,4.6269,4.6467,4.756,4.938,4.9342,5.0089,5.1517,5.1914,5.2445,5.3206,5.2803,5.2399,5.1958,5.038,4.8746,4.7095,4.3975,0.0,0.0,0.0,0.0,0.0,0.0,0.0,0.0,3.6277,0.0,3.5174,3.5515,3.5947,3.639,3.7581,3.8887,4.0198,4.1083,4.0854,3.9154,4.1537,4.3878,4.5704,4.6701,4.7509,4.8394,4.8854,4.9275,4.9702,4.9913,5.0221,5.0606,5.0683,5.0683,5.0683,5.0683,5.0683,5.0683,5.0683,5.0683,5.0683,5.0683,5.0683,5.0683,5.0683,5.0683,5.0683,5.0683,5.0683,5.0683,5.0683,5.0683,5.0683,5.0683,5.0683,5.0683,5.0683,5.0683,5.0683,5.0683,5.0683,5.0683,5.0683,5.0683,5.0683,5.0683,5.0683,5.0683,5.0683,5.0721,4.939,4.939,4.939,4.9323,4.9187,4.9187,4.912,4.8917,0.0,0.0,0.0,4.6989,4.6921,4.6735,4.6024,4.5703,4.5652,4.4925,4.4908,4.55,4.5652,4.6024,4.6599,4.6718,4.6481,4.5957,4.6515,4.6853,4.6972,4.7347,4.8394,4.9825,4.9693,5.0031,5.0876,5.17,5.2382,5.298,5.2956,5.3004,5.2949,5.1426,4.9793,4.8141,4.5241,4.2965,4.1368,3.9922,3.9137,3.9111,3.9122,3.8902,3.8395,3.8982,3.9142,3.8713,3.9406,4.0436,4.1709,4.1957,4.3026,4.5366,4.6275,4.5618,4.2994,4.5105,4.7143,4.8566,4.8833,4.9196,4.9923,4.9977,5.0011,5.0102,5.0413,5.0606,5.0683,5.0683,5.0683,5.0683,5.0683,5.0683,5.0683,5.0683,5.0683,5.0683,5.0683,5.0683,5.0683,5.0683,5.0683,5.0683,5.0683,5.0683,5.0683,5.0683,5.0683,5.0683,5.0683,5.0683,5.0683,5.0683,5.0683,5.0683,5.0683,5.0683,5.0683,5.0683,5.0683,5.0683,5.0683,5.0683,5.0683,5.0683,5.0683,5.0896,5.0913,5.0896,5.0524,4.9949,4.9932,4.9576,4.9001,4.8781,4.8342,4.7767,4.775,4.7394,4.6752,4.6024,4.5703,4.5652,4.4925,4.4637,4.4773,4.5415,4.5771,4.5889,4.6498,4.6735,4.665,4.6752,4.7124,4.7631,4.7208,4.7933,4.962,4.8785,4.8843,5.0154,5.1448,5.2134,5.2235,5.2199,5.216,5.2142,5.0582,4.8967,4.7315,4.5571,4.3791,4.2194,4.1285,4.0763,4.0781,4.0773,4.103,4.1574,4.1735,4.2066,4.2669,4.3424,4.3975,4.4213,4.4869,4.5716,4.6746,4.7573,4.7527,4.6459,4.7027,4.7721,4.8287,4.8938,4.9457,4.957,4.9572,4.9702,5.0007,5.0138,5.0317,5.0644,5.0683,5.0683,5.0683,5.0683,5.0683,5.0683,5.0683,5.0683,5.0683,5.0683,5.0683,5.0683,5.0683,5.0683,5.0683,5.0683,5.0683,5.0683,5.0683,5.0683,5.0683,5.0683,5.0683,5.0683,5.0683,5.0683,5.0683,5.0683,5.0683,5.0683,5.0683,5.0683,5.0683,5.0683,5.0683,5.0683,5.0683,5.0683,5.1234,5.1234,5.1234,5.1014,5.0676,5.027,4.9898,4.956,4.9171,4.8815,4.8528,4.8494,4.8325,4.7936,4.7225,4.6904,4.687,4.6126,4.5991,4.6397,4.6735,4.7107,4.7496,4.7851,4.8003,4.7986,4.8003,4.8173,4.8443,4.8139,4.8489,4.9351,4.8812,4.8976,4.9981,5.0664,5.1325,5.2094,5.2448,5.2656,5.2637,5.1499,5.0527,4.9756,4.8196,4.7021,4.6269,4.5436,4.4826,4.4377,4.4364,4.4327,4.4271,4.4655,4.5076,4.5461,4.6232,4.6673,4.6654,4.7426,4.8069,4.8464,4.92,4.9487,4.9078,4.903,4.9057,4.9214,4.9246,4.9184,4.9171,4.9179,4.9229,4.9419,4.9824,5.0161,5.0385,5.0565,5.0683,5.0683,5.0683,5.0683,5.0683,5.0683,5.0683,5.0683,5.0683,5.0683,5.0683,5.0683,5.0683,5.0683,5.0683,5.0683,5.0702,5.0683,5.0683,5.0683,5.0683,5.0683,5.0683,5.0683,5.0683,5.0683,5.0683,5.0683,5.0683,5.0683,5.0683,5.0683,5.0683,5.0683,5.0683,5.0683,5.0683,5.1742,5.1742,5.1725,5.1623,5.1403,5.0659,5.0355,5.027,4.956,4.9255,4.9238,4.9086,4.9018,4.8951,4.8409,4.8156,4.8088,4.7564,4.7597,4.8122,4.8156,4.8477,4.8968,4.9018,4.9018,4.9018,4.9018,4.9018,4.9018,4.9018,4.9018,4.9018,4.9018,4.9256,4.978,4.9919,5.0591,5.1856,5.2599,5.3042,5.3206,5.2582,5.2179,5.1903,5.0765,5.0031,4.9829,4.9231,4.8568,4.7996,4.7956,4.7569,4.6837,4.7296,4.759,4.7498,4.8159,4.8655,4.8897,4.9505,4.9924,5.0167,5.0721,5.1147,5.1261,5.0841,5.0359,4.9969,4.9189,4.8832,4.9012,4.8859,4.8855,4.915,4.9508,4.9862,5.0083,5.038,5.07,5.0875,5.0818,5.0741,5.0875,5.0798,5.0683,5.0683,5.0683,5.0683,5.0683,5.0683,5.0741,5.0933,5.0971,5.101,5.0991,5.1221,5.1221,5.1048,5.101,5.0933,5.0818,5.0683,5.0683,5.0683,5.0683,5.0683,5.0683,5.0683,5.0683,5.0683,5.0683,5.0683,5.0683,5.0683,5.0683,5.3281,5.3298,5.323,5.2858,5.2147,5.142,5.1116,5.1014,5.0304,4.9982,4.9898,4.9289,4.9018,4.9001,4.8917,4.8883,4.8883,4.8832,4.8815,4.8866,4.89,4.8934,4.9001,4.9018,4.9018,4.9018,4.9018,4.9018,4.9018,4.9018,4.9018,4.9018,4.9018,4.9063,4.9152,4.9664,5.0407,5.1189,5.1856,5.2554,5.3146,5.3133,5.2747,5.2013,5.1867,5.1426,5.0765,5.06,5.053,5.0478,5.038,5.0089,4.932,4.9318,4.9022,4.8306,4.9003,4.9779,5.0468,5.0648,5.1008,5.1687,5.1807,5.2179,5.2784,5.222,5.1176,4.9965,4.8879,4.8788,4.9395,4.8862,4.8882,4.9703,4.9439,4.9276,4.993,5.0135,5.0558,5.1702,5.1164,5.0952,5.151,5.1144,5.0721,5.0818,5.0837,5.0894,5.0971,5.0971,5.1164,5.1625,5.1798,5.1818,5.1895,5.2491,5.2414,5.1933,5.1798,5.1529,5.1106,5.0798,5.0683,5.0702,5.0683,5.0683,5.0683,5.0683,5.0683,5.0683,5.0683,5.0683,5.0683,5.0683,5.0683,5.3518,5.3518,5.3518,5.3315,5.2926,5.2198,5.186,5.1775,5.1082,5.0507,5.0084,4.9763,4.9407,4.9018,4.9018,4.9018,4.9018,4.9018,4.9018,4.9018,4.9018,4.9018,4.9018,4.9018,4.9018,4.9018,4.9018,4.9018,4.9018,4.9018,4.9018,4.9018,4.9018,4.9018,4.9001,4.9256,4.978,5.0445,5.1138,5.1856,5.2509,5.298,5.3059,5.2766,5.2711,5.2582,5.227,5.2215,5.199,5.1568,5.149,5.1161,5.035,5.0303,5.016,4.9829,5.0105,5.0438,5.0793,5.1235,5.165,5.2016,5.2449,5.2858,5.3133,5.2454,5.1499,5.0453,4.9536,4.9224,4.9536,4.9273,4.9276,4.9694,4.9684,4.9658,4.9701,5.0392,5.1109,5.1757,5.1625,5.151,5.1702,5.1202,5.0952,5.126,5.1414,5.1548,5.201,5.2183,5.2299,5.2626,5.3068,5.3164,5.2856,5.2914,5.301,5.2818,5.2664,5.2376,5.1664,5.1433,5.1279,5.0818,5.0721,5.0702,5.0683,5.0683,5.0683,5.0683,5.0683,5.0683,5.0683,5.0683,5.0683,5.3518,5.3518,5.3518,5.3518,5.345,5.2892,5.2638,5.252,5.1843,5.12,5.071,5.0507,4.9999,4.934,4.9103,4.9018,4.9018,4.9018,4.9018,4.9018,4.9018,4.9018,4.9018,4.9018,4.9018,4.9018,4.9018,4.9018,4.9018,4.9018,4.9018,4.9018,4.9018,4.9018,4.9018,4.9018,4.9299,5.0033,5.0716,5.1444,5.2112,5.2831,5.3206,5.3206,5.3206,5.3206,5.3206,5.3206,5.2944,5.2346,5.2328,5.1956,5.1177,5.1142,5.1132,5.1132,5.1132,5.1224,5.1444,5.1999,5.2348,5.2388,5.2907,5.3206,5.3115,5.2656,5.1885,5.0875,5.0435,5.0215,4.9939,4.9911,5.0002,5.0215,5.0343,5.0168,5.0138,5.0929,5.1631,5.2012,5.1949,5.1798,5.1587,5.1279,5.1298,5.1741,5.2106,5.2433,5.3029,5.3145,5.3222,5.353,5.4107,5.4164,5.3703,5.3876,5.3799,5.3587,5.355,5.3261,5.2395,5.2145,5.1838,5.1279,5.0952,5.0702,5.0683,5.0683,5.0683,5.0683,5.0683,5.0683,5.0683,5.0683,5.0683,5.3518,5.3518,5.3518,5.3518,5.3501,5.345,5.3416,5.3315,5.2587,5.2198,5.2012,5.1437,5.0744,5.0016,4.9424,4.9035,4.9018,4.9018,4.9018,4.9018,4.9018,4.9018,4.9018,4.9018,4.9018,4.9018,4.9018,4.9018,4.9018,4.9018,4.9018,4.9018,4.9018,4.9018,4.9018,4.9018,4.9316,4.9936,5.0716,5.1393,5.2065,5.2787,5.3206,5.3206,5.3206,5.3206,5.3206,5.3206,5.317,5.3109,5.3072,5.2736,5.2053,5.1954,5.194,5.194,5.1958,5.227,5.2894,5.3041,5.3078,5.3133,5.3109,5.3206,5.3206,5.3115,5.2417,5.0967,5.1463,5.1536,5.0875,5.0743,5.0982,5.1499,5.1136,5.0922,5.113,5.1499,5.2105,5.2355,5.2149,5.1702,5.0991,5.1433,5.1818,5.2164,5.2683,5.3241,5.3414,5.3356,5.3683,5.4222,5.4511,5.4511,5.4511,5.4741,5.4914,5.4703,5.4357,5.4166,5.33,5.2569,5.2203,5.1702,5.1241,5.0933,5.076,5.0683,5.0683,5.0683,5.0683,5.0683,5.0683,5.0683,5.0683,5.3518,5.3518,5.3518,5.3518,5.3518,5.3518,5.3518,5.3484,5.3213,5.2773,5.2317,5.2029,5.1505,5.0811,5.0541,4.9898,4.9069,4.9018,4.9018,4.9018,4.9018,4.9018,4.9018,4.9018,4.9018,4.9018,4.9018,4.9018,4.9018,4.9018,4.9018,4.9018,4.9018,4.9018,4.9018,4.9018,4.9107,4.9462,5.0517,5.1241,5.1562,5.2572,5.3206,5.3206,5.3206,5.3206,5.3206,5.3206,5.3206,5.3206,5.3206,5.3072,5.2815,5.2742,5.2784,5.2766,5.2766,5.2913,5.317,5.3206,5.3206,5.3206,5.3206,5.3206,5.3206,5.3188,5.2747,5.1977,5.2289,5.238,5.1775,5.1555,5.1458,5.1302,5.1417,5.1458,5.1419,5.1705,5.2162,5.2444,5.2203,5.1759,5.1664,5.1741,5.2337,5.3376,5.3857,5.4203,5.4664,5.4799,5.4857,5.5145,5.5261,5.5261,5.528,5.5434,5.5549,5.5415,5.5164,5.4799,5.4145,5.3762,5.3415,5.2183,5.1606,5.1298,5.1164,5.0721,5.0721,5.0683,5.0683,5.0683,5.0683,5.0683,5.0683,5.3518,5.3518,5.3518,5.3518,5.3518,5.3518,5.3518,5.3518,5.3501,5.3179,5.2756,5.2689,5.2266,5.1657,5.1572,5.0913,4.9763,4.9492,4.9221,4.9018,4.9018,4.9018,4.9018,4.9018,4.9018,4.9018,4.9018,4.9018,4.9018,4.9018,4.9018,4.9018,4.9018,4.9018,4.9018,4.9018,4.9018,4.9273,5.0407,5.1086,5.1241,5.2463,5.3206,5.3206,5.3206,5.3206,5.3206,5.3206,5.3206,5.3206,5.3206,5.3206,5.3206,5.3206,5.3206,5.3206,5.3206,5.3206,5.3206,5.3206,5.3206,5.3206,5.3206,5.3206,5.3206,5.3206,5.2803,5.238,5.2692,5.2821,5.2013,5.2068,5.2174,5.1682,5.182,5.188,5.1642,5.2076,5.2626,5.3091,5.2749,5.2413,5.2375,5.2606,5.328,5.4395,5.4684,5.5145,5.5568,5.5684,5.5684,5.5684,5.5645,5.5626,5.5588,5.5626,5.5684,5.5588,5.553,5.5261,5.503,5.4762,5.4127,5.2856,5.2106,5.1818,5.1414,5.0933,5.0741,5.0702,5.0683,5.0683,5.0683,5.0683,5.0683,5.3518,5.3518,5.3518,5.3518,5.3518,5.3518,5.3518,5.3518,5.3518,5.345,5.3348,5.3433,5.2976,5.2435,5.2317,5.1894,5.1116,5.049,4.9813,4.9171,4.9103,4.9069,4.9018,4.9018,4.9018,4.9018,4.9018,4.9018,4.9018,4.9018,4.9018,4.9018,4.9018,4.9018,4.9018,4.9018,4.9018,4.9316,5.0352,5.1086,5.1241,5.2463,5.3206,5.3206,5.3206,5.3206,5.3206,5.3206,5.3206,5.3206,5.3206,5.3206,5.3206,5.3206,5.3206,5.3206,5.3206,5.3206,5.3206,5.3206,5.3206,5.3206,5.3206,5.3206,5.3206,5.3206,5.2894,5.2417,5.2692,5.2637,5.1628,5.2289,5.3023,5.3096,5.2454,5.2123,5.2198,5.269,5.3462,5.3928,5.3469,5.3182,5.3356,5.3722,5.4299,5.4645,5.5145,5.5549,5.5665,5.5684,5.5684,5.5684,5.5684,5.5684,5.5684,5.5684,5.5684,5.5684,5.5665,5.553,5.5376,5.5126,5.453,5.3433,5.2529,5.2164,5.1356,5.0914,5.0741,5.0683,5.0683,5.0683,5.0683,5.0683,5.0683,5.3518,5.3518,5.3518,5.3518,5.3518,5.3518,5.3518,5.3518,5.3518,5.3518,5.3518,5.3518,5.3365,5.3179,5.3129,5.2706,5.1978,5.1674,5.0963,4.9932,4.9746,4.9475,4.9103,4.9018,4.9018,4.9018,4.9018,4.9018,4.9018,4.9018,4.9018,4.9018,4.9018,4.9018,4.9018,4.9018,4.9018,4.9152,5.0369,5.1086,5.1241,5.2463,5.3164,5.3206,5.3206,5.3206,5.3206,5.3206,5.3206,5.3206,5.3206,5.3206,5.3206,5.3206,5.3206,5.3206,5.3206,5.3206,5.3206,5.3206,5.3206,5.3206,5.3206,5.3206,5.3206,5.3206,5.3096,5.2821,5.3078,5.2913,5.2692,5.2858,5.3004,5.2459,5.2619,5.2729,5.2788,5.3009,5.3145,5.32,5.319,5.3308,5.3637,5.4242,5.4741,5.5184,5.553,5.5684,5.5684,5.5684,5.5684,5.5684,5.5684,5.5684,5.5684,5.5684,5.5684,5.5684,5.5684,5.5684,5.5568,5.5434,5.4838,5.401,5.3126,5.2279,5.1471,5.0971,5.076,5.0683,5.0683,5.0683,5.0683,5.0683,5.0683,5.3518,5.3518,5.3518,5.3518,5.3518,5.3518,5.3518,5.3518,5.3518,5.3518,5.3518,5.3518,5.3518,5.3518,5.3518,5.323,5.2773,5.2739,5.2097,5.0913,5.0253,4.983,4.939,4.9103,4.9018,4.9018,4.9018,4.9018,4.9018,4.9018,4.9018,4.9018,4.9018,4.9018,4.9018,4.9001,4.9107,4.9462,5.0517,5.1241,5.1643,5.2617,5.3206,5.3206,5.3206,5.3206,5.3206,5.3206,5.3206,5.3206,5.3206,5.3206,5.3206,5.3206,5.3206,5.3206,5.3206,5.3206,5.3206,5.3206,5.3206,5.3206,5.3206,5.3206,5.3206,5.3206,5.3206,5.3206,5.3206,5.3206,5.3188,5.3206,5.2949,5.2509,5.2564,5.2895,5.3085,5.3064,5.3296,5.3487,5.3833,5.4025,5.4301,5.4675,5.5105,5.5607,5.5684,5.5684,5.5684,5.5684,5.5684,5.5684,5.5684,5.5684,5.5684,5.5684,5.5684,5.5684,5.5684,5.5684,5.5645,5.5607,5.5261,5.4184,5.3222,5.2318,5.151,5.0991,5.0683,5.0683,5.0683,5.0683,5.0683,5.0683,5.0683,5.3518,5.3518,5.3518,5.3518,5.3518,5.3518,5.3518,5.3518,5.3518,5.3518,5.3518,5.3518,5.3518,5.3518,5.3518,5.345,5.3484,5.3399,5.301,5.208,5.1099,5.0321,5.0101,4.9509,4.9204,4.9171,4.9069,4.9018,4.9018,4.9018,4.9018,4.9018,4.9018,4.9018,4.9063,4.9063,4.9402,4.9936,5.077,5.1494,5.2065,5.2787,5.3206,5.3206,5.3206,5.3206,5.3206,5.3206,5.3206,5.3206,5.3115,5.3041,5.317,5.3188,5.3059,5.317,5.3206,5.3206,5.3206,5.3206,5.3206,5.3206,5.3206,5.3206,5.3206,5.3206,5.3206,5.3206,5.3206,5.3206,5.3206,5.3206,5.317,5.3115,5.2692,5.2654,5.3142,5.3013,5.3405,5.4496,5.5023,5.5023,5.4901,5.526,5.5519,5.5665,5.5684,5.5684,5.5684,5.5684,5.5684,5.5684,5.5684,5.5684,5.5684,5.5684,5.5684,5.5684,5.5684,5.5684,5.5684,5.5684,5.5203,5.4164,5.3356,5.2452,5.1587,5.0971,5.0683,5.0683,5.0683,5.0683,5.0683,5.0683,5.0683,5.3518,5.3518,5.3518,5.3518,5.3518,5.3518,5.3518,5.3518,5.3518,5.3518,5.3518,5.3518,5.3518,5.3518,5.3518,5.3518,5.3518,5.3501,5.345,5.3078,5.2198,5.1403,5.0862,5.0168,4.9796,4.9746,4.9323,4.9018,4.9018,4.9018,4.9018,4.9018,4.9018,4.9018,4.9063,4.9479,4.9838,5.0185,5.1223,5.1904,5.2177,5.2831,5.3164,5.3206,5.3206,5.3206,5.3206,5.3206,5.3206,5.3151,5.2569,5.2647,5.3078,5.2692,5.2619,5.3115,5.3206,5.3206,5.3206,5.3206,5.3206,5.3206,5.3206,5.3206,5.3206,5.3206,5.3206,5.3206,5.3206,5.3206,5.3206,5.3206,5.3206,5.3188,5.2949,5.3135,5.3778,5.38,5.3824,5.451,5.464,5.4671,5.476,5.5061,5.5423,5.5621,5.5684,5.5684,5.5684,5.5684,5.5684,5.5684,5.5684,5.5684,5.5684,5.5684,5.5684,5.5684,5.5684,5.5684,5.5684,5.5684,5.4857,5.378,5.3433,5.2683,5.1587,5.0721,5.0683,5.0683,5.0683,5.0683,5.0683,5.0683,5.0683,5.3518,5.3518,5.3518,5.3518,5.3518,5.3518,5.3518,5.3518,5.3518,5.3518,5.3518,5.3518,5.3518,5.3518,5.3518,5.3518,5.3518,5.3518,5.3501,5.3433,5.2993,5.2215,5.1336,5.071,5.0557,5.049,4.9813,4.9526,4.9407,4.9187,4.9018,4.9018,4.9018,4.9018,4.9063,4.9681,5.0185,5.0608,5.1544,5.2224,5.2599,5.2937,5.3164,5.3206,5.3206,5.3206,5.3206,5.3206,5.3206,5.3023,5.25,5.2353,5.3004,5.2435,5.238,5.3133,5.3206,5.3206,5.3206,5.3206,5.3206,5.3206,5.3206,5.3206,5.3206,5.3206,5.3206,5.3206,5.3206,5.3206,5.3206,5.3206,5.3206,5.3206,5.3206,5.3484,5.4153,5.3758,5.3796,5.4102,5.4373,5.4503,5.4535,5.4979,5.5399,5.5621,5.5684,5.5684,5.5684,5.5684,5.5684,5.5684,5.5684,5.5684,5.5684,5.5684,5.5684,5.5684,5.5684,5.5684,5.5684,5.5626,5.4722,5.3876,5.3472,5.2779,5.1548,5.0683,5.0683,5.0683,5.0683,5.0683,5.0683,5.0683,5.0683,5.3518,5.3518,5.3518,5.3518,5.3518,5.3518,5.3518,5.3518,5.3518,5.3518,5.3518,5.3518,5.3518,5.3518,5.3518,5.3518,5.3518,5.3518,5.3518,5.3501,5.3331,5.2773,5.1809,5.1471,5.1336,5.1217,5.0574,5.0168,4.9898,4.9407,4.9103,4.9035,4.9018,4.9124,4.9316,4.9821,5.05,5.1189,5.1922,5.2554,5.2999,5.3164,5.3206,5.3206,5.3206,5.3206,5.3206,5.3206,5.3206,5.3206,5.2463,5.2459,5.2968,5.2435,5.2454,5.3023,5.3206,5.3206,5.3206,5.3206,5.3206,5.3206,5.3206,5.3206,5.3206,5.3206,5.3206,5.3206,5.3206,5.3206,5.3206,5.3206,5.3206,5.3206,5.3206,5.34,5.3565,5.3404,5.3341,5.3777,5.4255,5.4406,5.475,5.5134,5.564,5.5662,5.5684,5.5684,5.5684,5.5684,5.5684,5.5684,5.5684,5.5684,5.5684,5.5684,5.5684,5.5684,5.5684,5.5684,5.5684,5.5434,5.4664,5.3991,5.3433,5.2452,5.1144,5.0683,5.0683,5.0683,5.0683,5.0683,5.0683,5.0683,5.0683,5.3518,5.3518,5.3518,5.3518,5.3518,5.3518,5.3518,5.3518,5.3518,5.3518,5.3518,5.3518,5.3518,5.3518,5.3518,5.3518,5.3518,5.3518,5.3518,5.3518,5.3518,5.3399,5.2824,5.2367,5.2097,5.1911,5.1336,5.071,5.0219,4.9949,4.9543,4.9103,4.9097,4.9273,4.978,5.0407,5.1172,5.1856,5.2572,5.2937,5.3103,5.3206,5.3206,5.3206,5.3206,5.3206,5.3206,5.3206,5.3206,5.2981,5.2559,5.2449,5.2894,5.2435,5.2435,5.2986,5.3206,5.3206,5.3206,5.3206,5.3206,5.3206,5.3206,5.3206,5.3206,5.3206,5.3206,5.3206,5.3206,5.3206,5.3206,5.3206,5.3206,5.3206,5.3206,5.3248,5.3295,5.3254,5.3545,5.4032,5.4153,5.4202,5.4848,5.508,5.5423,5.5599,5.5684,5.5684,5.5684,5.5684,5.5684,5.5684,5.5684,5.5684,5.5684,5.5684,5.5684,5.5684,5.5684,5.5684,5.5684,5.5491,5.4818,5.4068,5.3318,5.2183,5.101,5.0683,5.0683,5.0683,5.0683,5.0683,5.0683,5.0683,5.0683,5.3162,5.3501,5.3518,5.3518,5.3518,5.3518,5.3518,5.3518,5.3518,5.3518,5.3518,5.3518,5.3518,5.3518,5.3518,5.3518,5.3518,5.3518,5.3518,5.3518,5.3518,5.3518,5.3467,5.3129,5.2858,5.2756,5.208,5.1488,5.1099,5.0439,4.9881,4.9492,4.9204,4.9376,5.0033,5.0734,5.1393,5.2065,5.2831,5.3206,5.3206,5.3206,5.3206,5.3206,5.3206,5.3206,5.3206,5.3206,5.3206,5.3091,5.2834,5.27,5.2926,5.2472,5.2454,5.3041,5.3206,5.3206,5.3206,5.3206,5.3206,5.3206,5.3206,5.3206,5.3206,5.3206,5.3206,5.3206,5.3206,5.3206,5.3206,5.3206,5.3206,5.3206,5.3206,5.3206,5.323,5.3359,5.3604,5.4118,5.4336,5.4621,5.496,5.5231,5.5399,5.5684,5.5684,5.5684,5.5684,5.5684,5.5684,5.5684,5.5684,5.5684,5.5684,5.5684,5.5684,5.5684,5.5684,5.5684,5.5684,5.5434,5.5088,5.4164,5.3164,5.226,5.126,5.0991,5.0683,5.0683,5.0683,5.0683,5.0683,5.0683,5.0683,5.2773,5.3518,5.3518,5.3518,5.3518,5.3518,5.3518,5.3518,5.3518,5.3518,5.3518,5.3518,5.3518,5.3518,5.3518,5.3518,5.3518,5.3518,5.3518,5.3518,5.3518,5.3518,5.3484,5.3433,5.3382,5.3416,5.2841,5.2435,5.1894,5.1099,5.0456,5.005,4.9509,4.965,5.0254,5.0787,5.1562,5.2335,5.2919,5.3206,5.3206,5.3206,5.3206,5.3206,5.3206,5.3206,5.3206,5.3206,5.3206,5.3206,5.3206,5.3206,5.3041,5.2692,5.2417,5.3188,5.3206,5.3206,5.3206,5.3206,5.3206,5.3206,5.3206,5.3206,5.3206,5.3206,5.3206,5.3206,5.3206,5.3206,5.3206,5.3206,5.3206,5.3206,5.3248,5.3314,5.34,5.3701,5.4048,5.403,5.4528,5.496,5.5212,5.5446,5.5599,5.5684,5.5684,5.5684,5.5684,5.5684,5.5684,5.5684,5.5684,5.5684,5.5684,5.5684,5.5684,5.5684,5.5684,5.5684,5.5626,5.5222,5.4761,5.3876,5.2914,5.2106,5.1395,5.0894,5.0683,5.0683,5.0683,5.0683,5.0683,5.0683,5.0683,5.2756,5.3518,5.3518,5.3518,5.3518,5.3518,5.3518,5.3518,5.3518,5.3518,5.3518,5.3518,5.3518,5.3518,5.3518,5.3518,5.3518,5.3518,5.3518,5.3518,5.3518,5.3518,5.3518,5.3518,5.3518,5.3501,5.3264,5.2926,5.2469,5.1978,5.1217,5.0338,4.9978,5.0257,5.0782,5.1155,5.1777,5.2725,5.3103,5.3164,5.3206,5.3206,5.3206,5.3206,5.3206,5.3206,5.3206,5.3206,5.3206,5.3206,5.3206,5.3206,5.317,5.3023,5.3041,5.3151,5.3206,5.3206,5.3206,5.3206,5.3206,5.3206,5.3206,5.3206,5.3206,5.3206,5.3206,5.3206,5.3206,5.3206,5.3206,5.3206,5.3206,5.3272,5.3484,5.3663,5.3833,5.427,5.4621,5.4465,5.4848,5.5212,5.5423,5.5577,5.564,5.5684,5.5684,5.5684,5.5684,5.5684,5.5684,5.5684,5.5684,5.5684,5.5684,5.5684,5.5684,5.5684,5.5684,5.5684,5.5491,5.4972,5.4318,5.3549,5.2914,5.2241,5.1548,5.0856,5.0683,5.0683,5.0683,5.0683,5.0683,5.0683,5.0683,5.279,5.3501,5.3518,5.3518,5.3518,5.3518,5.3518,5.3518,5.3518,5.3518,5.3518,5.3518,5.3518,5.3518,5.3518,5.3518,5.3518,5.3518,5.3518,5.3518,5.3518,5.3518,5.3518,5.3518,5.3518,5.3501,5.3484,5.3331,5.2909,5.2452,5.1976,5.1397,5.0901,5.1043,5.1494,5.1658,5.2185,5.2999,5.3206,5.3206,5.3206,5.3206,5.3206,5.3206,5.3206,5.3206,5.3206,5.3206,5.3206,5.3206,5.3206,5.3206,5.3206,5.3206,5.3206,5.3206,5.3206,5.3206,5.3206,5.3206,5.3206,5.3206,5.3206,5.3206,5.3206,5.3206,5.3206,5.3206,5.3206,5.3206,5.3206,5.3206,5.3295,5.3505,5.372,5.3905,5.4202,5.4741,5.4876,5.4876,5.5212,5.5446,5.5577,5.5662,5.5684,5.5684,5.5684,5.5684,5.5684,5.5684,5.5684,5.5684,5.5684,5.5684,5.5684,5.5684,5.5684,5.5684,5.5684,5.5684,5.5395,5.4876,5.4184,5.3414,5.2818,5.2049,5.1452,5.0683,5.0683,5.0683,5.0683,5.0683,5.0683,5.0683,5.0683,5.2773,5.3518,5.3518,5.3518,5.3518,5.3518,5.3518,5.3518,5.3518,5.3518,5.3518,5.3518,5.3518,5.3518,5.3518,5.3518,5.3518,5.3518,5.3518,5.3518,5.3518,5.3518,5.3518,5.3518,5.3518,5.3501,5.3783,5.3601,5.3365,5.3122,5.2813,5.2472,5.1993,5.192,5.2358,5.2382,5.279,5.2999,5.3206,5.3206,5.3206,5.3206,5.3206,5.3206,5.3206,5.3206,5.3206,5.3206,5.3206,5.3206,5.3206,5.3206,5.3206,5.3206,5.3206,5.3206,5.3206,5.3206,5.3206,5.3206,5.3206,5.3206,5.3206,5.3206,5.3206,5.3206,5.3206,5.3206,5.3206,5.3206,5.3206,5.3254,5.3484,5.372,5.3959,5.4217,5.4591,5.4979,5.5231,5.5331,5.5558,5.5621,5.5684,5.5684,5.5684,5.5684,5.5684,5.5684,5.5684,5.5684,5.5684,5.5684,5.5684,5.5684,5.5684,5.5684,5.5684,5.5684,5.5684,5.5684,5.528,5.4799,5.401,5.3203,5.2145,5.1395,5.0914,5.0683,5.0683,5.0683,5.0683,5.0683,5.0683,5.0683,5.0683,5.2773,5.3518,5.3518,5.3518,5.3518,5.3518,5.3518,5.3518,5.3518,5.3518,5.3518,5.3518,5.3518,5.3518,5.3518,5.3518,5.3518,5.3518,5.3518,5.3518,5.3518,5.3518,5.3518,5.3518,5.3518,5.3618,5.4106,5.4059,5.3847,5.4046,5.3963,5.3593,5.384,5.3887,5.3351,5.3351,5.3162,5.3225,5.3298,5.3298,5.328,5.328,5.328,5.3206,5.3206,5.3206,5.3206,5.3206,5.3206,5.3206,5.3206,5.3206,5.3206,5.3206,5.3206,5.3206,5.3206,5.3206,5.3206,5.3206,5.3206,5.3206,5.3206,5.3206,5.3206,5.3206,5.3206,5.3206,5.3206,5.3272,5.3318,5.3545,5.372,5.4065,5.4446,5.4741,5.5061,5.5212,5.5466,5.5512,5.564,5.5662,5.5684,5.5684,5.5684,5.5684,5.5684,5.5684,5.5684,5.5684,5.5684,5.5684,5.5684,5.5684,5.5684,5.5684,5.5684,5.5684,5.5684,5.5665,5.5261,5.4741,5.378,5.2895,5.1798,5.1068,5.0798,5.0683,5.0683,5.0683,5.0683,5.0683,5.0683,5.0683,5.0683,5.3179,5.3501,5.3518,5.3518,5.3518,5.3518,5.3518,5.3518,5.3518,5.3518,5.3518,5.3518,5.3518,5.3518,5.3518,5.3518,5.3518,5.3518,5.3518,5.3518,5.3518,5.3518,5.3518,5.3518,5.3518,5.3734,5.4171,5.4437,5.4374,5.4783,5.4975,5.4886,5.5024,5.504,5.4574,5.4607,5.4637,5.4594,5.4564,5.4319,5.4014,5.3849,5.3647,5.3243,5.3225,5.3206,5.3206,5.3206,5.3206,5.3206,5.3206,5.3206,5.3206,5.3206,5.3206,5.3206,5.3206,5.3206,5.3206,5.3206,5.3206,5.3206,5.3206,5.3206,5.3206,5.3206,5.3206,5.3206,5.3422,5.3505,5.3623,5.3924,5.4288,5.4591,5.4876,5.5115,5.5356,5.5512,5.5662,5.5684,5.5684,5.5684,5.5684,5.5684,5.5684,5.5684,5.5684,5.5684,5.5684,5.5684,5.5684,5.5684,5.5684,5.5684,5.5684,5.5684,5.5684,5.5684,5.5684,5.5607,5.5318,5.4684,5.3645,5.2702,5.1741,5.1144,5.0798,5.0683,5.0683,5.0683,5.0683,5.0683,5.0683,5.0683,5.0683,5.3518,5.3518,5.3518,5.3518,5.3518,5.3518,5.3518,5.3518,5.3518,5.3518,5.3518,5.3518,5.3518,5.3518,5.3518,5.3518,5.3518,5.3518,5.3518,5.3518,5.3518,5.3518,5.3518,5.3518,5.3618,5.3783,5.4668,5.4902,5.519,5.5695,5.6277,5.6041,5.6233,5.6102,5.6007,5.5824,5.5721,5.5397,5.5393,5.5174,5.4785,5.4436,5.4069,5.3665,5.3353,5.3206,5.3206,5.3206,5.3206,5.3206,5.3206,5.3206,5.3206,5.3206,5.3206,5.3206,5.3206,5.3206,5.3206,5.3206,5.3206,5.3206,5.3206,5.3206,5.3206,5.3206,5.3295,5.34,5.3565,5.3777,5.4048,5.4387,5.4671,5.4952,5.5186,5.5423,5.5599,5.5662,5.5684,5.5684,5.5684,5.5684,5.5684,5.5684,5.5684,5.5684,5.5684,5.5684,5.5684,5.5684,5.5684,5.5684,5.5684,5.5684,5.5684,5.5684,5.5684,5.5645,5.5645,5.5434,5.5088,5.4318,5.3299,5.2395,5.1587,5.1106,5.0702,5.0683,5.0683,5.0683,5.0683,5.0683,5.0683,5.0683,5.0683,5.3518,5.3518,5.3518,5.3518,5.3518,5.3518,5.3518,5.3518,5.3518,5.3518,5.3518,5.3518,5.3518,5.3518,5.3518,5.3518,5.3518,5.3518,5.3518,5.3518,5.3518,5.3518,5.3501,5.3618,5.3881,5.4482,5.522,5.5593,5.5949,5.6917,5.7112,5.6978,5.7231,5.717,5.6923,5.6713,5.6418,5.6088,5.5953,5.5788,5.5365,5.4932,5.4418,5.4142,5.361,5.3206,5.3206,5.3206,5.3206,5.3206,5.3206,5.3206,5.3206,5.3206,5.3206,5.3206,5.3206,5.3206,5.3206,5.3206,5.3206,5.3206,5.3206,5.3248,5.3295,5.323,5.3359,5.3739,5.3941,5.4118,5.4452,5.4809,5.5107,5.5212,5.5399,5.5512,5.5662,5.5662,5.5684,5.5684,5.5684,5.5684,5.5684,5.5684,5.5684,5.5684,5.5684,5.5684,5.5684,5.5684,5.5684,5.5684,5.5684,5.5684,5.5684,5.5684,5.5684,5.5568,5.5491,5.5145,5.4741,5.3837,5.276,5.2183,5.1433,5.101,5.0683,5.0683,5.0683,5.0683,5.0683,5.0683,5.0683,5.0683,5.0683,5.3518,5.3518,5.3518,5.3518,5.3518,5.3518,5.3518,5.3518,5.3518,5.3518,5.3518,5.3518,5.3518,5.3518,5.3518,5.3518,5.3518,5.3518,5.3518,5.3518,5.3518,5.3518,5.3618,5.3946,5.4391,5.4818,5.5724,5.6438,5.6606,5.7533,5.7766,5.7774,5.7849,5.7804,5.7593,5.7446,5.7244,5.7152,5.6978,5.6868,5.619,5.5556,5.4895,5.4344,5.3628,5.3243,5.3206,5.3206,5.3206,5.3206,5.3206,5.3206,5.3206,5.3206,5.3206,5.3206,5.3206,5.3206,5.3206,5.3206,5.3206,5.3206,5.3206,5.3295,5.3484,5.3545,5.3814,5.4118,5.4414,5.464,5.4844,5.5217,5.5489,5.5512,5.5577,5.5662,5.5684,5.5684,5.5684,5.5684,5.5684,5.5684,5.5684,5.5684,5.5684,5.5684,5.5684,5.5684,5.5684,5.5684,5.5684,5.5684,5.5684,5.5684,5.5684,5.5684,5.5665,5.5453,5.5261,5.4684,5.4087,5.3087,5.2125,5.1664,5.1318,5.0914,5.0683,5.0683,5.0683,5.0683,5.0683,5.0683,5.0683,5.0683,5.0683,5.3518,5.3518,5.3518,5.3518,5.3518,5.3518,5.3518,5.3518,5.3518,5.3518,5.3518,5.3518,5.3518,5.3518,5.3518,5.3518,5.3518,5.3518,5.3518,5.3518,5.3518,5.3518,5.3783,5.4154,5.4713,5.5161,5.6059,5.6822,5.6794,5.7627,5.7666,5.7657,5.7868,5.7941,5.796,5.7978,5.7978,5.7978,5.7923,5.7795,5.7079,5.6381,5.5574,5.484,5.4069,5.3463,5.3316,5.3206,5.3206,5.3206,5.3206,5.3206,5.3206,5.3206,5.3206,5.3206,5.3206,5.3206,5.3206,5.3206,5.3206,5.3206,5.3206,5.3422,5.3701,5.3851,5.3977,5.4609,5.4924,5.5145,5.5241,5.5504,5.564,5.5621,5.5621,5.5684,5.5684,5.5684,5.5684,5.5684,5.5684,5.5684,5.5684,5.5684,5.5684,5.5684,5.5684,5.5684,5.5684,5.5684,5.5684,5.5684,5.5684,5.5684,5.5684,5.5415,5.5107,5.4876,5.4568,5.3933,5.3222,5.2299,5.1645,5.126,5.0971,5.076,5.0683,5.0683,5.0683,5.0683,5.0683,5.0683,5.0683,5.0683,5.0683,5.3518,5.3518,5.3518,5.3518,5.3518,5.3518,5.3518,5.3518,5.3518,5.3518,5.3518,5.3518,5.3518,5.3518,5.3518,5.3518,5.3518,5.3518,5.3518,5.3518,5.3668,5.3568,5.3898,5.4454,5.5338,5.578,5.6562,5.7073,5.6923,5.7657,5.7593,5.7428,5.7721,5.7978,5.7978,5.7978,5.7978,5.7978,5.7978,5.7905,5.7685,5.7024,5.6198,5.539,5.4583,5.3904,5.3353,5.3206,5.3206,5.3206,5.3206,5.3206,5.3206,5.3206,5.3206,5.3206,5.323,5.323,5.323,5.3206,5.3243,5.3248,5.3272,5.3524,5.3758,5.3941,5.4251,5.5007,5.516,5.535,5.5531,5.5662,5.5684,5.5684,5.5684,5.5684,5.5684,5.5684,5.5684,5.5684,5.5684,5.5684,5.5684,5.5684,5.5684,5.5684,5.5684,5.5684,5.5684,5.5684,5.5684,5.5684,5.5684,5.5684,5.5568,5.4934,5.4549,5.4339,5.3876,5.3203,5.2645,5.1952,5.1375,5.0933,5.0779,5.0702,5.0683,5.0683,5.0683,5.0683,5.0683,5.0683,5.0683,5.0683,5.0683,5.3518,5.3518,5.3518,5.3518,5.3518,5.3518,5.3518,5.3518,5.3518,5.3518,5.3518,5.3518,5.3518,5.3518,5.3518,5.3518,5.3518,5.3518,5.3518,5.3568,5.3946,5.4218,5.4562,5.5314,5.6167,5.6598,5.7198,5.7587,5.7639,5.7923,5.7886,5.7758,5.7776,5.7941,5.7978,5.7978,5.7978,5.7978,5.7978,5.796,5.7905,5.7244,5.6455,5.5647,5.484,5.4087,5.3316,5.3225,5.3206,5.3206,5.3206,5.3206,5.3206,5.3206,5.3206,5.3272,5.3359,5.3569,5.3584,5.3598,5.3487,5.3429,5.3502,5.3795,5.4187,5.4528,5.496,5.5287,5.5423,5.5577,5.5662,5.5684,5.5684,5.5684,5.5684,5.5684,5.5684,5.5684,5.5684,5.5684,5.5684,5.5684,5.5684,5.5684,5.5684,5.5684,5.5684,5.5684,5.5684,5.5684,5.5684,5.5684,5.5684,5.5684,5.5491,5.4914,5.4434,5.4223,5.3395,5.2414,5.1875,5.1471,5.1183,5.076,5.0721,5.0683,5.0683,5.0683,5.0683,5.0683,5.0683,5.0683,5.0683,5.0683,5.0683,5.3518,5.3518,5.3518,5.3518,5.3518,5.3518,5.3518,5.3518,5.3518,5.3518,5.3518,5.3518,5.3518,5.3518,5.3518,5.3518,5.3518,5.3518,5.3518,5.3618,5.4264,5.4499,5.5059,5.6095,5.6616,5.7116,5.7546,5.796,5.7923,5.796,5.7941,5.7923,5.7978,5.7978,5.7978,5.7978,5.7978,5.7978,5.7978,5.7978,5.7868,5.7428,5.6712,5.5812,5.5023,5.4344,5.3537,5.3206,5.3206,5.3206,5.3206,5.3206,5.3206,5.3206,5.3206,5.3295,5.3363,5.3717,5.3954,5.3795,5.3743,5.3793,5.3955,5.4262,5.4616,5.4876,5.5212,5.5512,5.5662,5.5684,5.5703,5.5684,5.5684,5.5684,5.5684,5.5684,5.5684,5.5684,5.5684,5.5684,5.5684,5.5684,5.5684,5.5684,5.5684,5.5684,5.5684,5.5684,5.5684,5.5684,5.5684,5.5684,5.5684,5.5665,5.5434,5.4953,5.4511,5.4107,5.3049,5.1856,5.1395,5.1068,5.0837,5.0683,5.0683,5.0683,5.0683,5.0683,5.0683,5.0683,5.0683,5.0683,5.0683,5.0683,5.0683,5.3518,5.3518,5.3518,5.3518,5.3518,5.3518,5.3518,5.3518,5.3518,5.3518,5.3518,5.3518,5.3518,5.3518,5.3518,5.3518,5.3416,5.3416,5.3331,5.363,5.4195,5.4416,5.5156,5.6187,5.6978,5.7284,5.7576,5.7886,5.7923,5.7758,5.7776,5.7886,5.7923,5.796,5.7978,5.7978,5.7978,5.7978,5.7978,5.7978,5.7905,5.774,5.6822,5.5923,5.5207,5.4399,5.3665,5.3206,5.3206,5.3206,5.3206,5.3206,5.3206,5.3206,5.3206,5.3272,5.3359,5.3872,5.4303,5.4171,5.4193,5.4344,5.4508,5.4787,5.4943,5.5115,5.5399,5.5577,5.5684,5.5684,5.5684,5.5684,5.5684,5.5684,5.5684,5.5684,5.5684,5.5684,5.5684,5.5684,5.5684,5.5684,5.5684,5.5684,5.5684,5.5684,5.5684,5.5684,5.5684,5.5684,5.5684,5.5684,5.5684,5.5645,5.5299,5.4703,5.3914,5.3299,5.2491,5.1471,5.1048,5.0779,5.0721,5.0683,5.0683,5.0683,5.0683,5.0683,5.0683,5.0683,5.0702,5.0702,5.0721,5.0683,5.0683,5.3518,5.3518,5.3518,5.3518,5.3518,5.3518,5.3518,5.3518,5.3518,5.3518,5.3518,5.3501,5.3416,5.3518,5.3518,5.3467,5.3247,5.2976,5.2706,5.3092,5.394,5.4379,5.5291,5.6446,5.737,5.7708,5.7812,5.7721,5.7262,5.7189,5.7152,5.7152,5.7666,5.785,5.796,5.7978,5.7978,5.7978,5.7978,5.7978,5.7776,5.7519,5.6602,5.5831,5.506,5.4234,5.3518,5.3225,5.3206,5.3206,5.3206,5.3206,5.3206,5.3248,5.3336,5.4086,5.4193,5.4396,5.4809,5.4809,5.4749,5.4939,5.5134,5.5141,5.5256,5.5331,5.5554,5.564,5.5684,5.5684,5.5684,5.5684,5.5684,5.5684,5.5684,5.5684,5.5684,5.5684,5.5684,5.5684,5.5684,5.5684,5.5684,5.5684,5.5684,5.5684,5.5684,5.5684,5.5684,5.5684,5.5684,5.5684,5.5626,5.5588,5.4838,5.4184,5.326,5.2414,5.1818,5.1298,5.0914,5.0721,5.0702,5.0683,5.0683,5.0683,5.0683,5.0683,5.0702,5.0741,5.076,5.0741,5.0741,5.0741,5.0702,5.3518,5.3518,5.3518,5.3518,5.3518,5.3518,5.3518,5.3518,5.3518,5.3518,5.3484,5.3145,5.3027,5.2926,5.2689,5.252,5.2469,5.2114,5.199,5.2664,5.3642,5.4168,5.5145,5.6443,5.7235,5.7611,5.774,5.7611,5.6932,5.6473,5.6381,5.6895,5.7391,5.7703,5.7905,5.7978,5.7978,5.7978,5.7978,5.7978,5.7666,5.7171,5.64,5.5556,5.4766,5.3995,5.3353,5.3225,5.3206,5.3206,5.3206,5.3206,5.323,5.3378,5.3833,5.4484,5.4522,5.4814,5.517,5.5129,5.5183,5.5312,5.5549,5.5538,5.5508,5.5554,5.564,5.5684,5.5684,5.5684,5.5684,5.5684,5.5684,5.5684,5.5684,5.5684,5.5684,5.5684,5.5684,5.5684,5.5684,5.5684,5.5684,5.5684,5.5684,5.5684,5.5684,5.5684,5.5684,5.5684,5.5684,5.5684,5.5588,5.5472,5.4607,5.376,5.3049,5.2375,5.1914,5.1414,5.0914,5.0683,5.0683,5.0683,5.0683,5.0683,5.0683,5.0702,5.0721,5.076,5.0818,5.0836,5.0835,5.0817,5.0779,5.3518,5.3518,5.3518,5.3518,5.3518,5.3518,5.3518,5.3518,5.3518,5.3518,5.3365,5.2655,5.2401,5.2384,5.1894,5.1668,5.1813,5.1724,5.1939,5.2362,5.3417,5.4098,5.486,5.6025,5.7052,5.7262,5.7391,5.7593,5.6785,5.6271,5.6161,5.6767,5.706,5.7446,5.7923,5.7978,5.7978,5.7978,5.796,5.7923,5.7574,5.706,5.6326,5.5464,5.4656,5.3922,5.3408,5.3206,5.3206,5.3206,5.3206,5.3206,5.3381,5.3682,5.4336,5.4741,5.4838,5.5119,5.5377,5.5365,5.5415,5.5554,5.5684,5.5662,5.564,5.564,5.5684,5.5684,5.5684,5.5684,5.5684,5.5684,5.5684,5.5684,5.5684,5.5684,5.5684,5.5684,5.5684,5.5684,5.5684,5.5684,5.5684,5.5684,5.5684,5.5684,5.5684,5.5684,5.5684,5.5684,5.5684,5.5665,5.5338,5.5049,5.4299,5.353,5.2972,5.2395,5.1818,5.1395,5.0837,5.0702,5.0683,5.0683,5.0683,5.0683,5.0683,5.0721,5.0779,5.0856,5.0894,5.0908,5.0926,5.0892,5.0836,5.3518,5.3518,5.3518,5.3518,5.3518,5.3518,5.3518,5.3518,5.3518,5.3518,5.3348,5.2706,5.2283,5.2097,5.1454,5.1274,5.1802,5.188,5.2132,5.2795,5.3617,5.4295,5.4858,5.609,5.696,5.7593,5.7795,5.7446,5.6767,5.6161,5.5978,5.6804,5.7171,5.7685,5.7941,5.7978,5.7978,5.7978,5.796,5.7666,5.7152,5.6345,5.55,5.4766,5.3995,5.3573,5.3206,5.3206,5.3206,5.3206,5.3206,5.3359,5.3663,5.4083,5.456,5.5007,5.5256,5.5466,5.5554,5.5573,5.5596,5.5618,5.5684,5.5684,5.5684,5.5684,5.5684,5.5684,5.5684,5.5684,5.5684,5.5684,5.5684,5.5684,5.5684,5.5684,5.5684,5.5684,5.5684,5.5684,5.5684,5.5684,5.5684,5.5684,5.5684,5.5684,5.5684,5.5684,5.5684,5.5684,5.5684,5.5568,5.4972,5.4511,5.3857,5.3126,5.2491,5.1837,5.1202,5.0894,5.0721,5.0702,5.0683,5.0683,5.0683,5.0721,5.076,5.0798,5.0895,5.0952,5.0972,5.0989,5.0951,5.0952,5.0856,5.3518,5.3518,5.3518,5.3518,5.3518,5.3518,5.3518,5.3518,5.3518,5.3518,5.3315,5.2401,5.1826,5.1725,5.1048,5.1247,5.1931,5.2216,5.2843,5.3511,5.4093,5.4671,5.5458,5.6218,5.6731,5.7373,5.7042,5.6638,5.662,5.5721,5.55,5.6657,5.7354,5.7685,5.7886,5.7978,5.7978,5.7978,5.7978,5.7519,5.6804,5.6014,5.5482,5.473,5.3977,5.3427,5.3206,5.3206,5.3206,5.3258,5.3367,5.374,5.4099,5.4516,5.4933,5.5306,5.5554,5.5684,5.5684,5.5684,5.5684,5.5684,5.5684,5.5684,5.5684,5.5684,5.5684,5.5684,5.5684,5.5684,5.5684,5.5684,5.5684,5.5684,5.5684,5.5684,5.5684,5.5684,5.5684,5.5684,5.5684,5.5684,5.5684,5.5684,5.5684,5.5684,5.5684,5.5684,5.5684,5.5684,5.5684,5.5434,5.4818,5.4145,5.351,5.2702,5.1875,5.1221,5.0702,5.0683,5.0702,5.0702,5.0683,5.0741,5.0798,5.0837,5.0895,5.0933,5.0972,5.1029,5.1068,5.1087,5.1029,5.0952,5.0856,5.3518,5.3518,5.3518,5.3518,5.3518,5.3518,5.3518,5.3518,5.3518,5.3518,5.3331,5.2046,5.1437,5.1116,5.0672,5.1047,5.1703,5.2724,5.3618,5.4363,5.4888,5.5411,5.5898,5.6492,5.6914,5.6877,5.6528,5.662,5.6767,5.5886,5.5794,5.6657,5.7042,5.7336,5.7795,5.7978,5.7978,5.7923,5.7776,5.7409,5.673,5.6014,5.5556,5.4913,5.4124,5.3298,5.3206,5.3206,5.3206,5.3348,5.3553,5.3952,5.4363,5.4809,5.5212,5.5531,5.564,5.5684,5.5684,5.5684,5.5684,5.5684,5.5684,5.5684,5.5684,5.5684,5.5684,5.5684,5.5684,5.5684,5.5684,5.5684,5.5684,5.5684,5.5684,5.5684,5.5684,5.5684,5.5684,5.5684,5.5684,5.5684,5.5684,5.5684,5.5684,5.5684,5.5684,5.5684,5.5684,5.5684,5.5684,5.5241,5.4607,5.3933,5.326,5.226,5.1318,5.1087,5.0683,5.0683,5.0702,5.0721,5.0779,5.0856,5.0895,5.0947,5.0988,5.1046,5.1105,5.1087,5.1126,5.1126,5.0991,5.0914,5.0818,5.3518,5.3518,5.3518,5.3518,5.3518,5.3518,5.3518,5.3518,5.3484,5.3518,5.3196,5.2621,5.2097,5.2046,5.1336,5.1638,5.2892,5.3693,5.4502,5.5332,5.6035,5.6374,5.6593,5.6895,5.7244,5.7134,5.684,5.6712,5.673,5.6418,5.64,5.6785,5.7556,5.7776,5.785,5.7923,5.7813,5.7629,5.7244,5.684,5.6657,5.5959,5.5244,5.4528,5.372,5.3353,5.3206,5.3206,5.3206,5.333,5.3591,5.4033,5.4477,5.4924,5.5282,5.5577,5.5684,5.5684,5.5684,5.5684,5.5684,5.5684,5.5684,5.5684,5.5684,5.5684,5.5684,5.5684,5.5684,5.5684,5.5684,5.5684,5.5684,5.5684,5.5684,5.5684,5.5684,5.5684,5.5684,5.5684,5.5684,5.5684,5.5684,5.5684,5.5684,5.5684,5.5684,5.5684,5.5684,5.5684,5.5684,5.5107,5.4472,5.3799,5.3145,5.1779,5.0894,5.0741,5.0702,5.0721,5.076,5.0798,5.0856,5.0952,5.1009,5.1056,5.1111,5.1122,5.1086,5.1106,5.1164,5.1145,5.0991,5.0875,5.0798]},{"header":{"parameterUnit":"m.s-1","parameterCategory":1,"la1":31.0,"la2":29.5877,"lo1":-88.7671,"lo2":-86.6584,"dy":0.0162,"dx":0.0185,"nx":115,"ny":88,"refTime":"2023-11-19T06:00:00:Z","depth":0,"parameterNumber":3,"parameterNumberName":"V-component_of_WINDS"},"data":[0.0,0.0,0.0,0.0,0.0,0.0,0.0,0.0,0.0,0.0,0.0,0.0,0.0,0.0,0.0,0.0,0.0,0.0,0.0,0.0,0.0,0.0,0.0,0.0,0.0,0.0,0.0,0.0,0.0,0.0,0.0,0.0,0.0,0.0,0.0,0.0,0.0,0.0,0.0,0.0,0.0,0.0,0.0,0.0,0.0,0.0,0.0,0.0,0.0,0.0,0.0,0.0,0.0,0.0,0.0,0.0,0.0,0.0,0.0,0.0,0.0,0.0,0.0,0.0,0.0,0.0,0.0,0.0,0.0,0.0,0.0,0.0,0.0,0.0,0.0,0.0,0.0,0.0,0.0,0.0,0.0,0.0,0.0,0.0,0.0,0.0,0.0,0.0,0.0,0.0,0.0,0.0,0.0,0.0,0.0,0.0,0.0,0.0,0.0,0.0,0.0,0.0,0.0,0.0,0.0,0.0,0.0,0.0,0.0,0.0,0.0,0.0,0.0,0.0,0.0,0.0,0.0,0.0,0.0,0.0,0.0,0.0,0.0,0.0,0.0,0.0,0.0,0.0,0.0,0.0,0.0,0.0,0.0,0.0,0.0,0.0,0.0,0.0,0.0,0.0,0.0,0.0,0.0,0.0,0.0,0.0,0.0,0.0,0.0,0.0,0.0,0.0,0.0,0.0,0.0,0.0,0.0,0.0,0.0,0.0,0.0,0.0,0.0,0.0,0.0,0.0,0.0,0.0,0.0,0.0,0.0,0.0,0.0,0.0,0.0,0.0,0.0,0.0,0.0,0.0,0.0,0.0,0.0,0.0,0.0,0.0,0.0,0.0,0.0,0.0,0.0,0.0,0.0,0.0,0.0,0.0,0.0,0.0,0.0,0.0,0.0,0.0,0.0,0.0,0.0,0.0,0.0,0.0,0.0,0.0,0.0,0.0,0.0,0.0,0.0,0.0,0.0,0.0,0.0,0.0,0.0,0.0,0.0,0.0,0.0,0.0,0.0,0.0,0.0,0.0,0.0,0.0,0.0,0.0,0.0,0.0,0.0,0.0,0.0,0.0,0.0,0.0,0.0,0.0,0.0,0.0,0.0,0.0,0.0,0.0,0.0,0.0,0.0,0.0,0.0,0.0,0.0,0.0,0.0,0.0,0.0,0.0,0.0,0.0,0.0,0.0,0.0,0.0,0.0,0.0,0.0,0.0,0.0,0.0,0.0,0.0,0.0,0.0,0.0,0.0,0.0,0.0,0.0,0.0,0.0,0.0,0.0,0.0,0.0,0.0,0.0,0.0,0.0,0.0,0.0,0.0,0.0,0.0,0.0,0.0,0.0,0.0,0.0,0.0,0.0,0.0,0.0,0.0,0.0,0.0,0.0,0.0,0.0,0.0,0.0,0.0,0.0,0.0,0.0,0.0,0.0,0.0,0.0,0.0,0.0,0.0,0.0,0.0,0.0,0.0,0.0,0.0,0.0,0.0,0.0,0.0,0.0,0.0,0.0,0.0,0.0,0.0,0.0,0.0,0.0,0.0,0.0,0.0,0.0,0.0,0.0,0.0,0.0,0.0,0.0,0.0,0.0,0.0,0.0,0.0,0.0,0.0,0.0,0.0,0.0,0.0,0.0,0.0,0.0,0.0,0.0,0.0,0.0,0.0,0.0,0.0,0.0,0.0,0.0,0.0,0.0,0.0,0.0,0.0,0.0,0.0,0.0,0.0,0.0,0.0,0.0,0.0,0.0,0.0,0.0,0.0,0.0,0.0,0.0,0.0,0.0,0.0,0.0,0.0,0.0,0.0,0.0,0.0,0.0,0.0,0.0,0.0,0.0,0.0,0.0,0.0,0.0,0.0,0.0,0.0,0.0,0.0,0.0,0.0,0.0,0.0,0.0,0.0,0.0,0.0,0.0,0.0,0.0,0.0,0.0,0.0,0.0,0.0,0.0,0.0,0.0,0.0,0.0,0.0,0.0,0.0,0.0,0.0,0.0,0.0,0.0,0.0,0.0,0.0,0.0,0.0,0.0,0.0,0.0,0.0,0.0,0.0,0.0,0.0,0.0,0.0,0.0,0.0,0.0,0.0,0.0,0.0,0.0,0.0,0.0,0.0,0.0,0.0,0.0,0.0,0.0,0.0,0.0,0.0,0.0,0.0,0.0,0.0,0.0,0.0,0.0,0.0,0.0,0.0,0.0,0.0,0.0,0.0,0.0,0.0,0.0,0.0,0.0,0.0,0.0,0.0,0.0,0.0,0.0,0.0,0.0,0.0,0.0,0.0,0.0,0.0,0.0,0.0,0.0,0.0,0.0,0.0,0.0,0.0,0.0,0.0,0.0,0.0,0.0,0.0,0.0,0.0,0.0,0.0,0.0,0.0,0.0,0.0,0.0,0.0,0.0,0.0,0.0,0.0,0.0,0.0,0.0,0.0,0.0,0.0,0.0,0.0,0.0,0.0,0.0,0.0,0.0,0.0,0.0,0.0,0.0,0.0,0.0,0.0,0.0,0.0,0.0,0.0,0.0,0.0,0.0,0.0,0.0,0.0,0.0,0.0,0.0,0.0,0.0,0.0,0.0,0.0,0.0,0.0,0.0,0.0,0.0,0.0,0.0,0.0,0.0,0.0,0.0,0.0,0.0,0.0,0.0,0.0,0.0,0.0,0.0,0.0,0.0,0.0,0.0,0.0,0.0,0.0,0.0,0.0,0.0,0.0,0.0,0.0,0.0,0.0,0.0,0.0,0.0,0.0,0.0,0.0,0.0,0.0,0.0,0.0,0.0,0.0,0.0,0.0,0.0,0.0,0.0,0.0,0.0,0.0,0.0,0.0,0.0,0.0,0.0,0.0,0.0,0.0,0.0,0.0,0.0,0.0,0.0,0.0,0.0,0.0,0.0,0.0,0.0,0.0,0.0,0.0,0.0,0.0,0.0,0.0,0.0,0.0,0.0,0.0,0.0,0.0,0.0,0.0,0.0,0.0,0.0,0.0,0.0,0.0,0.0,0.0,0.0,0.0,0.0,0.0,0.0,0.0,0.0,0.0,0.0,0.0,0.0,0.0,0.0,0.0,0.0,0.0,0.0,0.0,0.0,0.0,0.0,0.0,0.0,0.0,0.0,0.0,0.0,0.0,0.0,0.0,0.0,0.0,0.0,0.0,0.0,0.0,0.0,0.0,0.0,0.0,0.0,0.0,0.0,0.0,0.0,0.0,0.0,0.0,0.0,0.0,0.0,0.0,0.0,0.0,0.0,0.0,0.0,0.0,0.0,0.0,0.0,0.0,0.0,0.0,0.0,0.0,0.0,0.0,0.0,0.0,0.0,0.0,0.0,0.0,0.0,0.0,0.0,0.0,0.0,0.0,0.0,0.0,0.0,0.0,0.0,0.0,0.0,0.0,0.0,0.0,0.0,0.0,0.0,0.0,0.0,0.0,0.0,0.0,0.0,0.0,0.0,0.0,0.0,0.0,0.0,0.0,0.0,0.0,0.0,0.0,0.0,0.0,0.0,0.0,0.0,0.0,0.0,0.0,0.0,0.0,0.0,0.0,0.0,0.0,0.0,0.0,0.0,0.0,0.0,0.0,0.0,0.0,0.0,0.0,0.0,0.0,0.0,0.0,0.0,0.0,0.0,0.0,0.0,0.0,0.0,0.0,0.0,0.0,0.0,0.0,0.0,0.0,0.0,0.0,0.0,0.0,0.0,0.0,0.0,0.0,0.0,0.0,0.0,0.0,0.0,0.0,0.0,0.0,0.0,0.0,0.0,0.0,0.0,0.0,0.0,0.0,0.0,0.0,0.0,0.0,0.0,0.0,0.0,0.0,0.0,0.0,0.0,0.0,0.0,0.0,0.0,0.0,0.0,0.0,0.0,0.0,0.0,0.0,0.0,0.0,0.0,0.0,0.0,0.0,0.0,0.0,0.0,0.0,0.0,0.0,0.0,0.0,0.0,0.0,0.0,0.0,0.0,0.0,0.0,0.0,0.0,0.0,0.0,0.0,0.0,0.0,0.0,0.0,0.0,0.0,0.0,0.0,0.0,0.0,0.0,0.0,0.0,0.0,0.0,0.0,0.0,0.0,0.0,0.0,0.0,0.0,0.0,0.0,0.0,0.0,0.0,0.0,0.0,0.0,0.0,0.0,0.0,0.0,0.0,0.0,0.0,0.0,0.0,0.0,0.0,0.0,0.0,0.0,0.0,0.0,0.0,0.0,0.0,0.0,0.0,0.0,0.0,0.0,0.0,0.0,0.0,0.0,0.0,0.0,0.0,0.0,0.0,0.0,0.3058,0.0,0.0,0.0,0.0,0.0,0.0,0.0,0.0,0.0,0.0,0.0,0.0,0.0,0.0,0.0,0.0,0.0,0.0,0.0,0.0,0.0,0.0,0.0,0.0,0.0,0.0,0.0,0.0,0.0,0.0,0.0,0.0,0.0,0.0,0.0,0.0,0.0,0.0,0.0,0.0,0.0,0.0,0.0,0.0,0.0,0.0,0.0,0.0,0.0,0.0,0.0,0.0,0.0,0.0,0.0,0.0,0.0,0.0,0.0,0.0,0.0,0.0,0.0,0.0,0.0,0.0,0.0,0.0,0.0,0.0,0.0,0.0,0.0,0.0,0.0,0.0,0.0,0.0,0.0,0.0,0.0,0.0,0.0,0.0,0.0,0.0,0.0,0.0,0.0,0.0,0.0,0.0,0.0,0.0,0.0,0.0,0.0,0.0,0.0,0.0,0.0,0.0,0.0,0.0,0.0,0.0,0.0,0.0,0.0,0.0,0.3306,0.3486,0.3344,0.3235,0.3206,0.0,0.0,0.0,0.0,0.0,0.0,0.0,0.0,0.0,0.0,0.0,0.0,0.0,0.0,0.0,0.0,0.0,0.0,0.0,0.0,0.0,0.0,0.0,0.0,0.0,0.0,0.0,0.0,0.0,0.0,0.0,0.0,0.0,0.0,0.0,0.0,0.0,0.0,0.0,0.0,0.0,0.0,0.0,0.0,0.0,0.0,0.0,0.0,0.0,0.0,0.0,0.0,0.0,0.0,0.0,0.0,0.0,0.0,0.0,0.0,0.0,0.0,0.0,0.0,0.0,0.0,0.0,0.0,0.0,0.0,0.0,0.0,0.0,0.0,0.0,0.0,0.0,0.0,0.0,0.0,0.0,0.0,0.0,0.0,0.0,0.0,0.0,0.0,0.0,0.0,0.0,0.0,0.0,0.0,0.0,0.0,0.0,0.0,0.0,0.0,0.0,0.0,0.0,0.0,0.0,0.0,0.0,0.0,0.0,0.0,0.0,0.0,0.342,0.3314,0.3272,0.0,0.0,0.0,0.0,0.0,0.0,0.0,0.0,0.0,0.0,0.0,0.0,0.0,0.0,0.0,0.0,0.0,0.0,0.0,0.0,0.0,0.0,0.0,0.0,0.0,0.0,0.0,0.0,0.0,0.0,0.0,0.0,0.0,0.0,0.0,0.0,0.0,0.0,0.0,0.0,0.0,0.0,0.0,0.0,0.0,0.0,0.0,0.0,0.0,0.0,0.0,0.0,0.0,0.0,0.0,0.0,0.0,0.0,0.0,0.0,0.0,0.0,0.0,0.0,0.0,0.0,0.0,0.0,0.0,0.0,0.0,0.0,0.0,0.0,0.0,0.0,0.0,0.0,0.0,0.0,0.0,0.0,0.0,0.0,0.0,0.0,0.0,0.0,0.0,0.0,0.0,0.0,0.0,0.0,0.0,0.0,0.0,0.0,0.0,0.0,0.0,0.0,0.0,0.0,0.0,0.0,0.0,0.0,0.0,0.0,0.3398,0.3442,0.3388,0.0,0.3228,0.0,0.0,0.0,0.0,0.0,0.0,0.0,0.0,0.0,0.0,0.0,0.0,0.0,0.0,0.0,0.0,0.0,0.0,0.0,0.0,0.0,0.0,0.0,0.0,0.0,0.0,0.0,0.0,0.0,0.0,0.0,0.0,0.0,0.0,0.0,0.0,0.0,0.0,0.0,0.0,0.0,0.0,0.0,0.0,0.0,0.0,0.0,0.0,0.0,0.0,0.0,0.0,0.0,0.0,0.0,0.0,0.0,0.0,0.0,0.0,0.0,0.0,0.0,0.0,0.0,0.0,0.0,0.0,0.0,0.0,0.0,0.0,0.0,0.0,0.0,0.0,0.0,0.0,0.0,0.0,0.0,0.0,0.0,0.0,0.0,0.0,0.0,0.0,0.0,0.0,0.0,0.0,0.0,0.0,0.0,0.0,0.0,0.0,0.0,0.0,0.0,0.0,0.0,0.0,0.0,0.0,0.0,0.0,0.0,0.0,0.3431,0.3527,0.3527,0.3394,0.0,0.0,0.0,0.0,0.0,0.0,0.0,0.0,0.0,0.0,0.0,0.0,0.0,0.0,0.0,0.0,0.0,0.0,0.0,0.0,0.0,0.0,0.0,0.0,0.0,0.0,0.0,0.0,0.0,0.0,0.0,0.0,0.0,0.0,0.0,0.0,0.0,0.0,0.0,0.0,0.0,0.0,0.0,0.0,0.0,0.0,0.0,0.0,0.0,0.0,0.0,0.0,0.0,0.0,0.0,0.0,0.0,0.0,0.0,0.0,0.0,0.0,0.0,0.0,0.0,0.0,0.0,0.0,0.0,0.0,0.0,0.0,0.0,0.0,0.0,0.0,0.0,0.0,0.0,0.0,0.0,0.0,0.0,0.0,0.0,0.0,0.0,0.0,0.0,0.0,0.0,0.0,0.0,0.0,0.0,0.0,0.0,0.0,0.0,0.0,0.0,0.0,0.0,0.0,0.0,0.0,0.0,0.0,0.0,0.0,0.2995,0.3271,0.3413,0.3497,0.3389,0.3081,0.0,0.0,0.0,0.0,0.0,0.0,0.0,0.0,0.0,0.0,0.0,0.0,0.0,0.0,0.0,0.0,0.0,0.0,0.0,0.0,0.0,0.0,0.0,0.0,0.0,0.0,0.0,0.0,0.0,0.0,0.0,0.0,0.0,0.0,0.0,0.0,0.0,0.0,0.0,0.0,0.0,0.0,0.0,0.0,0.0,0.0,0.0,0.0,0.0,0.0,0.0,0.0,0.0,0.0,0.0,0.0,0.0,0.0,0.0,0.0,0.0,0.0,0.0,0.0,0.0,0.0,0.0,0.0,0.0,0.0,0.0,0.0,0.0,0.0,0.0,0.0,0.0,0.0,0.0,0.0,0.0,0.0,0.0,0.0,0.0,0.0,0.0,0.0,0.0,0.0,0.0,0.0,0.0,0.0,0.0,0.0,0.0,0.0,0.0,0.0,0.0,0.0,0.0,0.0,0.0,0.0,0.0,0.0,0.1973,0.2469,0.2829,0.3054,0.3306,0.3206,0.0,0.0,0.0,0.0,0.0,0.0,0.0,0.0,0.0,0.0,0.0,0.0,0.0,0.0,0.0,0.0,0.0,0.0,0.0,0.0,0.0,0.0,0.0,0.0,0.0,0.0,0.0,0.0,0.0,0.0,0.0,0.0,0.0,0.0,0.0,0.0,0.0,0.0,0.0,0.0,0.0,0.0,0.0,0.0,0.0,0.0,0.0,0.0,0.0,0.0,0.0,0.0,0.0,0.0,0.0,0.0,0.0,0.0,0.0,0.0,0.0,0.0,0.0,0.0,0.0,0.0,0.0,0.0,0.0,0.0,0.0,0.0,0.0,0.0,0.0,0.0,0.0,0.0,0.0,0.0,0.0,0.0,0.0,0.0,0.0,0.0,0.0,0.0,0.0,0.0,0.0,0.0,0.0,0.0,0.0,0.0,0.0,0.0,0.0,0.0,0.0,0.0,0.0,0.0,0.0,0.0,0.0,0.0,0.0,0.1855,0.267,0.3202,0.3375,0.3491,0.3342,0.0,0.0,0.0,0.0,0.0,0.0,0.0,0.0,0.0,0.0,0.0,0.0,0.0,0.0,0.0,0.0,0.0,0.0,0.0,0.0,0.0,0.0,0.0,0.0,0.0,0.0,0.0,0.0,0.0,0.0,0.0,0.0,0.0,0.0,0.0,0.0,0.0,0.0,0.0,0.0,0.0,0.0,0.0,0.0,0.0,0.0,0.0,0.0,0.0,0.0,0.0,0.0,0.0,0.0,0.0,0.0,0.0,0.0,0.0,0.0,0.0,0.0,0.0,0.0,0.0,0.0,0.0,0.0,0.0,0.0,0.0,0.0,0.0,0.0,0.0,0.0,0.0,0.0,0.0,0.0,0.0,0.0,0.0,0.0,0.0,0.0,0.0,0.0,0.0,0.0,0.0,0.0,0.0,0.0,0.0,0.0,0.0,0.0,0.0,0.0,0.0,0.0,0.0,0.0,0.0,0.0,0.0,0.0,0.0,0.1884,0.0,0.3363,0.3455,0.361,0.3409,0.0,0.0,0.0,0.0,0.0,0.0,0.0,0.0,0.0,0.0,0.0,0.0,0.0,0.0,0.0,0.0,0.0,0.0,0.0,0.0,0.0,0.0,0.0,0.0,0.0,0.0,0.0,0.0,0.0,0.0,0.0,0.0,0.0,0.0,0.0,0.0,0.0,0.0,0.0,0.0,0.0,0.0,0.0,0.0,0.0,0.0,0.0,0.0,0.0,0.0,0.0,0.0,0.0,0.0,0.0,0.0,0.0,0.0,0.0,0.0,0.0,0.0,0.0,0.0,0.0,0.0,0.0,0.0,0.0,0.0,0.0,0.0,0.0,0.0,0.0,0.0,0.0,0.0,0.0,0.0,0.0,0.0,0.0,0.0,0.0,0.0,0.0,0.0,0.0,0.0,0.0,0.0,0.0,0.0,0.0,0.0,0.0,0.0,0.0,0.0,0.0,0.0,0.0,0.0,0.0,0.0,0.0,0.0,0.1054,0.2085,0.2911,0.3323,0.3197,0.3599,0.3506,0.0,0.0,0.0,0.0,0.0,0.0,0.0,0.0,0.0,0.0,0.0,0.0,0.0,0.0,0.0,0.0,0.0,0.0,0.0,0.0,0.0,0.0,0.0,0.0,0.0,0.0,0.0,0.0,0.0,0.0,0.0,0.0,0.0,0.0,0.0,0.0,0.0,0.0,0.0,0.0,0.0,0.0,0.0,0.0,0.0,0.0,0.0,0.0,0.0,0.0,0.0,0.0,0.0,0.0,0.0,0.0,0.0,0.0,0.0,0.0,0.0,0.0,0.0,0.0,0.0,0.0,0.0,0.0,0.0,0.0,0.0,0.0,0.0,0.0,0.0,0.0,0.0,0.0,0.0,0.0,0.0,0.0,0.0,0.0,0.0,0.0,0.0,0.0,0.0,0.0,0.0,0.0,0.0,0.0,0.0,0.0,0.0,0.0,0.0,0.0,0.0,0.0,0.0,0.0,0.0,0.0,0.0,0.0,0.0,0.256,0.3319,0.3835,0.4089,0.4198,0.4069,0.0,0.0,0.0,0.0,0.0,0.0,0.0,0.0,0.0,0.0,0.0,0.0,0.0,0.0,0.0,0.0,0.0,0.0,0.0,0.0,0.0,0.0,0.0,0.0,0.0,0.0,0.0,0.0,0.0,0.0,0.0,0.0,0.0,0.0,0.0,0.0,0.0,0.0,0.0,0.0,0.0,0.0,0.0,0.0,0.0,0.0,0.0,0.0,0.0,0.0,0.0,0.0,0.0,0.0,0.0,0.0,0.0,0.0,0.0,0.0,0.0,0.0,0.0,0.0,0.0,0.0,0.0,0.0,0.0,0.0,0.0,0.0,0.0,0.0,0.0,0.0,0.0,0.0,0.0,0.0,0.0,0.0,0.0,0.0,0.0,0.0,0.0,0.0,0.0,0.0,0.0,0.0,0.0,0.0,0.0,0.0,0.0,0.0,0.0,0.0,0.0,0.0,0.0,0.0,0.0,0.0,0.0,0.0,0.0,0.3477,0.3868,0.4336,0.4827,0.4751,0.4576,0.4172,0.0,0.0,0.0,0.0,0.0,0.0,0.0,0.0,0.0,0.0,0.0,0.0,0.0,0.0,0.0,0.0,0.0,0.0,0.0,0.0,0.0,0.0,0.0,0.0,0.0,0.0,0.0,0.0,0.0,0.0,0.0,0.0,0.0,0.0,0.0,0.0,0.0,0.0,0.0,0.0,0.0,0.0,0.0,0.0,0.0,0.0,0.0,0.0,0.0,0.0,0.0,0.0,0.0,0.0,0.0,0.0,0.0,0.0,0.0,0.0,0.0,0.0,0.0,0.0,0.0,0.0,0.0,0.0,0.0,0.0,0.0,0.0,0.0,0.0,0.0,0.0,0.0,0.0,0.0,0.0,0.0,0.0,0.0,0.0,0.0,0.0,0.0,0.0,0.0,0.0,0.0,0.0,0.0,0.0,0.0,0.0,0.0,0.0,0.0,0.0,0.0,0.0,0.0,0.0,0.0,0.0,0.0,0.0,0.466,0.4513,0.4822,0.5485,0.5303,0.505,0.0,0.0,0.0,0.0,0.0,0.0,0.0,0.0,0.0,0.0,0.0,0.0,0.0,0.0,0.0,0.0,0.0,0.0,0.0,0.0,0.0,0.0,0.0,0.0,0.0,0.0,0.0,0.0,0.0,0.0,0.0,0.0,0.0,0.0,0.0,0.0,0.0,0.0,0.0,0.0,0.0,0.0,0.0,0.0,0.0,0.0,0.0,0.0,0.0,0.0,0.0,0.0,0.0,0.0,0.0,0.0,0.0,0.0,0.0,0.0,0.0,0.0,0.0,0.0,0.0,0.0,0.0,0.0,0.0,0.0,0.0,0.0,0.0,0.0,0.0,0.0,0.0,0.0,0.0,0.0,0.0,0.0,0.0,0.0,0.0,0.0,0.0,0.0,0.0,0.0,0.0,0.0,0.0,0.0,0.0,0.0,0.0,0.0,0.0,0.0,0.0,0.0,0.0,0.0,0.0,0.0,0.0,0.0,0.0,0.5464,0.5695,0.6183,0.6883,0.6584,0.635,0.0,0.0,0.0,0.0,0.0,0.0,0.0,0.0,0.0,0.0,0.0,0.0,0.0,0.0,0.0,0.0,0.0,0.0,0.0,0.0,0.0,0.0,0.0,0.0,0.0,0.0,0.0,0.0,0.0,0.0,0.0,0.0,0.0,0.0,0.0,0.0,0.0,0.0,0.0,0.0,0.0,0.0,0.0,0.0,0.0,0.0,0.0,0.0,0.0,0.0,0.0,0.0,0.0,0.0,0.0,0.0,0.0,0.0,0.0,0.0,0.0,0.0,0.0,0.0,0.0,0.0,0.0,0.0,0.0,0.0,0.0,0.0,0.0,0.0,0.0,0.0,0.0,0.0,0.0,0.0,0.0,0.0,0.0,0.0,0.0,0.0,0.0,0.0,0.0,0.0,0.0,0.0,0.0,0.0,0.0,0.0,0.0,0.0,0.0,0.0,0.0,0.0,0.0,0.0,0.0,0.0,0.0,0.0,0.5303,0.6026,0.66,0.7517,0.8709,0.7623,0.725,0.0,0.0,0.0,0.0,0.0,0.0,0.0,0.0,0.0,0.0,0.0,0.0,0.0,0.0,0.0,0.0,0.0,0.0,0.0,0.0,0.0,0.0,0.0,0.0,0.0,0.0,0.0,0.0,0.0,0.0,0.0,0.0,0.0,0.0,0.0,0.0,0.0,0.0,0.0,0.0,0.0,0.0,0.0,0.0,0.0,0.0,0.0,0.0,0.0,0.0,0.0,0.0,0.0,0.0,0.0,0.0,0.0,0.0,0.0,0.0,0.0,0.0,0.0,0.0,0.0,0.0,0.0,0.0,0.0,0.0,0.0,0.0,0.0,0.0,0.0,0.0,0.0,0.0,0.0,0.0,0.0,0.0,0.0,0.0,0.0,0.0,0.0,0.0,0.0,0.0,0.0,0.0,0.0,0.0,0.0,0.0,0.0,0.0,0.0,0.0,0.0,0.0,0.0,0.0,0.0,0.0,0.0,0.0,0.6193,0.6646,0.7316,0.8586,1.0537,0.8779,0.7934,0.0,0.0,0.0,0.0,0.0,0.0,0.0,0.0,0.0,0.0,0.0,0.0,0.0,0.0,0.0,0.0,0.0,0.0,0.0,0.0,0.0,0.0,0.0,0.0,0.0,0.0,0.0,0.0,0.0,0.0,0.0,0.0,0.0,0.0,0.0,0.0,0.0,0.0,0.0,0.0,0.0,0.0,0.0,0.0,0.0,0.0,0.0,0.0,0.0,0.0,0.0,0.0,0.0,0.0,0.0,0.0,0.0,0.0,0.0,0.0,0.0,0.0,0.0,0.0,0.0,0.0,0.0,0.0,0.0,0.0,0.0,0.0,0.0,0.0,0.0,0.0,0.0,0.0,0.0,0.0,0.0,0.0,0.0,0.0,0.0,0.0,0.0,0.0,0.0,0.0,0.0,0.0,0.0,0.0,0.0,0.0,0.0,0.0,0.0,0.0,0.0,0.0,0.0,0.0,0.0,0.0,0.0,0.0,0.7111,0.8488,0.8066,0.9333,1.2682,1.0233,0.9165,0.0,0.0,0.0,0.0,0.0,0.0,0.0,0.0,0.0,0.0,0.0,0.0,0.0,0.0,0.0,0.0,0.0,0.0,0.0,0.0,0.0,0.0,0.0,0.0,0.0,0.0,0.0,0.0,0.0,0.0,0.0,0.0,0.0,0.0,0.0,0.0,0.0,0.0,0.0,0.0,0.0,0.0,0.0,0.0,0.0,0.0,0.0,0.0,-0.1123,0.0,0.0,0.0,0.0,0.0,0.0,0.0,0.0,0.0,0.0,0.0,0.0,0.0,0.0,0.0,0.0,0.0,0.0,0.0,0.0,0.0,0.0,0.0,0.0,0.0,0.0,0.0,0.0,0.0,0.0,0.0,0.0,0.0,0.0,0.0,0.0,0.0,0.0,0.0,0.0,0.0,0.0,0.0,0.0,0.0,0.0,0.0,0.0,0.0,0.0,0.0,0.0,0.0,0.0,0.0,0.0,0.0,0.0,0.0,0.8431,0.9967,0.984,1.0943,1.3182,1.1712,1.0732,0.0,0.0,0.0,0.0,0.0,0.0,0.0,0.0,0.0,0.0,0.0,0.0,0.0,0.0,0.0,0.0,0.0,0.0,0.0,0.0,0.0,0.0,0.0,0.0,0.0,0.0,0.0,0.0,0.0,0.0,0.0,0.0,0.0,0.0,0.0,0.0,0.0,0.0,0.0,0.0,0.0,0.0,0.0,0.0,0.0,0.0,0.0,0.0,0.0,0.0,0.0,0.0,0.0,0.0,0.0,0.0,0.0,0.0,0.0,0.0,0.0,0.0,0.0,0.0,0.0,0.0,0.0,0.0,0.0,0.0,0.0,0.0,0.0,0.0,0.0,0.0,0.0,0.0,0.0,0.0,0.0,0.0,0.0,0.0,0.0,0.0,0.0,0.0,0.0,0.0,0.0,0.0,0.0,0.0,0.0,0.0,0.0,0.0,0.0,0.0,0.0,0.0,0.0,0.0,0.0,0.0,0.0,0.8444,0.9836,1.1394,1.1731,1.2528,1.3737,1.3015,1.2189,1.1335,0.0,0.0,0.0,0.0,0.0,0.0,0.0,0.0,0.0,0.0,0.0,0.0,0.0,0.0,0.0,0.0,0.0,0.0,0.0,0.0,0.0,0.0,0.0,0.0,0.0,0.0,0.0,0.0,0.0,0.0,0.0,0.0,0.0,0.0,0.0,0.0,0.0,0.0,-0.3873,-0.2794,0.0,0.0,0.0,0.0,0.0,0.0,0.0,0.0,-0.0,0.0,0.0,0.0,0.0,0.0,0.0,0.0,0.0,0.0,0.0,0.0,0.0,0.0,0.0,0.0,0.0,0.0,0.0,0.0,0.0,0.0,0.0,0.0,0.0,0.0,0.0,0.0,0.0,0.0,0.0,0.0,0.0,0.0,0.0,0.0,0.0,0.0,0.0,0.0,0.0,0.0,0.0,0.0,0.0,0.0,0.0,0.0,0.0,0.0,0.0,0.0,0.0,0.0,0.0,0.0,0.0,0.7983,0.9035,1.0738,1.3171,1.2369,1.2995,1.5253,1.3568,1.235,1.1916,0.0,0.0,0.0,0.0,0.0,0.0,0.0,0.0,0.0,0.0,0.0,0.0,0.0,0.0,0.0,0.0,0.0,0.0,0.0,0.0,0.0,0.0,0.0,0.0,0.0,0.0,0.0,0.0,0.0,0.0,0.0,0.0,0.0,0.0,0.0,0.0,0.0,0.0,0.0,-0.2282,-0.1594,0.0,0.0,0.0,0.0,0.0,0.0,0.0,0.0,0.1098,0.0,0.0,0.0,0.0,0.0,0.0,0.0,0.0,0.0,0.0,0.0,0.0,0.0,0.0,0.0,0.0,0.0,0.0,0.0,0.0,0.0,0.0,0.0,0.0,0.0,0.0,0.0,0.0,0.0,0.0,0.0,0.0,0.0,0.0,0.0,0.0,0.0,0.0,0.0,0.0,0.0,0.0,0.0,0.0,0.0,0.0,0.0,0.0,0.0,0.0,0.0,0.0,0.0,0.0,0.0,0.9088,1.0806,1.2715,1.4728,1.4443,1.4783,1.5936,1.4411,1.3213,0.0,0.0,0.0,0.0,0.0,0.0,0.0,0.0,0.0,0.0,0.0,0.0,0.0,0.0,0.0,0.0,0.0,0.0,0.0,0.0,0.0,0.0,0.0,0.0,0.0,0.0,0.0,0.0,0.0,0.0,0.0,0.0,0.0,0.0,0.0,0.0,0.0,0.0,0.0,0.0,-0.3289,-0.2617,-0.1805,0.0,0.0,0.0,0.0,0.0,0.0,0.2301,0.2014,0.0,0.0,0.0,0.0,0.0,0.0,0.0,0.0,0.0,0.0,0.0,0.0,0.0,0.0,0.0,0.0,0.0,0.0,0.0,0.0,0.0,0.0,0.0,0.0,0.0,0.0,0.0,0.0,0.0,0.0,0.0,0.0,0.0,0.0,0.0,0.0,0.0,0.0,0.0,0.0,0.0,0.0,0.0,0.0,0.0,0.0,0.0,0.0,0.0,0.0,0.0,0.0,0.0,0.0,0.0,1.0126,1.248,1.4391,1.5879,1.6092,1.6213,1.6246,1.5017,1.3814,0.0,0.0,0.0,0.0,0.0,0.0,0.0,0.0,0.0,0.0,0.0,0.0,0.0,0.0,0.0,0.0,0.0,0.0,0.0,0.0,0.0,0.0,0.0,0.0,0.0,0.0,0.0,0.0,0.0,0.0,0.0,0.0,0.0,0.0,0.0,0.0,0.0,0.0,0.0,0.0,0.0,-0.3413,-0.1584,-0.108,0.0,0.0,0.0,0.0,0.3028,0.3451,0.0,0.0,0.0,0.0,0.0,0.0,0.0,0.0,0.0,0.0,0.0,0.0,0.0,0.0,0.0,0.0,0.0,0.0,0.0,0.0,0.0,0.0,0.0,0.0,0.0,0.0,0.0,0.0,0.0,0.0,0.0,0.0,0.0,0.0,0.0,0.0,0.0,0.0,0.0,0.0,0.0,0.0,0.0,0.0,0.0,0.0,0.0,0.0,0.0,0.0,0.0,0.0,0.0,0.0,0.0,0.0,1.0929,1.3022,1.4785,1.6159,1.5999,1.6005,1.6246,1.4629,1.3307,0.0,0.0,0.0,0.0,0.0,0.0,0.0,0.0,0.0,0.0,0.0,0.0,0.0,0.0,0.0,0.0,0.0,0.0,0.0,0.0,0.0,0.0,0.0,0.0,0.0,0.0,0.0,0.0,0.0,0.0,0.0,0.0,0.0,0.0,0.0,0.0,0.0,0.0,0.0,0.0,0.0,-0.25,-0.2143,-0.1475,-0.061,0.0,0.0,0.096,0.3675,0.4593,0.0,0.0,0.0,0.0,0.0,0.0,0.0,0.0,0.0,0.0,0.0,0.0,0.0,0.0,0.0,0.0,0.0,0.0,0.0,0.0,0.0,0.0,0.0,0.0,0.0,0.0,0.0,0.0,0.0,0.0,0.0,0.0,0.0,0.0,0.0,0.0,0.0,0.0,0.0,0.0,0.0,0.0,0.0,0.0,0.0,0.0,0.0,0.0,0.0,0.0,0.0,0.0,0.0,0.0,0.0,0.9547,1.1406,1.397,1.586,1.674,1.664,1.656,1.6513,1.4977,1.3561,0.0,0.0,0.0,0.0,0.0,0.0,0.0,0.0,0.0,0.0,0.0,0.0,0.0,0.0,0.0,0.0,0.0,0.0,0.0,0.0,0.0,0.0,0.0,0.0,0.0,0.0,0.0,0.0,0.0,0.0,0.0,0.0,0.0,0.0,0.0,0.0,0.0,0.0,0.0,0.0,0.0,0.0,-0.2738,-0.0656,0.0,0.0,0.0,0.2743,0.4046,0.0,0.0,0.0,0.0,0.0,0.0,0.0,0.0,0.0,0.0,0.0,0.0,0.0,0.0,0.0,0.0,0.0,0.0,0.0,0.0,0.0,0.0,0.0,0.0,0.0,0.0,0.0,0.0,0.0,0.0,0.0,0.0,0.0,0.0,0.0,0.0,0.0,0.0,0.0,0.0,0.0,0.0,0.0,0.0,0.0,0.0,0.0,0.0,0.0,0.0,0.0,0.0,0.0,0.0,0.0,0.0,0.0,1.1751,1.4701,1.6553,1.7121,1.7074,1.6927,1.6693,1.5291,0.0,0.0,0.0,0.0,0.0,0.0,0.0,0.0,0.0,0.0,0.0,0.0,0.0,0.0,0.0,0.0,0.0,0.0,0.0,0.0,0.0,0.0,0.0,0.0,0.0,0.0,0.0,0.0114,0.0,0.0,0.0,0.0,0.0,0.0,0.0,0.0,0.0,0.0,0.0,0.0,0.0,0.0,-0.1299,-0.1646,0.0708,0.2608,0.0,0.0,0.4472,0.4598,0.5367,0.5428,0.0,0.0,0.0,0.0,0.0,0.0,0.0,0.0,0.0,0.0,0.0,0.0,0.0,0.0,0.0,0.0,0.0,0.0,0.0,0.0,0.0,0.0,0.0,0.0,0.0,0.0,0.0,0.0,0.0,0.0,0.0,0.0,0.0,0.0,0.0,0.0,0.0,0.0,0.0,0.0,0.0,0.0,0.0,0.0,0.0,0.0,0.0,0.0,0.0,0.0,0.0,0.0,0.0,0.0,1.0574,1.2099,1.4896,1.656,1.7217,1.6881,1.6727,1.668,1.5284,1.3828,0.0,0.0,0.0,0.0,0.0,0.0,0.0,0.0,0.0,0.0,0.0,0.0,0.0,0.0,0.0,0.0,0.0,0.0,0.0,0.0,0.0,0.0,0.0,0.0,0.0,0.0,0.0,0.0,0.0,0.0,0.0,0.0,0.0,0.0,0.0,0.0,0.0,0.0,0.0,0.0,0.0,0.1957,0.2417,0.2343,0.3004,0.0,0.5349,0.5307,0.551,0.6492,0.6573,0.4472,0.0,0.0,0.0,0.0,0.0,0.0,0.0,0.0,0.0,0.0,0.0,0.0,0.0,0.0,0.0,0.0,0.0,0.0,0.0,0.0,0.0,0.0,0.0,0.0,0.0,0.0,0.0,0.0,0.0,0.0,0.0,0.0,0.0,0.0,0.0,0.0,0.0,0.0,0.0,0.0,0.0,0.0,0.0,0.0,0.0,0.0,0.0,0.0,0.0,0.0,0.0,0.0,0.0,1.076,1.2542,1.5168,1.682,1.7388,1.7301,1.7074,1.6714,1.5638,1.4282,0.0,0.0,0.0,0.0,0.0,0.0,0.0,0.0,0.0,0.0,0.0,0.0,0.0,0.0,0.0,0.0,0.0,0.0,0.0,0.0,0.0,0.0,0.0,0.0,0.0,0.0,0.0,0.0,0.2047,0.1959,0.1829,0.0,0.0,0.0,0.0,0.0,0.0,0.0,0.0,0.0,0.0,0.3526,0.5776,0.5122,0.0,0.0,0.5773,0.5681,0.5552,0.6169,0.5969,0.4266,0.4039,0.0,0.0,0.0,0.0,0.0,0.0,0.0,0.0,0.0,0.0,0.0,0.0,0.0,0.0,0.0,0.0,0.0,0.0,0.0,0.0,0.0,0.0,0.0,0.0,0.0,0.0,0.0,0.0,0.0,0.0,0.0,0.0,0.0,0.0,0.0,0.0,0.0,0.0,0.0,0.0,0.0,0.0,0.0,0.0,0.0,0.0,0.0,0.0,0.0,0.0,0.0,0.0,1.0962,1.2869,1.5425,1.6994,1.7575,1.7589,1.7301,1.6714,1.6019,1.4823,0.0,0.0,0.0,0.0,0.0,0.0,0.0,0.0,0.0,0.0,0.0,0.0,0.0,0.0,0.0,0.0,0.0,0.0,0.0,0.0,0.0,0.0,0.0,0.0,0.0,0.0,0.0,0.0,0.2445,0.2155,0.1886,0.0,0.0,0.0,0.0,0.0,0.0,0.0,0.0,0.0,0.0,0.5009,0.7538,0.6894,0.6294,0.6385,0.6266,0.6135,0.592,0.6072,0.5744,0.4294,0.0,0.0,0.0,0.0,0.0,0.0,0.0,0.0,0.0,0.0,0.0,0.0,0.0,0.0,0.0,0.0,0.0,0.0,0.0,0.0,0.0,0.0,0.0,0.0,0.0,0.0,0.0,0.6533,0.0,0.0,0.5458,0.0,0.0,0.0,0.0,0.0,0.0,0.0,0.0,0.0,0.0,0.0,0.0,0.0,0.0,0.0,0.0,0.0,0.0,0.0,0.0,0.0,0.0,1.126,1.3033,1.5432,1.6994,1.7562,1.7589,1.7308,1.6734,1.6406,1.5418,1.3654,0.0,0.0,0.0,0.0,0.0,0.0,0.0,0.0,0.0,0.0,0.0,0.0,0.0,0.0,0.0,0.0,0.0,0.0,0.0,0.0,0.0,0.0,0.0,0.0,0.0,0.0,0.2168,0.2411,0.2533,0.0,0.0,0.0,0.0,0.0,0.0,0.0,0.0,0.0,0.0,0.5778,0.6621,0.7576,0.7224,0.7014,0.749,0.7082,0.6672,0.671,0.6596,0.6114,0.0,0.0,0.0,0.0,0.0,0.0,0.0,0.0,0.0,0.0,0.0,0.0,0.0,0.0,0.0,0.0,0.0,0.0,0.0,0.0,0.0,0.0,0.0,0.0,0.0,0.0,0.0,0.8949,0.7815,0.0,0.0,0.0,0.0,0.0,0.0,0.0,0.0,0.0,0.0,0.0,1.2908,1.3925,0.0,0.0,0.0,0.0,0.0,0.0,0.0,0.0,0.0,0.0,0.0,0.0,1.1849,1.3485,1.5809,1.7188,1.7569,1.7589,1.7395,1.7007,1.6526,1.5351,1.3414,0.0,0.0,0.0,0.0,0.0,0.0,0.0,0.0,0.0,0.0,0.0,0.0,0.0,0.0,0.0,0.0,0.0,0.0,0.0,0.0,0.0,0.0,0.0,0.0,0.0,0.308,0.0,0.0,0.0,0.0,0.0,0.0,0.0,0.0,0.0,0.0,0.0,0.4225,0.5244,0.5742,0.6385,0.7502,0.7473,0.7409,0.0,0.0,0.0,0.0,0.0,0.0,0.0,0.0,0.0,0.0,0.0,0.0,0.0,0.0,0.073,0.0136,0.0,0.0,0.0,0.0,0.0,0.0,0.0,0.0,0.0,0.0,0.0,0.0,0.0,0.0,0.0,0.0,0.0,1.1042,0.0,0.8971,0.0,0.0,0.0,0.0,0.0,0.0,0.0,0.0,1.2887,1.4417,1.5673,1.6645,1.7133,0.0,1.576,1.3541,0.0,0.0,0.0,0.0,0.0,0.0,0.0,0.0,1.2473,1.4039,1.611,1.7288,1.7569,1.7589,1.7442,1.7148,1.648,1.5391,1.3874,1.2866,1.1817,0.0,0.0,0.0,0.0,0.0,0.0,0.0,0.0,0.0,0.0,0.0,0.0,0.0,0.0,0.0,0.0,0.0,0.0,0.0,0.0,0.0,0.0,0.0,0.3809,0.0,0.0,0.0,0.0,0.0,0.0,0.0,0.0,0.0,0.2374,0.3728,0.5069,0.5773,0.6282,0.6855,0.756,0.0,0.0,0.0,0.0,0.0,0.0,0.0,0.6019,0.5042,0.4297,0.3886,0.4176,0.4815,0.4706,0.3093,0.0,0.0,0.0234,0.0,0.0,0.0,0.0,-0.0075,-0.0375,-0.0382,-0.0236,0.0,0.0,0.0,0.0,0.0,0.0,0.0,0.0,1.2874,1.2702,0.0,1.0442,0.0,0.0,0.0,0.0,0.0,1.071,0.0,0.0,1.5188,1.6951,1.8997,1.8735,1.8708,1.9142,1.8497,1.7073,1.4836,1.1539,0.0,0.0,0.0,0.0,0.0,0.0,1.3209,1.4733,1.6341,1.7301,1.7575,1.7589,1.7442,1.725,1.6319,1.5598,1.4983,1.4455,1.3838,1.3193,1.0506,0.0,0.0,0.0,0.0,0.0,0.0,0.0,0.0,0.0,0.0,0.0,0.0,0.0,0.0,0.0,0.0,0.0,0.0,0.0,0.0,0.4116,0.0,0.0,0.0,0.0,0.0,0.0,0.0,0.0,0.0,0.0,0.4591,0.5527,0.6256,0.6711,0.0,0.0,0.0,0.0,0.777,0.7638,0.7621,0.7476,0.7145,0.705,0.6907,0.6593,0.0,0.0,0.6394,0.5831,0.5432,0.5548,0.4338,0.2603,0.0777,0.0,0.0,0.0,0.0,0.0,0.0,0.0,0.0,1.8822,0.0,0.0,0.0,0.0,1.3871,1.4336,1.588,1.7453,1.7142,1.5463,1.4927,0.0,0.0,0.0,0.0,0.0,0.0,1.4683,1.567,1.8459,2.0355,2.1282,2.2208,2.2704,2.2765,2.1577,2.0158,1.8562,1.6224,1.3543,1.0345,0.0,0.0,0.0,0.0,1.4379,1.5593,1.6826,1.7495,1.7582,1.7589,1.7442,1.7161,1.67,1.6179,1.5598,1.5375,1.4852,1.3867,1.2629,0.0,0.0,0.0,0.0,0.0,0.0,0.0,0.0,0.0,0.0,0.0,0.0,0.0,0.0,0.0,0.0,0.0,0.0,0.0,0.4647,0.4806,0.4735,0.0,0.0,0.0,0.0,0.0,0.0,0.0,0.0,0.0,0.6307,0.6615,0.6944,0.0,0.0,0.7515,0.7668,0.7838,0.796,0.7919,0.8007,0.0,0.7713,0.7563,0.7318,0.6985,0.6778,0.6899,0.7198,0.7313,0.7472,0.766,0.7349,0.6757,0.6029,0.2673,0.0,0.0,0.0,0.0,0.0,0.0,0.0,2.2141,2.0188,1.8687,1.8015,1.7952,1.7761,1.7993,1.871,2.003,1.9713,1.8396,1.7985,1.6993,1.5746,1.6163,0.0,0.0,0.0,1.7582,1.8596,2.0781,2.2203,2.3091,2.4011,2.4424,2.4404,2.3499,2.2437,2.1088,1.9293,1.685,1.3642,0.0,0.0,1.3059,1.4421,1.5536,1.6445,1.7437,1.7876,1.7649,1.7642,1.7448,1.7264,1.6981,1.6613,1.6032,1.5839,1.5465,1.481,1.3999,1.2629,0.0,0.0,0.0,0.0,0.0,0.0,0.0,0.0,0.0,0.0,0.0,0.3663,0.331,0.0,0.0,0.0,0.4484,0.4999,0.5532,0.5471,0.0,0.0,0.0,0.0,0.0,0.0,0.0,0.5143,0.6022,0.6863,0.7311,0.7518,0.7627,0.7935,0.7799,0.775,0.795,0.0,0.8214,0.8214,0.8296,0.8353,0.814,0.812,0.8001,0.7692,0.7795,0.7917,0.8004,0.8233,0.8503,0.8635,0.8638,0.8601,0.8611,0.5665,0.2981,0.1988,0.179,0.1394,0.0299,0.0,0.0,2.456,2.4283,2.1945,2.0712,2.0439,2.1137,2.1034,2.0292,2.1159,2.1076,2.0342,2.0034,1.9817,1.9742,1.9029,0.0,1.9557,1.9583,2.0616,2.2309,2.2428,2.3204,2.4512,2.4531,2.4521,2.4531,2.4521,2.3851,2.2686,2.0985,1.9429,1.8006,1.5812,1.4903,1.5137,1.5952,1.668,1.716,1.8074,1.8214,1.7685,1.7649,1.7475,1.7188,1.7114,1.6834,1.6333,1.5979,1.5765,1.5812,1.4685,1.3797,1.3136,0.0,0.0,0.0,0.0,0.0,0.0,0.0,0.0,0.0,0.0,0.0,0.0,0.0,0.0,0.0,0.5277,0.0,0.6257,0.6051,0.0,0.0,0.0,0.5504,0.5608,0.5901,0.6142,0.656,0.0,0.0,0.7952,0.8196,0.8357,0.8499,0.8496,0.8482,0.8482,0.8479,0.8499,0.8492,0.8509,0.852,0.8537,0.8625,0.8693,0.8565,0.8713,0.8689,0.8689,0.8693,0.8764,0.8893,0.8821,0.873,0.873,0.8401,0.7793,0.5318,0.4878,0.4026,0.0,0.0,0.0,2.5723,2.5295,2.4697,2.4009,2.34,2.353,2.3496,2.3341,2.3597,2.3549,2.3381,2.2967,2.2729,2.2627,2.0783,2.0642,2.1868,2.2173,2.2555,2.3131,2.4335,2.5035,2.542,2.542,2.543,2.542,2.542,2.4716,2.3403,2.2008,2.0624,1.9171,1.7798,1.6901,1.6339,1.6941,1.7595,1.8147,1.841,1.8337,1.7935,1.7862,1.7789,1.7482,1.6834,1.652,1.658,1.6103,1.5855,1.5803,1.4704,1.3796,1.3188,1.1122,0.0,0.0,0.0,0.0,0.0,0.0,0.0,0.0,0.0,0.4189,0.3961,0.0,0.4711,0.0,0.562,0.6237,0.6563,0.6634,0.0,0.0,0.6531,0.656,0.6734,0.7028,0.7311,0.7375,0.7834,0.8287,0.8474,0.8604,0.8659,0.8801,0.8628,0.8482,0.8482,0.8587,0.8655,0.8665,0.8747,0.8828,0.8821,0.8855,0.8845,0.873,0.8713,0.8713,0.8713,0.8713,0.876,0.8899,0.8913,0.8886,0.8879,0.8855,0.8613,0.8044,0.7806,0.7681,0.6823,0.4996,0.276,2.6523,2.6309,2.6299,2.6025,2.5537,2.4961,2.4824,2.5,2.5,2.5,2.499,2.4756,2.4658,2.4555,2.3287,2.3217,2.3944,2.4265,2.4369,2.4388,2.5324,2.5732,2.5732,2.5732,2.5625,2.5449,2.5644,2.5323,2.451,2.2667,2.1509,2.0895,1.9104,1.8063,1.7722,1.8016,1.841,1.8871,1.8877,1.8729,1.8437,1.8183,1.7836,1.7395,1.6667,1.6159,1.5932,1.607,1.5873,1.5321,1.4568,1.3619,1.2599,1.1339,1.0036,0.0,0.0,0.0,0.0,0.0,0.0,0.0,0.0,0.0,0.0,0.0,0.5521,0.5786,0.6386,0.6851,0.7078,0.7177,0.7251,0.7316,0.7362,0.7416,0.7654,0.7902,0.8127,0.8127,0.8434,0.8716,0.8801,0.8815,0.8842,0.8927,0.8794,0.8686,0.8689,0.876,0.8811,0.8815,0.8882,0.8937,0.8937,0.8937,0.891,0.8832,0.8811,0.8811,0.8811,0.8811,0.8842,0.8916,0.8937,0.8937,0.8937,0.8937,0.8937,0.892,0.8937,0.8963,0.8848,0.763,0.587,2.706,2.7012,2.7012,2.6982,2.6846,2.5723,2.5498,2.5898,2.5898,2.5869,2.581,2.582,2.5791,2.5732,2.5674,2.5644,2.5654,2.5596,2.5576,2.5576,2.5625,2.5654,2.5664,2.5713,2.5527,2.5185,2.5547,2.5762,2.5713,2.3203,2.2237,2.2609,2.0194,1.8959,1.8911,1.9178,1.9334,1.9359,1.9341,1.9172,1.8865,1.829,1.7702,1.7101,1.6446,1.5752,1.5087,1.5805,1.5691,1.4663,1.4145,1.328,1.1908,1.1422,1.0639,0.0,0.8683,0.0,0.0,0.0,0.0,0.0,0.0,0.0,0.0,0.629,0.6651,0.6956,0.7285,0.7519,0.7672,0.7702,0.777,0.7913,0.8048,0.8187,0.8343,0.8587,0.874,0.874,0.8859,0.8937,0.8933,0.8937,0.8937,0.8937,0.8923,0.891,0.893,0.8927,0.8927,0.8937,0.8937,0.8937,0.8937,0.8937,0.8937,0.8933,0.8927,0.8937,0.893,0.893,0.8937,0.8937,0.8937,0.8937,0.8937,0.8937,0.8937,0.8937,0.8923,0.8923,0.8944,0.8826,0.8863,2.7334,2.7012,2.7012,2.6826,2.6484,2.624,2.6387,2.6777,2.6777,2.6582,2.6269,2.626,2.6074,2.5713,2.5361,2.5185,2.5176,2.4824,2.4658,2.4678,2.5029,2.5195,2.5215,2.5566,2.5693,2.5615,2.5703,2.5918,2.626,2.4262,2.3167,2.2724,2.2108,2.0895,1.9025,0.0,0.0,0.0,1.9078,1.8824,1.8564,1.7983,1.7388,1.6794,1.5765,0.0,1.495,1.4314,1.3805,1.3685,1.3033,0.0,0.0,0.0,0.0,0.0,0.0,0.0,0.0,0.0,0.0,0.0,1.0177,0.9372,0.803,0.8264,0.8257,0.753,0.774,0.7974,0.813,0.8248,0.8374,0.852,0.8564,0.8645,0.8794,0.8862,0.8893,0.8896,0.892,0.8937,0.8937,0.8937,0.8937,0.8937,0.8937,0.8937,0.8937,0.8937,0.8937,0.8937,0.8937,0.8937,0.8937,0.8937,0.8937,0.8937,0.8937,0.8937,0.8937,0.8937,0.8937,0.8937,0.8937,0.8937,0.8937,0.8937,0.8937,0.8937,0.8937,0.894,0.8944,0.8944,0.8954,2.7842,0.0,2.7637,2.7519,0.0,2.7324,2.7451,2.7627,2.7197,2.6894,2.6699,2.6699,2.6572,2.6338,2.5918,2.5723,2.5693,2.5273,2.5185,2.54,2.5625,2.584,2.6035,2.626,2.626,2.6074,2.6269,2.6484,2.6579,2.5099,2.4364,2.4352,2.3535,2.2432,2.1339,2.1503,2.0923,1.9366,1.9219,1.9072,1.8911,1.8337,1.7742,1.7141,1.6005,0.0,0.0,0.0,0.0,0.0,0.0,0.0,0.0,1.3114,0.0,1.2542,1.2576,1.2641,1.2619,1.2574,1.2541,1.2674,1.2855,1.2199,1.0308,0.9876,0.9627,0.9299,0.9395,0.9235,0.8642,0.9275,0.9466,0.8876,0.8801,0.8855,0.8923,0.8937,0.8937,0.8937,0.8937,0.8937,0.8937,0.8937,0.8937,0.8937,0.8937,0.8937,0.8937,0.8937,0.8937,0.8937,0.8937,0.8937,0.8937,0.8937,0.8937,0.8937,0.8937,0.8937,0.8937,0.8937,0.8937,0.8937,0.8937,0.8937,0.8937,0.8937,0.8937,0.8937,0.8937,0.8937,0.8937,0.8937,0.8944,2.8516,2.8516,2.8516,2.8476,2.8398,2.8398,2.8359,2.8242,0.0,0.0,0.0,2.7129,2.709,2.6982,2.6572,2.6387,2.6357,2.5937,2.5928,2.6269,2.6357,2.6572,2.6904,2.6973,2.6836,2.6533,2.6855,2.7051,2.7119,2.5975,2.5596,2.5937,2.4776,2.4132,2.413,2.2212,2.0766,1.9809,1.9537,1.9292,1.9272,1.8718,1.8123,1.7522,1.6466,1.5638,1.5057,1.3455,1.3095,1.4235,1.4433,1.4352,1.3975,1.4188,1.415,1.3899,1.4051,1.4418,1.4975,1.4447,1.4396,1.485,1.5147,1.4383,1.2328,1.156,1.1209,1.1212,1.1274,1.0907,0.9817,1.0623,1.0744,0.9399,0.9003,0.8923,0.8937,0.8937,0.8937,0.8937,0.8937,0.8937,0.8937,0.8937,0.8937,0.8937,0.8937,0.8937,0.8937,0.8937,0.8937,0.8937,0.8937,0.8937,0.8937,0.8937,0.8937,0.8937,0.8937,0.8937,0.8937,0.8937,0.8937,0.8937,0.8937,0.8937,0.8937,0.8937,0.8937,0.8937,0.8937,0.8937,0.8937,0.8937,0.8937,2.9385,2.9394,2.9385,2.917,2.8838,2.8828,2.8623,2.8291,2.8164,2.791,2.7578,2.7568,2.7363,2.6992,2.6572,2.6387,2.6357,2.5937,2.5771,2.585,2.6221,2.6426,2.6494,2.6846,2.6982,2.6934,2.6992,2.7207,2.75,2.6982,2.657,2.6245,2.6764,2.6658,2.5555,2.1706,2.0274,2.1237,1.9777,1.8985,1.8978,1.841,1.7822,1.7221,1.6587,1.5939,1.5357,1.4417,1.4135,1.4843,1.5754,1.5956,1.5234,1.519,1.5311,1.5425,1.5805,1.6005,1.6092,1.5999,1.6301,1.7014,1.7198,1.5902,1.2994,1.3707,1.3909,1.2825,1.2884,1.2906,1.2704,1.213,1.1589,1.0858,0.9632,0.8872,0.893,0.8937,0.8937,0.8937,0.8937,0.8937,0.8937,0.8937,0.8937,0.8937,0.8937,0.8937,0.8937,0.8937,0.8937,0.8937,0.8937,0.8937,0.8937,0.8937,0.8937,0.8937,0.8937,0.8937,0.8937,0.8937,0.8937,0.8937,0.8937,0.8937,0.8937,0.8937,0.8937,0.8937,0.8937,0.8937,0.8937,0.8937,0.8937,2.958,2.958,2.958,2.9453,2.9258,2.9023,2.8809,2.8613,2.8389,2.8184,2.8018,2.7998,2.79,2.7676,2.7266,2.708,2.706,2.6631,2.6553,2.6787,2.6982,2.7197,2.7422,2.7627,2.7715,2.7705,2.7715,2.7812,2.7969,2.7793,2.7574,2.7356,2.7757,2.7428,2.6018,2.403,2.2584,2.1578,2.0002,1.9165,1.9158,1.8744,1.839,1.811,1.7542,1.7114,1.684,1.5978,1.5654,1.6042,1.6808,1.6905,1.6332,1.6363,1.6406,1.6547,1.6827,1.6987,1.6981,1.7028,1.7377,1.8,1.8151,1.7646,1.6065,1.5577,1.5232,1.4578,1.4471,1.4336,1.4099,1.3639,1.3306,1.3126,1.059,0.9297,0.9794,0.9372,0.8937,0.8937,0.8937,0.8937,0.8937,0.8937,0.8937,0.8937,0.8937,0.8937,0.8937,0.8937,0.8937,0.8937,0.8937,0.8937,0.894,0.8937,0.8937,0.8937,0.8937,0.8937,0.8937,0.8937,0.8937,0.8937,0.8937,0.8937,0.8937,0.8937,0.8937,0.8937,0.8937,0.8937,0.8937,0.8937,0.8937,2.9873,2.9873,2.9863,2.9805,2.9678,2.9248,2.9072,2.9023,2.8613,2.8437,2.8428,2.834,2.8301,2.8262,2.7949,2.7803,2.7764,2.7461,2.748,2.7783,2.7803,2.7988,2.8271,2.8301,2.8301,2.8301,2.8301,2.8301,2.8301,2.8301,2.8301,2.8301,2.8301,2.7726,2.6608,2.6264,2.4812,2.2145,2.0587,1.97,1.9366,1.9138,1.8991,1.8891,1.8477,1.821,1.8136,1.7434,1.7199,1.7232,1.7573,1.7549,1.7163,1.7331,1.7321,1.7288,1.7528,1.7709,1.7556,1.7652,1.8048,1.8632,1.8712,1.8742,1.8657,1.7382,1.6484,1.6357,1.6101,1.5749,1.5571,1.5405,1.5287,1.4793,1.2229,1.0599,1.0874,1.0021,0.9282,0.9085,0.896,0.8947,0.8971,0.8957,0.8937,0.8937,0.8937,0.8937,0.8937,0.8937,0.8947,0.8981,0.8988,0.8994,0.8991,0.9032,0.9032,0.9001,0.8994,0.8981,0.896,0.8937,0.8937,0.8937,0.8937,0.8937,0.8937,0.8937,0.8937,0.8937,0.8937,0.8937,0.8937,0.8937,0.8937,3.0762,3.0771,3.0732,3.0518,3.0107,2.9687,2.9512,2.9453,2.9043,2.8857,2.8809,2.8457,2.8301,2.8291,2.8242,2.8223,2.8223,2.8193,2.8184,2.8213,2.8232,2.8252,2.8291,2.8301,2.8301,2.8301,2.8301,2.8301,2.8301,2.8301,2.8301,2.8301,2.8301,2.8184,2.795,2.6825,2.527,2.3599,2.2145,2.0702,1.9475,1.9339,1.9199,1.8931,1.8878,1.8718,1.8477,1.8417,1.8267,1.8123,1.8337,1.8107,1.7708,1.7828,1.7842,1.7582,1.7836,1.7873,1.7624,1.7936,1.8439,1.9197,1.8984,1.8991,1.9212,1.8878,1.8374,1.7816,1.7549,1.7397,1.7613,1.7423,1.6832,1.591,1.4645,1.3434,1.1642,1.1,1.0516,0.9233,0.9022,0.8984,0.9083,0.9018,0.8944,0.896,0.8964,0.8974,0.8988,0.8988,0.9022,0.9103,0.9133,0.9137,0.915,0.9256,0.9242,0.9157,0.9133,0.9086,0.9011,0.8957,0.8937,0.894,0.8937,0.8937,0.8937,0.8937,0.8937,0.8937,0.8937,0.8937,0.8937,0.8937,0.8937,3.0898,3.0898,3.0898,3.0781,3.0557,3.0137,2.9941,2.9893,2.9492,2.916,2.8916,2.873,2.8525,2.8301,2.8301,2.8301,2.8301,2.8301,2.8301,2.8301,2.8301,2.8301,2.8301,2.8301,2.8301,2.8301,2.8301,2.8301,2.8301,2.8301,2.8301,2.8301,2.8301,2.8301,2.8291,2.7726,2.6608,2.5151,2.371,2.2145,2.0816,1.9809,1.9312,1.9205,1.9185,1.9138,1.9025,1.9005,1.9051,1.8897,1.8996,1.8874,1.87,1.8433,1.8257,1.8136,1.8237,1.8233,1.8112,1.8269,1.8672,1.9319,1.9219,1.9239,1.9339,1.9092,1.8744,1.8364,1.8029,1.7916,1.8029,1.8178,1.8057,1.7233,1.5904,1.4592,1.3434,1.1982,1.0747,0.9476,0.9103,0.9083,0.9117,0.9028,0.8984,0.9039,0.9066,0.9089,0.9171,0.9201,0.9222,0.9279,0.9357,0.9374,0.932,0.933,0.9347,0.9313,0.9286,0.9118,0.911,0.8953,0.8927,0.896,0.8944,0.894,0.8937,0.8937,0.8937,0.8937,0.8937,0.8937,0.8937,0.8937,0.8937,3.0898,3.0898,3.0898,3.0898,3.0859,3.0537,3.0391,3.0322,2.9932,2.956,2.9277,2.916,2.8867,2.8486,2.835,2.8301,2.8301,2.8301,2.8301,2.8301,2.8301,2.8301,2.8301,2.8301,2.8301,2.8301,2.8301,2.8301,2.8301,2.8301,2.8301,2.8301,2.8301,2.8301,2.8301,2.8301,2.7609,2.6045,2.4599,2.3039,2.1586,2.0148,1.9366,1.9366,1.9366,1.9366,1.9366,1.9366,1.9401,1.9441,1.9435,1.9426,1.9389,1.8867,1.8611,1.8611,1.8611,1.8644,1.8724,1.8798,1.8924,1.9327,1.9387,1.9366,1.9332,1.9165,1.8885,1.8517,1.8357,1.8277,1.8176,1.8537,1.8571,1.8277,1.6967,1.6059,1.5568,1.3527,1.1564,1.0228,0.9511,0.9133,0.9096,0.9042,0.9045,0.9123,0.9188,0.9245,0.9351,0.9371,0.9384,0.9439,0.954,0.9551,0.9469,0.95,0.9486,0.9449,0.9322,0.9272,0.9239,0.9077,0.9024,0.9042,0.8984,0.894,0.8937,0.8937,0.8937,0.8937,0.8937,0.8937,0.8937,0.8937,0.8937,3.0898,3.0898,3.0898,3.0898,3.0889,3.0859,3.084,3.0781,3.0361,3.0137,3.0029,2.9697,2.9297,2.8877,2.8535,2.831,2.8301,2.8301,2.8301,2.8301,2.8301,2.8301,2.8301,2.8301,2.8301,2.8301,2.8301,2.8301,2.8301,2.8301,2.8301,2.8301,2.8301,2.8301,2.8301,2.8301,2.7618,2.6273,2.4599,2.3151,2.1699,2.0263,1.9366,1.9366,1.9366,1.9366,1.9366,1.9366,1.9352,1.9461,1.9448,1.9456,1.9333,1.9038,1.8905,1.8905,1.8911,1.9025,1.9252,1.9305,1.9319,1.9339,1.9461,1.9366,1.9366,1.9332,1.9078,1.8551,1.8731,1.8758,1.8517,1.8594,1.8682,1.8744,1.8486,1.8158,1.7981,1.5255,1.3354,1.1727,1.0137,0.9233,0.8991,0.9069,0.9137,0.9198,0.9289,0.9388,0.9418,0.9408,0.9466,0.9561,0.9612,0.9612,0.9612,0.9652,0.9683,0.9646,0.9585,0.9429,0.9278,0.9151,0.9087,0.9117,0.9035,0.8981,0.895,0.8937,0.8937,0.8937,0.8937,0.8937,0.8937,0.8937,0.8937,3.0898,3.0898,3.0898,3.0898,3.0898,3.0898,3.0898,3.0879,3.0723,3.0469,3.0205,3.0039,2.9736,2.9336,2.918,2.8809,2.833,2.8301,2.8301,2.8301,2.8301,2.8301,2.8301,2.8301,2.8301,2.8301,2.8301,2.8301,2.8301,2.8301,2.8301,2.8301,2.8301,2.8301,2.8301,2.8301,2.8067,2.7276,2.5049,2.3487,2.2822,2.0709,1.9366,1.9366,1.9366,1.9366,1.9366,1.9366,1.9366,1.9366,1.9366,1.9448,1.9354,1.9327,1.9212,1.9205,1.9205,1.9259,1.9352,1.9366,1.9366,1.9366,1.9366,1.9366,1.9366,1.9359,1.9199,1.8918,1.9032,1.9065,1.8844,1.8764,1.8857,1.9054,1.8969,1.8857,1.8335,1.6055,1.3369,1.1867,1.0266,0.9243,0.911,0.9123,0.9228,0.9412,0.9496,0.9557,0.9639,0.9663,0.9673,0.9724,0.9744,0.9744,0.9747,0.9774,0.9795,0.9771,0.9727,0.9663,0.9547,0.9359,0.9298,0.9201,0.91,0.9045,0.9022,0.8944,0.8944,0.8937,0.8937,0.8937,0.8937,0.8937,0.8937,3.0898,3.0898,3.0898,3.0898,3.0898,3.0898,3.0898,3.0898,3.0889,3.0703,3.0459,3.042,3.0176,2.9824,2.9775,2.9394,2.873,2.8574,2.8418,2.8301,2.8301,2.8301,2.8301,2.8301,2.8301,2.8301,2.8301,2.8301,2.8301,2.8301,2.8301,2.8301,2.8301,2.8301,2.8301,2.8301,2.8301,2.7736,2.527,2.3822,2.3487,2.0931,1.9366,1.9366,1.9366,1.9366,1.9366,1.9366,1.9366,1.9366,1.9366,1.9366,1.9366,1.9366,1.9366,1.9366,1.9366,1.9366,1.9366,1.9366,1.9366,1.9366,1.9366,1.9366,1.9366,1.9366,1.9219,1.9065,1.9178,1.9225,1.8931,1.8951,1.9119,1.9323,1.9118,1.9011,1.8924,1.6046,1.3365,1.1285,1.0015,0.936,0.9235,0.9276,0.9395,0.9591,0.9642,0.9724,0.9798,0.9819,0.9819,0.9819,0.9812,0.9808,0.9802,0.9808,0.9819,0.9802,0.9791,0.9744,0.9703,0.9533,0.9422,0.932,0.9188,0.9137,0.9066,0.8981,0.8947,0.894,0.8937,0.8937,0.8937,0.8937,0.8937,3.0898,3.0898,3.0898,3.0898,3.0898,3.0898,3.0898,3.0898,3.0898,3.0859,3.0801,3.085,3.0586,3.0273,3.0205,2.9961,2.9512,2.915,2.876,2.8389,2.835,2.833,2.8301,2.8301,2.8301,2.8301,2.8301,2.8301,2.8301,2.8301,2.8301,2.8301,2.8301,2.8301,2.8301,2.8301,2.8301,2.7618,2.538,2.3822,2.3487,2.0931,1.9366,1.9366,1.9366,1.9366,1.9366,1.9366,1.9366,1.9366,1.9366,1.9366,1.9366,1.9366,1.9366,1.9366,1.9366,1.9366,1.9366,1.9366,1.9366,1.9366,1.9366,1.9366,1.9366,1.9366,1.9252,1.9078,1.9178,1.9158,1.8791,1.9032,1.9299,1.9325,1.9092,1.8971,1.8356,1.6109,1.3082,1.0605,0.9669,0.9497,0.9408,0.9473,0.9574,0.9635,0.9724,0.9795,0.9815,0.9819,0.9819,0.9819,0.9819,0.9819,0.9819,0.9819,0.9819,0.9819,0.9815,0.9791,0.9764,0.972,0.9615,0.9422,0.9262,0.9198,0.9055,0.8977,0.8947,0.8937,0.8937,0.8937,0.8937,0.8937,0.8937,3.0898,3.0898,3.0898,3.0898,3.0898,3.0898,3.0898,3.0898,3.0898,3.0898,3.0898,3.0898,3.081,3.0703,3.0674,3.043,3.001,2.9834,2.9424,2.8828,2.8721,2.8564,2.835,2.8301,2.8301,2.8301,2.8301,2.8301,2.8301,2.8301,2.8301,2.8301,2.8301,2.8301,2.8301,2.8301,2.8301,2.795,2.5388,2.3822,2.3487,2.0931,1.9482,1.9366,1.9366,1.9366,1.9366,1.9366,1.9366,1.9366,1.9366,1.9366,1.9366,1.9366,1.9366,1.9366,1.9366,1.9366,1.9366,1.9366,1.9366,1.9366,1.9366,1.9366,1.9366,1.9366,1.9325,1.9225,1.9319,1.9259,1.9178,1.9239,1.9292,1.8964,1.9152,1.9192,1.8564,1.6333,1.3621,1.1429,1.0099,1.0,1.0669,1.0421,0.9652,0.973,0.9791,0.9819,0.9819,0.9819,0.9819,0.9819,0.9819,0.9819,0.9819,0.9819,0.9819,0.9819,0.9819,0.9819,0.9798,0.9774,0.9669,0.9523,0.9367,0.9218,0.9076,0.8988,0.895,0.8937,0.8937,0.8937,0.8937,0.8937,0.8937,3.0898,3.0898,3.0898,3.0898,3.0898,3.0898,3.0898,3.0898,3.0898,3.0898,3.0898,3.0898,3.0898,3.0898,3.0898,3.0732,3.0469,3.0449,3.0078,2.9394,2.9014,2.8769,2.8516,2.835,2.8301,2.8301,2.8301,2.8301,2.8301,2.8301,2.8301,2.8301,2.8301,2.8301,2.8301,2.8291,2.8067,2.7276,2.5049,2.3487,2.2589,2.0594,1.9366,1.9366,1.9366,1.9366,1.9366,1.9366,1.9366,1.9366,1.9366,1.9366,1.9366,1.9366,1.9366,1.9366,1.9366,1.9366,1.9366,1.9366,1.9366,1.9366,1.9366,1.9366,1.9366,1.9366,1.9366,1.9366,1.9366,1.9366,1.9359,1.9366,1.9272,1.9112,1.9132,1.8731,1.7633,1.6223,1.4281,1.2471,1.1075,1.1114,1.1418,1.0752,0.984,0.9805,0.9819,0.9819,0.9819,0.9819,0.9819,0.9819,0.9819,0.9819,0.9819,0.9819,0.9819,0.9819,0.9819,0.9819,0.9812,0.9805,0.9744,0.9554,0.9384,0.9225,0.9083,0.8991,0.8937,0.8937,0.8937,0.8937,0.8937,0.8937,0.8937,3.0898,3.0898,3.0898,3.0898,3.0898,3.0898,3.0898,3.0898,3.0898,3.0898,3.0898,3.0898,3.0898,3.0898,3.0898,3.0859,3.0879,3.083,3.0605,3.0068,2.9502,2.9053,2.8926,2.8584,2.8408,2.8389,2.833,2.8301,2.8301,2.8301,2.8301,2.8301,2.8301,2.8301,2.8184,2.8184,2.7384,2.6273,2.4488,2.2927,2.1699,2.0263,1.9366,1.9366,1.9366,1.9366,1.9366,1.9366,1.9366,1.9366,1.9332,1.9305,1.9352,1.9359,1.9312,1.9352,1.9366,1.9366,1.9366,1.9366,1.9366,1.9366,1.9366,1.9366,1.9366,1.9366,1.9366,1.9366,1.9366,1.9366,1.9366,1.9366,1.9352,1.9332,1.9178,1.7874,1.4988,1.5577,1.5062,1.3209,1.2324,1.2324,1.2423,1.1117,1.029,0.9815,0.9819,0.9819,0.9819,0.9819,0.9819,0.9819,0.9819,0.9819,0.9819,0.9819,0.9819,0.9819,0.9819,0.9819,0.9819,0.9819,0.9734,0.9551,0.9408,0.9249,0.9096,0.8988,0.8937,0.8937,0.8937,0.8937,0.8937,0.8937,0.8937,3.0898,3.0898,3.0898,3.0898,3.0898,3.0898,3.0898,3.0898,3.0898,3.0898,3.0898,3.0898,3.0898,3.0898,3.0898,3.0898,3.0898,3.0889,3.0859,3.0644,3.0137,2.9678,2.9365,2.8965,2.875,2.8721,2.8476,2.8301,2.8301,2.8301,2.8301,2.8301,2.8301,2.8301,2.8184,2.7286,2.6499,2.5709,2.3479,2.2032,2.1479,2.0148,1.9482,1.9366,1.9366,1.9366,1.9366,1.9366,1.9366,1.9345,1.9004,1.8902,1.9319,1.9178,1.9152,1.9332,1.9366,1.9366,1.9366,1.9366,1.9366,1.9366,1.9366,1.9366,1.9366,1.9366,1.9366,1.9366,1.9366,1.9366,1.9366,1.9366,1.9366,1.9359,1.9272,1.8037,1.5675,1.5809,1.6071,1.4351,1.4004,1.3885,1.3526,1.2333,1.0899,1.0058,0.9819,0.9819,0.9819,0.9819,0.9819,0.9819,0.9819,0.9819,0.9819,0.9819,0.9819,0.9819,0.9819,0.9819,0.9819,0.9819,0.9673,0.9483,0.9422,0.9289,0.9096,0.8944,0.8937,0.8937,0.8937,0.8937,0.8937,0.8937,0.8937,3.0898,3.0898,3.0898,3.0898,3.0898,3.0898,3.0898,3.0898,3.0898,3.0898,3.0898,3.0898,3.0898,3.0898,3.0898,3.0898,3.0898,3.0898,3.0889,3.085,3.0596,3.0146,2.9639,2.9277,2.9189,2.915,2.876,2.8594,2.8525,2.8398,2.8301,2.8301,2.8301,2.8301,2.8184,2.6834,2.5709,2.482,2.2814,2.1365,2.0587,1.9924,1.9482,1.9366,1.9366,1.9366,1.9366,1.9366,1.9366,1.9299,1.8849,1.8797,1.9292,1.9085,1.9065,1.9339,1.9366,1.9366,1.9366,1.9366,1.9366,1.9366,1.9366,1.9366,1.9366,1.9366,1.9366,1.9366,1.9366,1.9366,1.9366,1.9366,1.9366,1.9366,1.9366,1.8286,1.5784,1.7079,1.7091,1.6026,1.5079,1.4604,1.4485,1.2693,1.102,1.0058,0.9819,0.9819,0.9819,0.9819,0.9819,0.9819,0.9819,0.9819,0.9819,0.9819,0.9819,0.9819,0.9819,0.9819,0.9819,0.9808,0.9649,0.95,0.9429,0.9306,0.9089,0.8937,0.8937,0.8937,0.8937,0.8937,0.8937,0.8937,0.8937,3.0898,3.0898,3.0898,3.0898,3.0898,3.0898,3.0898,3.0898,3.0898,3.0898,3.0898,3.0898,3.0898,3.0898,3.0898,3.0898,3.0898,3.0898,3.0898,3.0889,3.0791,3.0469,2.9912,2.9717,2.9639,2.957,2.9199,2.8965,2.8809,2.8525,2.835,2.831,2.8301,2.8077,2.7618,2.649,2.5041,2.3599,2.204,2.0702,1.9815,1.9482,1.9366,1.9366,1.9366,1.9366,1.9366,1.9366,1.9366,1.9366,1.8836,1.8964,1.9279,1.9085,1.9092,1.9299,1.9366,1.9366,1.9366,1.9366,1.9366,1.9366,1.9366,1.9366,1.9366,1.9366,1.9366,1.9366,1.9366,1.9366,1.9366,1.9366,1.9366,1.9366,1.9366,1.8648,1.7923,1.8519,1.8758,1.7085,1.5429,1.496,1.3651,1.2097,1.0061,0.994,0.9819,0.9819,0.9819,0.9819,0.9819,0.9819,0.9819,0.9819,0.9819,0.9819,0.9819,0.9819,0.9819,0.9819,0.9819,0.9774,0.9639,0.952,0.9422,0.9249,0.9018,0.8937,0.8937,0.8937,0.8937,0.8937,0.8937,0.8937,0.8937,3.0898,3.0898,3.0898,3.0898,3.0898,3.0898,3.0898,3.0898,3.0898,3.0898,3.0898,3.0898,3.0898,3.0898,3.0898,3.0898,3.0898,3.0898,3.0898,3.0898,3.0898,3.083,3.0498,3.0234,3.0078,2.9971,2.9639,2.9277,2.8994,2.8838,2.8603,2.835,2.8203,2.7736,2.6608,2.527,2.359,2.2145,2.0709,1.9924,1.9591,1.9366,1.9366,1.9366,1.9366,1.9366,1.9366,1.9366,1.9366,1.9414,1.926,1.9219,1.9252,1.9085,1.9085,1.9285,1.9366,1.9366,1.9366,1.9366,1.9366,1.9366,1.9366,1.9366,1.9366,1.9366,1.9366,1.9366,1.9366,1.9366,1.9366,1.9366,1.9366,1.9366,1.9366,1.9249,1.9004,1.912,1.8046,1.6262,1.5784,1.5542,1.3168,1.2337,1.0899,1.0179,0.9819,0.9819,0.9819,0.9819,0.9819,0.9819,0.9819,0.9819,0.9819,0.9819,0.9819,0.9819,0.9819,0.9819,0.9819,0.9785,0.9666,0.9534,0.9401,0.9201,0.8994,0.8937,0.8937,0.8937,0.8937,0.8937,0.8937,0.8937,0.8937,3.0693,3.0889,3.0898,3.0898,3.0898,3.0898,3.0898,3.0898,3.0898,3.0898,3.0898,3.0898,3.0898,3.0898,3.0898,3.0898,3.0898,3.0898,3.0898,3.0898,3.0898,3.0898,3.0869,3.0674,3.0518,3.0459,3.0068,2.9726,2.9502,2.9121,2.8799,2.8574,2.8408,2.7511,2.6045,2.4608,2.3151,2.1699,2.0148,1.9366,1.9366,1.9366,1.9366,1.9366,1.9366,1.9366,1.9366,1.9366,1.9366,1.9455,1.9361,1.9442,1.9394,1.9098,1.9092,1.9305,1.9366,1.9366,1.9366,1.9366,1.9366,1.9366,1.9366,1.9366,1.9366,1.9366,1.9366,1.9366,1.9366,1.9366,1.9366,1.9366,1.9366,1.9366,1.9366,1.9366,1.9243,1.8765,1.7806,1.5902,1.5069,1.3999,1.2689,1.174,1.102,0.9819,0.9819,0.9819,0.9819,0.9819,0.9819,0.9819,0.9819,0.9819,0.9819,0.9819,0.9819,0.9819,0.9819,0.9819,0.9819,0.9774,0.9713,0.9551,0.9374,0.9215,0.9039,0.8991,0.8937,0.8937,0.8937,0.8937,0.8937,0.8937,0.8937,3.0469,3.0898,3.0898,3.0898,3.0898,3.0898,3.0898,3.0898,3.0898,3.0898,3.0898,3.0898,3.0898,3.0898,3.0898,3.0898,3.0898,3.0898,3.0898,3.0898,3.0898,3.0898,3.0879,3.085,3.082,3.084,3.0508,3.0273,2.9961,2.9502,2.9131,2.8896,2.8584,2.738,2.5744,2.4497,2.2822,2.1145,1.9917,1.9366,1.9366,1.9366,1.9366,1.9366,1.9366,1.9366,1.9366,1.9366,1.9366,1.9366,1.9366,1.9366,1.9305,1.9178,1.9078,1.9359,1.9366,1.9366,1.9366,1.9366,1.9366,1.9366,1.9366,1.9366,1.9366,1.9366,1.9366,1.9366,1.9366,1.9366,1.9366,1.9366,1.9366,1.9366,1.9249,1.901,1.8648,1.7449,1.6138,1.6133,1.4356,1.2689,1.1736,1.0778,1.0179,0.9819,0.9819,0.9819,0.9819,0.9819,0.9819,0.9819,0.9819,0.9819,0.9819,0.9819,0.9819,0.9819,0.9819,0.9819,0.9808,0.9737,0.9656,0.95,0.933,0.9188,0.9062,0.8974,0.8937,0.8937,0.8937,0.8937,0.8937,0.8937,0.8937,3.0459,3.0898,3.0898,3.0898,3.0898,3.0898,3.0898,3.0898,3.0898,3.0898,3.0898,3.0898,3.0898,3.0898,3.0898,3.0898,3.0898,3.0898,3.0898,3.0898,3.0898,3.0898,3.0898,3.0898,3.0898,3.0889,3.0752,3.0557,3.0293,3.001,2.957,2.9062,2.8709,2.7287,2.5043,2.3718,2.2379,2.0371,1.9591,1.9482,1.9366,1.9366,1.9366,1.9366,1.9366,1.9366,1.9366,1.9366,1.9366,1.9366,1.9366,1.9366,1.9352,1.9299,1.9305,1.9345,1.9366,1.9366,1.9366,1.9366,1.9366,1.9366,1.9366,1.9366,1.9366,1.9366,1.9366,1.9366,1.9366,1.9366,1.9366,1.9366,1.9366,1.9127,1.8286,1.7566,1.6973,1.5306,1.3999,1.4594,1.3168,1.1736,1.0899,1.0301,1.0061,0.9819,0.9819,0.9819,0.9819,0.9819,0.9819,0.9819,0.9819,0.9819,0.9819,0.9819,0.9819,0.9819,0.9819,0.9819,0.9785,0.9693,0.9578,0.9442,0.933,0.9211,0.9089,0.8967,0.8937,0.8937,0.8937,0.8937,0.8937,0.8937,0.8937,3.0478,3.0889,3.0898,3.0898,3.0898,3.0898,3.0898,3.0898,3.0898,3.0898,3.0898,3.0898,3.0898,3.0898,3.0898,3.0898,3.0898,3.0898,3.0898,3.0898,3.0898,3.0898,3.0898,3.0898,3.0898,3.0889,3.0879,3.0791,3.0547,3.0283,2.9857,2.9376,2.8506,2.643,2.4423,2.3135,2.1616,1.9815,1.9366,1.9366,1.9366,1.9366,1.9366,1.9366,1.9366,1.9366,1.9366,1.9366,1.9366,1.9366,1.9366,1.9366,1.9366,1.9366,1.9366,1.9366,1.9366,1.9366,1.9366,1.9366,1.9366,1.9366,1.9366,1.9366,1.9366,1.9366,1.9366,1.9366,1.9366,1.9366,1.9366,1.9366,1.9004,1.8163,1.7325,1.6609,1.5542,1.3522,1.3048,1.3048,1.1736,1.0778,1.0301,0.994,0.9819,0.9819,0.9819,0.9819,0.9819,0.9819,0.9819,0.9819,0.9819,0.9819,0.9819,0.9819,0.9819,0.9819,0.9819,0.9819,0.9768,0.9676,0.9554,0.9418,0.9313,0.9178,0.9072,0.8937,0.8937,0.8937,0.8937,0.8937,0.8937,0.8937,0.8937,3.0469,3.0898,3.0898,3.0898,3.0898,3.0898,3.0898,3.0898,3.0898,3.0898,3.0898,3.0898,3.0898,3.0898,3.0898,3.0898,3.0898,3.0898,3.0898,3.0898,3.0898,3.0898,3.0898,3.0898,3.0898,3.0889,3.0274,3.0635,3.0655,3.0055,2.9728,2.8936,2.7355,2.5604,2.3861,2.2505,2.0795,1.9815,1.9366,1.9366,1.9366,1.9366,1.9366,1.9366,1.9366,1.9366,1.9366,1.9366,1.9366,1.9366,1.9366,1.9366,1.9366,1.9366,1.9366,1.9366,1.9366,1.9366,1.9366,1.9366,1.9366,1.9366,1.9366,1.9366,1.9366,1.9366,1.9366,1.9366,1.9366,1.9366,1.9366,1.912,1.8286,1.7325,1.6368,1.5419,1.4118,1.2693,1.174,1.1257,1.0297,1.0058,0.9819,0.9819,0.9819,0.9819,0.9819,0.9819,0.9819,0.9819,0.9819,0.9819,0.9819,0.9819,0.9819,0.9819,0.9819,0.9819,0.9819,0.9819,0.9747,0.9663,0.9523,0.9381,0.9195,0.9062,0.8977,0.8937,0.8937,0.8937,0.8937,0.8937,0.8937,0.8937,0.8937,3.0469,3.0898,3.0898,3.0898,3.0898,3.0898,3.0898,3.0898,3.0898,3.0898,3.0898,3.0898,3.0898,3.0898,3.0898,3.0898,3.0898,3.0898,3.0898,3.0898,3.0898,3.0898,3.0898,3.0898,3.0898,3.0645,2.953,2.9658,3.0001,2.9192,2.8392,2.775,2.6259,2.4558,2.2921,2.1963,2.1075,1.9768,1.9399,1.9399,1.9392,1.9392,1.9392,1.9366,1.9366,1.9366,1.9366,1.9366,1.9366,1.9366,1.9366,1.9366,1.9366,1.9366,1.9366,1.9366,1.9366,1.9366,1.9366,1.9366,1.9366,1.9366,1.9366,1.9366,1.9366,1.9366,1.9366,1.9366,1.9366,1.9127,1.8881,1.8046,1.7325,1.6015,1.4589,1.3522,1.2333,1.1736,1.0781,1.0539,1.0061,0.994,0.9819,0.9819,0.9819,0.9819,0.9819,0.9819,0.9819,0.9819,0.9819,0.9819,0.9819,0.9819,0.9819,0.9819,0.9819,0.9819,0.9819,0.9815,0.9744,0.9652,0.9483,0.9327,0.9133,0.9005,0.8957,0.8937,0.8937,0.8937,0.8937,0.8937,0.8937,0.8937,0.8937,3.0703,3.0889,3.0898,3.0898,3.0898,3.0898,3.0898,3.0898,3.0898,3.0898,3.0898,3.0898,3.0898,3.0898,3.0898,3.0898,3.0898,3.0898,3.0898,3.0898,3.0898,3.0898,3.0898,3.0898,3.0898,3.0401,2.9412,2.8792,2.8911,2.7913,2.6962,2.6474,2.5076,2.3789,2.2327,2.151,2.0564,2.0006,1.986,1.9905,1.9659,1.9599,1.9526,1.9379,1.9372,1.9366,1.9366,1.9366,1.9366,1.9366,1.9366,1.9366,1.9366,1.9366,1.9366,1.9366,1.9366,1.9366,1.9366,1.9366,1.9366,1.9366,1.9366,1.9366,1.9366,1.9366,1.9366,1.9366,1.8525,1.8163,1.7812,1.6615,1.5311,1.4118,1.3048,1.2093,1.1137,1.0539,0.994,0.9819,0.9819,0.9819,0.9819,0.9819,0.9819,0.9819,0.9819,0.9819,0.9819,0.9819,0.9819,0.9819,0.9819,0.9819,0.9819,0.9819,0.9819,0.9819,0.9819,0.9805,0.9754,0.9642,0.9459,0.9293,0.9123,0.9018,0.8957,0.8937,0.8937,0.8937,0.8937,0.8937,0.8937,0.8937,0.8937,3.0898,3.0898,3.0898,3.0898,3.0898,3.0898,3.0898,3.0898,3.0898,3.0898,3.0898,3.0898,3.0898,3.0898,3.0898,3.0898,3.0898,3.0898,3.0898,3.0898,3.0898,3.0898,3.0898,3.0898,3.0645,3.0274,2.8307,2.7373,2.6472,2.5676,2.4763,2.5245,2.358,2.2667,2.2062,2.1289,2.0281,2.0026,2.0436,2.0355,1.994,1.9813,1.9679,1.9533,1.9419,1.9366,1.9366,1.9366,1.9366,1.9366,1.9366,1.9366,1.9366,1.9366,1.9366,1.9366,1.9366,1.9366,1.9366,1.9366,1.9366,1.9366,1.9366,1.9366,1.9366,1.9366,1.9004,1.8648,1.7923,1.7085,1.6138,1.4955,1.3885,1.2813,1.1856,1.0899,1.0179,0.994,0.9819,0.9819,0.9819,0.9819,0.9819,0.9819,0.9819,0.9819,0.9819,0.9819,0.9819,0.9819,0.9819,0.9819,0.9819,0.9819,0.9819,0.9819,0.9819,0.9812,0.9812,0.9774,0.9713,0.9578,0.9398,0.9239,0.9096,0.9011,0.894,0.8937,0.8937,0.8937,0.8937,0.8937,0.8937,0.8937,0.8937,3.0898,3.0898,3.0898,3.0898,3.0898,3.0898,3.0898,3.0898,3.0898,3.0898,3.0898,3.0898,3.0898,3.0898,3.0898,3.0898,3.0898,3.0898,3.0898,3.0898,3.0898,3.0898,3.0889,3.0645,3.002,2.8664,2.7082,2.5335,2.3749,2.2996,2.293,2.3311,2.2256,2.1375,2.1141,2.0922,2.0535,2.0414,2.0781,2.072,2.0288,1.9993,1.9806,1.9706,1.9512,1.9366,1.9366,1.9366,1.9366,1.9366,1.9366,1.9366,1.9366,1.9366,1.9366,1.9366,1.9366,1.9366,1.9366,1.9366,1.9366,1.9366,1.9366,1.9249,1.9004,1.9243,1.8765,1.7331,1.6492,1.5902,1.4718,1.3412,1.2217,1.1736,1.102,1.0539,0.994,0.994,0.9819,0.9819,0.9819,0.9819,0.9819,0.9819,0.9819,0.9819,0.9819,0.9819,0.9819,0.9819,0.9819,0.9819,0.9819,0.9819,0.9819,0.9819,0.9819,0.9798,0.9785,0.9724,0.9652,0.9493,0.9303,0.9201,0.9069,0.8994,0.8937,0.8937,0.8937,0.8937,0.8937,0.8937,0.8937,0.8937,0.8937,3.0898,3.0898,3.0898,3.0898,3.0898,3.0898,3.0898,3.0898,3.0898,3.0898,3.0898,3.0898,3.0898,3.0898,3.0898,3.0898,3.0898,3.0898,3.0898,3.0898,3.0898,3.0898,3.0645,2.9903,2.892,2.7931,2.5984,2.4394,2.3447,2.1797,2.1454,2.1601,2.1342,2.1182,2.0962,2.0909,2.0835,2.0802,2.0879,2.0839,2.059,2.0221,1.998,1.978,1.9519,1.9379,1.9366,1.9366,1.9366,1.9366,1.9366,1.9366,1.9366,1.9366,1.9366,1.9366,1.9366,1.9366,1.9366,1.9366,1.9366,1.9366,1.9366,1.9004,1.8286,1.8046,1.7097,1.5902,1.4708,1.4004,1.3674,1.1989,1.066,1.0539,1.0301,0.994,0.9819,0.9819,0.9819,0.9819,0.9819,0.9819,0.9819,0.9819,0.9819,0.9819,0.9819,0.9819,0.9819,0.9819,0.9819,0.9819,0.9819,0.9819,0.9819,0.9819,0.9815,0.9778,0.9744,0.9642,0.9537,0.9361,0.9191,0.911,0.9049,0.8977,0.8937,0.8937,0.8937,0.8937,0.8937,0.8937,0.8937,0.8937,0.8937,3.0898,3.0898,3.0898,3.0898,3.0898,3.0898,3.0898,3.0898,3.0898,3.0898,3.0898,3.0898,3.0898,3.0898,3.0898,3.0898,3.0898,3.0898,3.0898,3.0898,3.0898,3.0898,3.0274,2.9403,2.8179,2.7202,2.5253,2.3536,2.2515,2.1546,2.1274,2.1128,2.1062,2.1089,2.1096,2.1102,2.1102,2.1102,2.1082,2.1036,2.0775,2.0521,2.0227,1.996,1.9679,1.9459,1.9406,1.9366,1.9366,1.9366,1.9366,1.9366,1.9366,1.9366,1.9366,1.9366,1.9366,1.9366,1.9366,1.9366,1.9366,1.9366,1.9366,1.8525,1.7449,1.685,1.6374,1.4123,1.2933,1.2225,1.2247,1.0789,1.0061,1.0058,1.0058,0.9819,0.9819,0.9819,0.9819,0.9819,0.9819,0.9819,0.9819,0.9819,0.9819,0.9819,0.9819,0.9819,0.9819,0.9819,0.9819,0.9819,0.9819,0.9819,0.9819,0.9771,0.9717,0.9676,0.9622,0.951,0.9384,0.9222,0.9106,0.9039,0.8988,0.895,0.8937,0.8937,0.8937,0.8937,0.8937,0.8937,0.8937,0.8937,0.8937,3.0898,3.0898,3.0898,3.0898,3.0898,3.0898,3.0898,3.0898,3.0898,3.0898,3.0898,3.0898,3.0898,3.0898,3.0898,3.0898,3.0898,3.0898,3.0898,3.0898,3.0518,3.0772,3.003,2.8801,2.6841,2.5863,2.4155,2.2338,2.1141,2.1128,2.0962,2.0902,2.1009,2.1102,2.1102,2.1102,2.1102,2.1102,2.1102,2.1076,2.0995,2.0755,2.0454,2.016,1.9867,1.9619,1.9419,1.9366,1.9366,1.9366,1.9366,1.9366,1.9366,1.9366,1.9366,1.9366,1.9243,1.9243,1.9243,1.9366,1.9379,1.9249,1.9127,1.8169,1.7208,1.6492,1.53,1.2573,1.1976,1.1261,1.0543,0.994,0.9819,0.9819,0.9819,0.9819,0.9819,0.9819,0.9819,0.9819,0.9819,0.9819,0.9819,0.9819,0.9819,0.9819,0.9819,0.9819,0.9819,0.9819,0.9819,0.9819,0.9819,0.9819,0.9798,0.9686,0.9618,0.9459,0.95,0.9381,0.9283,0.9161,0.9059,0.8981,0.8954,0.894,0.8937,0.8937,0.8937,0.8937,0.8937,0.8937,0.8937,0.8937,0.8937,3.0898,3.0898,3.0898,3.0898,3.0898,3.0898,3.0898,3.0898,3.0898,3.0898,3.0898,3.0898,3.0898,3.0898,3.0898,3.0898,3.0898,3.0898,3.0898,3.0772,2.9903,2.9285,2.8554,2.6979,2.5154,2.417,2.282,2.1818,2.1121,2.1082,2.1069,2.1022,2.1029,2.1089,2.1102,2.1102,2.1102,2.1102,2.1102,2.1096,2.1076,2.0835,2.0548,2.0254,1.996,1.9686,1.9406,1.9372,1.9366,1.9366,1.9366,1.9366,1.9366,1.9366,1.9366,1.9127,1.8765,1.7664,1.7929,1.8194,1.9336,1.892,1.8292,1.722,1.5666,1.4356,1.2689,1.1374,1.0899,1.0301,0.994,0.9819,0.9819,0.9819,0.9819,0.9819,0.9819,0.9819,0.9819,0.9819,0.9819,0.9819,0.9819,0.9819,0.9819,0.9819,0.9819,0.9819,0.9819,0.9819,0.9819,0.9819,0.9819,0.9819,0.9785,0.9683,0.9598,0.9439,0.9415,0.9242,0.9147,0.9076,0.9025,0.895,0.8944,0.8937,0.8937,0.8937,0.8937,0.8937,0.8937,0.8937,0.8937,0.8937,0.8937,3.0898,3.0898,3.0898,3.0898,3.0898,3.0898,3.0898,3.0898,3.0898,3.0898,3.0898,3.0898,3.0898,3.0898,3.0898,3.0898,3.0898,3.0898,3.0898,3.0645,2.9157,2.8673,2.7452,2.5269,2.4178,2.3076,2.209,2.1096,2.1082,2.1096,2.1089,2.1082,2.1102,2.1102,2.1102,2.1102,2.1102,2.1102,2.1102,2.1102,2.1062,2.0902,2.0641,2.0314,2.0027,1.978,1.9486,1.9366,1.9366,1.9366,1.9366,1.9366,1.9366,1.9366,1.9366,1.9004,1.8635,1.7713,1.8053,1.8523,1.8374,1.5552,1.611,1.5688,1.4252,1.3048,1.1736,1.0539,0.994,0.9819,0.9822,0.9819,0.9819,0.9819,0.9819,0.9819,0.9819,0.9819,0.9819,0.9819,0.9819,0.9819,0.9819,0.9819,0.9819,0.9819,0.9819,0.9819,0.9819,0.9819,0.9819,0.9819,0.9819,0.9815,0.9774,0.969,0.9612,0.954,0.9354,0.9144,0.9062,0.9005,0.8964,0.8937,0.8937,0.8937,0.8937,0.8937,0.8937,0.8937,0.8937,0.8937,0.8937,0.8937,0.8937,3.0898,3.0898,3.0898,3.0898,3.0898,3.0898,3.0898,3.0898,3.0898,3.0898,3.0898,3.0898,3.0898,3.0898,3.0898,3.0898,3.084,3.084,3.0791,3.0188,2.8664,2.8327,2.6902,2.4869,2.3311,2.2709,2.1957,2.1069,2.1082,2.1022,2.1029,2.1069,2.1082,2.1096,2.1102,2.1102,2.1102,2.1102,2.1102,2.1102,2.1076,2.1015,2.0681,2.0354,2.0094,1.98,1.9533,1.9366,1.9366,1.9366,1.9366,1.9366,1.9366,1.9366,1.9366,1.9127,1.8765,1.8418,1.8302,1.8389,1.5924,1.2922,1.397,1.366,1.3191,1.2093,1.102,1.0301,0.9819,0.9819,0.9819,0.9819,0.9819,0.9819,0.9819,0.9819,0.9819,0.9819,0.9819,0.9819,0.9819,0.9819,0.9819,0.9819,0.9819,0.9819,0.9819,0.9819,0.9819,0.9819,0.9819,0.9819,0.9819,0.9812,0.9751,0.9646,0.9507,0.9398,0.9256,0.9076,0.9001,0.8954,0.8944,0.8937,0.8937,0.8937,0.8937,0.8937,0.8937,0.8937,0.894,0.894,0.8944,0.8937,0.8937,3.0898,3.0898,3.0898,3.0898,3.0898,3.0898,3.0898,3.0898,3.0898,3.0898,3.0898,3.0889,3.084,3.0898,3.0898,3.0869,3.0742,3.0586,3.043,2.9429,2.7632,2.6669,2.5197,2.3525,2.2166,2.172,2.1328,2.1009,2.0842,2.0815,2.0802,2.0802,2.0989,2.1056,2.1096,2.1102,2.1102,2.1102,2.1102,2.1102,2.1029,2.0935,2.0601,2.0321,2.004,1.974,1.9479,1.9372,1.9366,1.9366,1.9366,1.9366,1.9366,1.9249,1.8887,1.6149,1.5924,1.5855,1.5975,1.5975,1.4286,1.0928,1.1343,1.1972,1.1619,1.1257,1.0422,1.0061,0.9819,0.9819,0.9819,0.9819,0.9819,0.9819,0.9819,0.9819,0.9819,0.9819,0.9819,0.9819,0.9819,0.9819,0.9819,0.9819,0.9819,0.9819,0.9819,0.9819,0.9819,0.9819,0.9819,0.9819,0.9808,0.9802,0.9669,0.9554,0.9391,0.9242,0.9137,0.9045,0.8977,0.8944,0.894,0.8937,0.8937,0.8937,0.8937,0.8937,0.894,0.8947,0.895,0.8947,0.8947,0.8833,0.8826,3.0898,3.0898,3.0898,3.0898,3.0898,3.0898,3.0898,3.0898,3.0898,3.0898,3.0879,3.0684,3.0615,3.0557,3.042,3.0322,3.0293,3.0088,2.9715,2.8297,2.6308,2.5115,2.3692,2.2233,2.1257,2.0969,2.1015,2.0969,2.0722,2.0555,2.0521,2.0708,2.0889,2.1002,2.1076,2.1102,2.1102,2.1102,2.1102,2.1102,2.0989,2.0808,2.0528,2.0221,1.9933,1.9653,1.9419,1.9372,1.9366,1.9366,1.9366,1.9366,1.9243,1.8771,1.6973,1.4599,1.4609,1.3794,1.3245,1.3745,1.2234,1.0752,0.9795,1.0293,1.0664,1.0422,1.0061,0.9819,0.9819,0.9819,0.9819,0.9819,0.9819,0.9819,0.9819,0.9819,0.9819,0.9819,0.9819,0.9819,0.9819,0.9819,0.9819,0.9819,0.9819,0.9819,0.9819,0.9819,0.9819,0.9819,0.9819,0.9819,0.9802,0.9781,0.9629,0.9479,0.9354,0.9235,0.9154,0.9066,0.8977,0.8937,0.8937,0.8937,0.8937,0.8937,0.8937,0.894,0.8944,0.895,0.8732,0.8507,0.8393,0.8504,0.8611,3.0898,3.0898,3.0898,3.0898,3.0898,3.0898,3.0898,3.0898,3.0898,3.0898,3.081,3.04,3.0254,3.0244,2.9961,2.9531,2.9315,2.9115,2.8201,2.7113,2.5336,2.3945,2.2864,2.1366,2.0906,2.0842,2.0889,2.0962,2.0668,2.0481,2.0441,2.0661,2.0768,2.0909,2.1082,2.1102,2.1102,2.1102,2.1096,2.1082,2.0955,2.0768,2.0501,2.0187,1.9893,1.9626,1.9439,1.9366,1.9366,1.9366,1.9366,1.9366,1.8642,1.7572,1.5069,1.3522,1.3292,1.2346,1.1518,1.1768,1.1526,1.0422,0.9819,0.994,1.0061,1.0061,0.9819,0.9819,0.9819,0.9819,0.9819,0.9819,0.9819,0.9819,0.9819,0.9819,0.9819,0.9819,0.9819,0.9819,0.9819,0.9819,0.9819,0.9819,0.9819,0.9819,0.9819,0.9819,0.9819,0.9819,0.9819,0.9815,0.9758,0.9707,0.9574,0.9439,0.934,0.9239,0.9137,0.9062,0.8964,0.894,0.8937,0.8937,0.8937,0.8937,0.8937,0.8944,0.8954,0.8967,0.8631,0.8063,0.7952,0.8288,0.8507,3.0898,3.0898,3.0898,3.0898,3.0898,3.0898,3.0898,3.0898,3.0898,3.0898,3.0801,3.043,3.0185,3.0078,2.9707,2.9157,2.8126,2.8022,2.6706,2.5324,2.3872,2.3047,2.2303,2.125,2.0873,2.0962,2.1036,2.0909,2.0661,2.0441,2.0374,2.0675,2.0808,2.0995,2.1089,2.1102,2.1102,2.1102,2.1096,2.0989,2.0802,2.0508,2.0201,1.9933,1.9653,1.9499,1.9366,1.9366,1.9366,1.9366,1.9366,1.8765,1.7566,1.602,1.4237,1.2573,1.1619,1.0781,1.0422,1.0425,1.0304,1.0183,0.9819,0.9819,0.9819,0.9819,0.9819,0.9819,0.9819,0.9819,0.9819,0.9819,0.9819,0.9819,0.9819,0.9819,0.9819,0.9819,0.9819,0.9819,0.9819,0.9819,0.9819,0.9819,0.9819,0.9819,0.9819,0.9819,0.9819,0.9819,0.9819,0.9798,0.9693,0.9612,0.9496,0.9367,0.9256,0.914,0.9028,0.8974,0.8944,0.894,0.8937,0.8937,0.8937,0.8944,0.895,0.8957,0.886,0.887,0.8873,0.8418,0.8412,0.8641,0.8739,3.0898,3.0898,3.0898,3.0898,3.0898,3.0898,3.0898,3.0898,3.0898,3.0898,3.0781,3.0254,2.9922,2.9863,2.9473,2.8407,2.7178,2.7182,2.563,2.3965,2.2822,2.2089,2.1427,2.1019,2.0929,2.0882,2.0762,2.0615,2.0608,2.0281,2.0201,2.0621,2.0875,2.0995,2.1069,2.1102,2.1102,2.1102,2.1102,2.0935,2.0675,2.0388,2.0194,1.992,1.9646,1.9446,1.9366,1.9366,1.9366,1.8991,1.8506,1.7202,1.5897,1.448,1.2808,1.1378,1.0422,0.9819,0.9819,0.9819,0.9819,0.9819,0.9819,0.9819,0.9819,0.9819,0.9819,0.9819,0.9819,0.9819,0.9819,0.9819,0.9819,0.9819,0.9819,0.9819,0.9819,0.9819,0.9819,0.9819,0.9819,0.9819,0.9819,0.9819,0.9819,0.9819,0.9819,0.9819,0.9819,0.9819,0.9819,0.9774,0.9666,0.9547,0.9435,0.9293,0.9147,0.9032,0.894,0.8937,0.894,0.894,0.8937,0.8833,0.8843,0.8964,0.886,0.8752,0.8873,0.8883,0.889,0.8778,0.8883,0.887,0.8967,3.0898,3.0898,3.0898,3.0898,3.0898,3.0898,3.0898,3.0898,3.0898,3.0898,3.0791,3.0049,2.9697,2.9512,2.9108,2.7716,2.6771,2.6575,2.486,2.2936,2.2176,2.1548,2.1039,2.0561,2.0715,2.0702,2.0575,2.0608,2.0661,2.0341,2.0307,2.0621,2.0762,2.0869,2.1036,2.1102,2.1102,2.1082,2.1029,2.0895,2.0648,2.0388,2.0221,1.9987,1.97,1.9399,1.9366,1.9366,1.9366,1.85,1.74,1.5981,1.4821,1.3412,1.1736,1.0543,1.0061,0.9819,0.9819,0.9819,0.9819,0.9819,0.9819,0.9819,0.9819,0.9819,0.9819,0.9819,0.9819,0.9819,0.9819,0.9819,0.9819,0.9819,0.9819,0.9819,0.9819,0.9819,0.9819,0.9819,0.9819,0.9819,0.9819,0.9819,0.9819,0.9819,0.9819,0.9819,0.9819,0.9819,0.9819,0.9741,0.9629,0.951,0.9391,0.9215,0.9049,0.9008,0.8937,0.8937,0.894,0.8944,0.884,0.8739,0.8745,0.8069,0.8304,0.8313,0.8437,0.8893,0.89,0.89,0.8876,0.8863,0.896,3.0898,3.0898,3.0898,3.0898,3.0898,3.0898,3.0898,3.0898,3.0879,3.0898,3.0713,3.0381,3.0078,3.0049,2.9639,2.8183,2.5797,2.5754,2.3557,2.1101,2.123,2.0937,2.0738,2.0708,2.0835,2.0795,2.0688,2.0641,2.0648,2.0535,2.0528,2.0668,2.0949,2.1029,2.1056,2.1082,2.1042,2.0975,2.0835,2.0688,2.0621,2.0368,2.0107,1.9846,1.9553,1.9419,1.9366,1.9366,1.9366,1.8493,1.6897,1.5494,1.4089,1.2933,1.1499,1.0301,0.9819,0.9819,0.9819,0.9819,0.9819,0.9819,0.9819,0.9819,0.9819,0.9819,0.9819,0.9819,0.9819,0.9819,0.9819,0.9819,0.9819,0.9819,0.9819,0.9819,0.9819,0.9819,0.9819,0.9819,0.9819,0.9819,0.9819,0.9819,0.9819,0.9819,0.9819,0.9819,0.9819,0.9819,0.9819,0.9717,0.9605,0.9486,0.9371,0.913,0.8974,0.8947,0.894,0.8944,0.895,0.8957,0.8853,0.8755,0.7396,0.6156,0.6502,0.8211,0.8549,0.8897,0.8907,0.8903,0.8876,0.8856,0.8957]}]]